[[{"header":{"parameterUnit":"m.s-1","parameterCategory":1,"la1":31.0,"la2":29.5877,"lo1":-88.7671,"lo2":-86.6584,"dy":0.0162,"dx":0.0185,"nx":115,"ny":88,"refTime":"2025-11-05T12:00:00:Z","depth":0,"parameterNumber":2,"parameterNumberName":"U-component_of_WINDS"},"data":[0.0,0.0,0.0,0.0,0.0,0.0,0.0,0.0,0.0,0.0,0.0,0.0,0.0,0.0,0.0,0.0,0.0,0.0,0.0,0.0,0.0,0.0,0.0,0.0,0.0,0.0,0.0,0.0,0.0,0.0,0.0,0.0,0.0,0.0,0.0,0.0,0.0,0.0,0.0,0.0,0.0,0.0,0.0,0.0,0.0,0.0,0.0,0.0,0.0,0.0,0.0,0.0,0.0,0.0,0.0,0.0,0.0,0.0,0.0,0.0,0.0,0.0,0.0,0.0,0.0,0.0,0.0,0.0,0.0,0.0,0.0,0.0,0.0,0.0,0.0,0.0,0.0,0.0,0.0,0.0,0.0,0.0,0.0,0.0,0.0,0.0,0.0,0.0,0.0,0.0,0.0,0.0,0.0,0.0,0.0,0.0,0.0,0.0,0.0,0.0,0.0,0.0,0.0,0.0,0.0,0.0,0.0,0.0,0.0,0.0,0.0,0.0,0.0,0.0,0.0,0.0,0.0,0.0,0.0,0.0,0.0,0.0,0.0,0.0,0.0,0.0,0.0,0.0,0.0,0.0,0.0,0.0,0.0,0.0,0.0,0.0,0.0,0.0,0.0,0.0,0.0,0.0,0.0,0.0,0.0,0.0,0.0,0.0,0.0,0.0,0.0,0.0,0.0,0.0,0.0,0.0,0.0,0.0,0.0,0.0,0.0,0.0,0.0,0.0,0.0,0.0,0.0,0.0,0.0,0.0,0.0,0.0,0.0,0.0,0.0,0.0,0.0,0.0,0.0,0.0,0.0,0.0,0.0,0.0,0.0,0.0,0.0,0.0,0.0,0.0,0.0,0.0,0.0,0.0,0.0,0.0,0.0,0.0,0.0,0.0,0.0,0.0,0.0,0.0,0.0,0.0,0.0,0.0,0.0,0.0,0.0,0.0,0.0,0.0,0.0,0.0,0.0,0.0,0.0,0.0,0.0,0.0,0.0,0.0,0.0,0.0,0.0,0.0,0.0,0.0,0.0,0.0,0.0,0.0,0.0,0.0,0.0,0.0,0.0,0.0,0.0,0.0,0.0,0.0,0.0,0.0,0.0,0.0,0.0,0.0,0.0,0.0,0.0,0.0,0.0,0.0,0.0,0.0,0.0,0.0,0.0,0.0,0.0,0.0,0.0,0.0,0.0,0.0,0.0,0.0,0.0,0.0,0.0,0.0,0.0,0.0,0.0,0.0,0.0,0.0,0.0,0.0,0.0,0.0,0.0,0.0,0.0,0.0,0.0,0.0,0.0,0.0,0.0,0.0,0.0,0.0,0.0,0.0,0.0,0.0,0.0,0.0,0.0,0.0,0.0,0.0,0.0,0.0,0.0,0.0,0.0,0.0,0.0,0.0,0.0,0.0,0.0,0.0,0.0,0.0,0.0,0.0,0.0,0.0,0.0,0.0,0.0,0.0,0.0,0.0,0.0,0.0,0.0,0.0,0.0,0.0,0.0,0.0,0.0,0.0,0.0,0.0,0.0,0.0,0.0,0.0,0.0,0.0,0.0,0.0,0.0,0.0,0.0,0.0,0.0,0.0,0.0,0.0,0.0,0.0,0.0,0.0,0.0,0.0,0.0,0.0,0.0,0.0,0.0,0.0,0.0,0.0,0.0,0.0,0.0,0.0,0.0,0.0,0.0,0.0,0.0,0.0,0.0,0.0,0.0,0.0,0.0,0.0,0.0,0.0,0.0,0.0,0.0,0.0,0.0,0.0,0.0,0.0,0.0,0.0,0.0,0.0,0.0,0.0,0.0,0.0,0.0,0.0,0.0,0.0,0.0,0.0,0.0,0.0,0.0,0.0,0.0,0.0,0.0,0.0,0.0,0.0,0.0,0.0,0.0,0.0,0.0,0.0,0.0,0.0,0.0,0.0,0.0,0.0,0.0,0.0,0.0,0.0,0.0,0.0,0.0,0.0,0.0,0.0,0.0,0.0,0.0,0.0,0.0,0.0,0.0,0.0,0.0,0.0,0.0,0.0,0.0,0.0,0.0,0.0,0.0,0.0,0.0,0.0,0.0,0.0,0.0,0.0,0.0,0.0,0.0,0.0,0.0,0.0,0.0,0.0,0.0,0.0,0.0,0.0,0.0,0.0,0.0,0.0,0.0,0.0,0.0,0.0,0.0,0.0,0.0,0.0,0.0,0.0,0.0,0.0,0.0,0.0,0.0,0.0,0.0,0.0,0.0,0.0,0.0,0.0,0.0,0.0,0.0,0.0,0.0,0.0,0.0,0.0,0.0,0.0,0.0,0.0,0.0,0.0,0.0,0.0,0.0,0.0,0.0,0.0,0.0,0.0,0.0,0.0,0.0,0.0,0.0,0.0,0.0,0.0,0.0,0.0,0.0,0.0,0.0,0.0,0.0,0.0,0.0,0.0,0.0,0.0,0.0,0.0,0.0,0.0,0.0,0.0,0.0,0.0,0.0,0.0,0.0,0.0,0.0,0.0,0.0,0.0,0.0,0.0,0.0,0.0,0.0,0.0,0.0,0.0,0.0,0.0,0.0,0.0,0.0,0.0,0.0,0.0,0.0,0.0,0.0,0.0,0.0,0.0,0.0,0.0,0.0,0.0,0.0,0.0,0.0,0.0,0.0,0.0,0.0,0.0,0.0,0.0,0.0,0.0,0.0,0.0,0.0,0.0,0.0,0.0,0.0,0.0,0.0,0.0,0.0,0.0,0.0,0.0,0.0,0.0,0.0,0.0,0.0,0.0,0.0,0.0,0.0,0.0,0.0,0.0,0.0,0.0,0.0,0.0,0.0,0.0,0.0,0.0,0.0,0.0,0.0,0.0,0.0,0.0,0.0,0.0,0.0,0.0,0.0,0.0,0.0,0.0,0.0,0.0,0.0,0.0,0.0,0.0,0.0,0.0,0.0,0.0,0.0,0.0,0.0,0.0,0.0,0.0,0.0,0.0,0.0,0.0,0.0,0.0,0.0,0.0,0.0,0.0,0.0,0.0,0.0,0.0,0.0,0.0,0.0,0.0,0.0,0.0,0.0,0.0,0.0,0.0,0.0,0.0,0.0,0.0,0.0,0.0,0.0,0.0,0.0,0.0,0.0,0.0,0.0,0.0,0.0,0.0,0.0,0.0,0.0,0.0,0.0,0.0,0.0,0.0,0.0,0.0,0.0,0.0,0.0,0.0,0.0,0.0,0.0,0.0,0.0,0.0,0.0,0.0,0.0,0.0,0.0,0.0,0.0,0.0,0.0,0.0,0.0,0.0,0.0,0.0,0.0,0.0,0.0,0.0,0.0,0.0,0.0,0.0,0.0,0.0,0.0,0.0,0.0,0.0,0.0,0.0,0.0,0.0,0.0,0.0,0.0,0.0,0.0,0.0,0.0,0.0,0.0,0.0,0.0,0.0,0.0,0.0,0.0,0.0,0.0,0.0,0.0,0.0,0.0,0.0,0.0,0.0,0.0,0.0,0.0,0.0,0.0,0.0,0.0,0.0,0.0,0.0,0.0,0.0,0.0,0.0,0.0,0.0,0.0,0.0,0.0,0.0,0.0,0.0,0.0,0.0,0.0,0.0,0.0,0.0,0.0,0.0,0.0,0.0,0.0,0.0,0.0,0.0,0.0,0.0,0.0,0.0,0.0,0.0,0.0,0.0,0.0,0.0,0.0,0.0,0.0,0.0,0.0,0.0,0.0,0.0,0.0,0.0,0.0,0.0,0.0,0.0,0.0,0.0,0.0,0.0,0.0,0.0,0.0,0.0,0.0,0.0,0.0,0.0,0.0,0.0,0.0,0.0,0.0,0.0,0.0,0.0,0.0,0.0,0.0,0.0,0.0,0.0,0.0,0.0,0.0,0.0,0.0,0.0,0.0,0.0,0.0,0.0,0.0,0.0,0.0,0.0,0.0,0.0,0.0,0.0,0.0,0.0,0.0,0.0,0.0,0.0,0.0,0.0,0.0,0.0,0.0,0.0,0.0,0.0,0.0,0.0,0.0,0.0,0.0,0.0,0.0,0.0,0.0,0.0,0.0,0.0,0.0,0.0,0.0,0.0,0.0,0.0,0.0,0.0,0.0,0.0,0.0,0.0,0.0,0.0,0.0,0.0,0.0,0.0,0.0,0.0,0.0,0.0,0.0,0.0,0.0,0.0,0.0,0.0,0.0,0.0,0.0,0.0,0.0,0.0,0.0,0.0,0.0,0.0,0.0,0.0,0.0,0.0,0.0,0.0,0.0,0.0,0.0,0.0,0.0,0.0,-0.3691,0.0,0.0,0.0,-0.3578,0.0,0.0,0.0,0.0,0.0,0.0,0.0,0.0,0.0,0.0,0.0,0.0,0.0,0.0,0.0,0.0,0.0,0.0,0.0,0.0,0.0,0.0,0.0,0.0,0.0,0.0,0.0,0.0,0.0,0.0,0.0,0.0,0.0,0.0,0.0,0.0,0.0,0.0,0.0,0.0,0.0,0.0,0.0,0.0,0.0,0.0,0.0,0.0,0.0,0.0,0.0,0.0,0.0,0.0,0.0,0.0,0.0,0.0,0.0,0.0,0.0,0.0,0.0,0.0,0.0,0.0,0.0,0.0,0.0,0.0,0.0,0.0,0.0,0.0,0.0,0.0,0.0,0.0,0.0,0.0,0.0,0.0,0.0,0.0,0.0,0.0,0.0,0.0,0.0,0.0,0.0,0.0,0.0,0.0,0.0,0.0,0.0,0.0,0.0,0.0,0.0,0.0,0.0,0.0,0.0,0.0,0.0,0.0,0.0,0.0,-0.3582,-0.3579,-0.3612,-0.3578,-0.3578,0.0,0.0,0.0,0.0,0.0,0.0,0.0,0.0,0.0,0.0,0.0,0.0,0.0,0.0,0.0,0.0,0.0,0.0,0.0,0.0,0.0,0.0,0.0,0.0,0.0,0.0,0.0,0.0,0.0,0.0,0.0,0.0,0.0,0.0,0.0,0.0,0.0,0.0,0.0,0.0,0.0,0.0,0.0,0.0,0.0,0.0,0.0,0.0,0.0,0.0,0.0,0.0,0.0,0.0,0.0,0.0,0.0,0.0,0.0,0.0,0.0,0.0,0.0,0.0,0.0,0.0,0.0,0.0,0.0,0.0,0.0,0.0,0.0,0.0,0.0,0.0,0.0,0.0,0.0,0.0,0.0,0.0,0.0,0.0,0.0,0.0,0.0,0.0,0.0,0.0,0.0,0.0,0.0,0.0,0.0,0.0,0.0,0.0,0.0,0.0,0.0,0.0,0.0,0.0,0.0,0.0,0.0,0.0,0.0,0.0,0.0,0.0,-0.3865,-0.3914,-0.3729,0.0,0.0,0.0,0.0,0.0,0.0,0.0,0.0,0.0,0.0,0.0,0.0,0.0,0.0,0.0,0.0,0.0,0.0,0.0,0.0,0.0,0.0,0.0,0.0,0.0,0.0,0.0,0.0,0.0,0.0,0.0,0.0,0.0,0.0,0.0,0.0,0.0,0.0,0.0,0.0,0.0,0.0,0.0,0.0,0.0,0.0,0.0,0.0,0.0,0.0,0.0,0.0,0.0,0.0,0.0,0.0,0.0,0.0,0.0,0.0,0.0,0.0,0.0,0.0,0.0,0.0,0.0,0.0,0.0,0.0,0.0,0.0,0.0,0.0,0.0,0.0,0.0,0.0,0.0,0.0,0.0,0.0,0.0,0.0,0.0,0.0,0.0,0.0,0.0,0.0,0.0,0.0,0.0,0.0,0.0,0.0,0.0,0.0,0.0,0.0,0.0,0.0,0.0,0.0,0.0,0.0,0.0,0.0,0.0,0.0,-0.3612,-0.3618,-0.464,0.0,-0.4182,0.0,0.0,0.0,0.0,0.0,0.0,0.0,0.0,0.0,0.0,0.0,0.0,0.0,0.0,0.0,0.0,0.0,0.0,0.0,0.0,0.0,0.0,0.0,0.0,0.0,0.0,0.0,0.0,0.0,0.0,0.0,0.0,0.0,0.0,0.0,0.0,0.0,0.0,0.0,0.0,0.0,0.0,0.0,0.0,0.0,0.0,0.0,0.0,0.0,0.0,0.0,0.0,0.0,0.0,0.0,0.0,0.0,0.0,0.0,0.0,0.0,0.0,0.0,0.0,0.0,0.0,0.0,0.0,0.0,0.0,0.0,0.0,0.0,0.0,0.0,0.0,0.0,0.0,0.0,0.0,0.0,0.0,0.0,0.0,0.0,0.0,0.0,0.0,0.0,0.0,0.0,0.0,0.0,0.0,0.0,0.0,0.0,0.0,0.0,0.0,0.0,0.0,0.0,0.0,0.0,0.0,0.0,0.0,0.0,0.0,-0.4297,-0.3608,-0.4233,-0.4382,0.0,0.0,0.0,0.0,0.0,0.0,0.0,0.0,0.0,0.0,0.0,0.0,0.0,0.0,0.0,0.0,0.0,0.0,0.0,0.0,0.0,0.0,0.0,0.0,0.0,0.0,0.0,0.0,0.0,0.0,0.0,0.0,0.0,0.0,0.0,0.0,0.0,0.0,0.0,0.0,0.0,0.0,0.0,0.0,0.0,0.0,0.0,0.0,0.0,0.0,0.0,0.0,0.0,0.0,0.0,0.0,0.0,0.0,0.0,0.0,0.0,0.0,0.0,0.0,0.0,0.0,0.0,0.0,0.0,0.0,0.0,0.0,0.0,0.0,0.0,0.0,0.0,0.0,0.0,0.0,0.0,0.0,0.0,0.0,0.0,0.0,0.0,0.0,0.0,0.0,0.0,0.0,0.0,0.0,0.0,0.0,0.0,0.0,0.0,0.0,0.0,0.0,0.0,0.0,0.0,0.0,0.0,0.0,0.0,0.0,-0.4458,-0.4503,-0.3761,-0.4035,-0.4109,-0.383,0.0,0.0,0.0,0.0,0.0,0.0,0.0,0.0,0.0,0.0,0.0,0.0,0.0,0.0,0.0,0.0,0.0,0.0,0.0,0.0,0.0,0.0,0.0,0.0,0.0,0.0,0.0,0.0,0.0,0.0,0.0,0.0,0.0,0.0,0.0,0.0,0.0,0.0,0.0,0.0,0.0,0.0,0.0,0.0,0.0,0.0,0.0,0.0,0.0,0.0,0.0,0.0,0.0,0.0,0.0,0.0,0.0,0.0,0.0,0.0,0.0,0.0,0.0,0.0,0.0,0.0,0.0,0.0,0.0,0.0,0.0,0.0,0.0,0.0,0.0,0.0,0.0,0.0,0.0,0.0,0.0,0.0,0.0,0.0,0.0,0.0,0.0,0.0,0.0,0.0,0.0,0.0,0.0,0.0,0.0,0.0,0.0,0.0,0.0,0.0,0.0,0.0,0.0,0.0,0.0,0.0,0.0,0.0,-0.359,-0.367,-0.378,-0.3961,-0.4556,-0.4474,0.0,0.0,0.0,0.0,0.0,0.0,0.0,0.0,0.0,0.0,0.0,0.0,0.0,0.0,0.0,0.0,0.0,0.0,0.0,0.0,0.0,0.0,0.0,0.0,0.0,0.0,0.0,0.0,0.0,0.0,0.0,0.0,0.0,0.0,0.0,0.0,0.0,0.0,0.0,0.0,0.0,0.0,0.0,0.0,0.0,0.0,0.0,0.0,0.0,0.0,0.0,0.0,0.0,0.0,0.0,0.0,0.0,0.0,0.0,0.0,0.0,0.0,0.0,0.0,0.0,0.0,0.0,0.0,0.0,0.0,0.0,0.0,0.0,0.0,0.0,0.0,0.0,0.0,0.0,0.0,0.0,0.0,0.0,0.0,0.0,0.0,0.0,0.0,0.0,0.0,0.0,0.0,0.0,0.0,0.0,0.0,0.0,0.0,0.0,0.0,0.0,0.0,0.0,0.0,0.0,0.0,0.0,0.0,0.0,-0.3643,-0.4351,-0.4402,-0.3791,-0.3576,-0.3584,0.0,0.0,0.0,0.0,0.0,0.0,0.0,0.0,0.0,0.0,0.0,0.0,0.0,0.0,0.0,0.0,0.0,0.0,0.0,0.0,0.0,0.0,0.0,0.0,0.0,0.0,0.0,0.0,0.0,0.0,0.0,0.0,0.0,0.0,0.0,0.0,0.0,0.0,0.0,0.0,0.0,0.0,0.0,0.0,0.0,0.0,0.0,0.0,0.0,0.0,0.0,0.0,0.0,0.0,0.0,0.0,0.0,0.0,0.0,0.0,0.0,0.0,0.0,0.0,0.0,0.0,0.0,0.0,0.0,0.0,0.0,0.0,0.0,0.0,0.0,0.0,0.0,0.0,0.0,0.0,0.0,0.0,0.0,0.0,0.0,0.0,0.0,0.0,0.0,0.0,0.0,0.0,0.0,0.0,0.0,0.0,0.0,0.0,0.0,0.0,0.0,0.0,0.0,0.0,0.0,0.0,0.0,0.0,0.0,-0.3327,0.0,-0.4143,-0.3354,-0.3101,-0.3122,0.0,0.0,0.0,0.0,0.0,0.0,0.0,0.0,0.0,0.0,0.0,0.0,0.0,0.0,0.0,0.0,0.0,0.0,0.0,0.0,0.0,0.0,0.0,0.0,0.0,0.0,0.0,0.0,0.0,0.0,0.0,0.0,0.0,0.0,0.0,0.0,0.0,0.0,0.0,0.0,0.0,0.0,0.0,0.0,0.0,0.0,0.0,0.0,0.0,0.0,0.0,0.0,0.0,0.0,0.0,0.0,0.0,0.0,0.0,0.0,0.0,0.0,0.0,0.0,0.0,0.0,0.0,0.0,0.0,0.0,0.0,0.0,0.0,0.0,0.0,0.0,0.0,0.0,0.0,0.0,0.0,0.0,0.0,0.0,0.0,0.0,0.0,0.0,0.0,0.0,0.0,0.0,0.0,0.0,0.0,0.0,0.0,0.0,0.0,0.0,0.0,0.0,0.0,0.0,0.0,0.0,0.0,0.0,-0.2986,-0.2766,-0.2778,-0.2897,-0.2751,-0.3285,-0.3303,0.0,0.0,0.0,0.0,0.0,0.0,0.0,0.0,0.0,0.0,0.0,0.0,0.0,0.0,0.0,0.0,0.0,0.0,0.0,0.0,0.0,0.0,0.0,0.0,0.0,0.0,0.0,0.0,0.0,0.0,0.0,0.0,0.0,0.0,0.0,0.0,0.0,0.0,0.0,0.0,0.0,0.0,0.0,0.0,0.0,0.0,0.0,0.0,0.0,0.0,0.0,0.0,0.0,0.0,0.0,0.0,0.0,0.0,0.0,0.0,0.0,0.0,0.0,0.0,0.0,0.0,0.0,0.0,0.0,0.0,0.0,0.0,0.0,0.0,0.0,0.0,0.0,0.0,0.0,0.0,0.0,0.0,0.0,0.0,0.0,0.0,0.0,0.0,0.0,0.0,0.0,0.0,0.0,0.0,0.0,0.0,0.0,0.0,0.0,0.0,0.0,0.0,0.0,0.0,0.0,0.0,0.0,0.0,0.0,-0.3932,-0.395,-0.4041,-0.4191,-0.3614,-0.3302,0.0,0.0,0.0,0.0,0.0,0.0,0.0,0.0,0.0,0.0,0.0,0.0,0.0,0.0,0.0,0.0,0.0,0.0,0.0,0.0,0.0,0.0,0.0,0.0,0.0,0.0,0.0,0.0,0.0,0.0,0.0,0.0,0.0,0.0,0.0,0.0,0.0,0.0,0.0,0.0,0.0,0.0,0.0,0.0,0.0,0.0,0.0,0.0,0.0,0.0,0.0,0.0,0.0,0.0,0.0,0.0,0.0,0.0,0.0,0.0,0.0,0.0,0.0,0.0,0.0,0.0,0.0,0.0,0.0,0.0,0.0,0.0,0.0,0.0,0.0,0.0,0.0,0.0,0.0,0.0,0.0,0.0,0.0,0.0,0.0,0.0,0.0,0.0,0.0,0.0,0.0,0.0,0.0,0.0,0.0,0.0,0.0,0.0,0.0,0.0,0.0,0.0,0.0,0.0,0.0,0.0,0.0,0.0,0.0,-0.4766,-0.4611,-0.4599,-0.4741,-0.4022,-0.3609,-0.3615,0.0,0.0,0.0,0.0,0.0,0.0,0.0,0.0,0.0,0.0,0.0,0.0,0.0,0.0,0.0,0.0,0.0,0.0,0.0,0.0,0.0,0.0,0.0,0.0,0.0,0.0,0.0,0.0,0.0,0.0,0.0,0.0,0.0,0.0,0.0,0.0,0.0,0.0,0.0,0.0,0.0,0.0,0.0,0.0,0.0,0.0,0.0,0.0,0.0,0.0,0.0,0.0,0.0,0.0,0.0,0.0,0.0,0.0,0.0,0.0,0.0,0.0,0.0,0.0,0.0,0.0,0.0,0.0,0.0,0.0,0.0,0.0,0.0,0.0,0.0,0.0,0.0,0.0,0.0,0.0,0.0,0.0,0.0,0.0,0.0,0.0,0.0,0.0,0.0,0.0,0.0,0.0,0.0,0.0,0.0,0.0,0.0,0.0,0.0,0.0,0.0,0.0,0.0,0.0,0.0,0.0,0.0,0.0,-0.544,-0.488,-0.4578,-0.4559,-0.4525,-0.4146,0.0,0.0,0.0,0.0,0.0,0.0,0.0,0.0,0.0,0.0,0.0,0.0,0.0,0.0,0.0,0.0,0.0,0.0,0.0,0.0,0.0,0.0,0.0,0.0,0.0,0.0,0.0,0.0,0.0,0.0,0.0,0.0,0.0,0.0,0.0,0.0,0.0,0.0,0.0,0.0,0.0,0.0,0.0,0.0,0.0,0.0,0.0,0.0,0.0,0.0,0.0,0.0,0.0,0.0,0.0,0.0,0.0,0.0,0.0,0.0,0.0,0.0,0.0,0.0,0.0,0.0,0.0,0.0,0.0,0.0,0.0,0.0,0.0,0.0,0.0,0.0,0.0,0.0,0.0,0.0,0.0,0.0,0.0,0.0,0.0,0.0,0.0,0.0,0.0,0.0,0.0,0.0,0.0,0.0,0.0,0.0,0.0,0.0,0.0,0.0,0.0,0.0,0.0,0.0,0.0,0.0,0.0,0.0,0.0,-0.5988,-0.5926,-0.5617,-0.5206,-0.4711,-0.4358,0.0,0.0,0.0,0.0,0.0,0.0,0.0,0.0,0.0,0.0,0.0,0.0,0.0,0.0,0.0,0.0,0.0,0.0,0.0,0.0,0.0,0.0,0.0,0.0,0.0,0.0,0.0,0.0,0.0,0.0,0.0,0.0,0.0,0.0,0.0,0.0,0.0,0.0,0.0,0.0,0.0,0.0,0.0,0.0,0.0,0.0,0.0,0.0,0.0,0.0,0.0,0.0,0.0,0.0,0.0,0.0,0.0,0.0,0.0,0.0,0.0,0.0,0.0,0.0,0.0,0.0,0.0,0.0,0.0,0.0,0.0,0.0,0.0,0.0,0.0,0.0,0.0,0.0,0.0,0.0,0.0,0.0,0.0,0.0,0.0,0.0,0.0,0.0,0.0,0.0,0.0,0.0,0.0,0.0,0.0,0.0,0.0,0.0,0.0,0.0,0.0,0.0,0.0,0.0,0.0,0.0,0.0,0.0,-0.4756,-0.6234,-0.6317,-0.615,-0.5765,-0.5304,-0.4745,0.0,0.0,0.0,0.0,0.0,0.0,0.0,0.0,0.0,0.0,0.0,0.0,0.0,0.0,0.0,0.0,0.0,0.0,0.0,0.0,0.0,0.0,0.0,0.0,0.0,0.0,0.0,0.0,0.0,0.0,0.0,0.0,0.0,0.0,0.0,0.0,0.0,0.0,0.0,0.0,0.0,0.0,0.0,0.0,0.0,0.0,0.0,0.0,0.0,0.0,0.0,0.0,0.0,0.0,0.0,0.0,0.0,0.0,0.0,0.0,0.0,0.0,0.0,0.0,0.0,0.0,0.0,0.0,0.0,0.0,0.0,0.0,0.0,0.0,0.0,0.0,0.0,0.0,0.0,0.0,0.0,0.0,0.0,0.0,0.0,0.0,0.0,0.0,0.0,0.0,0.0,0.0,0.0,0.0,0.0,0.0,0.0,0.0,0.0,0.0,0.0,0.0,0.0,0.0,0.0,0.0,0.0,0.0,-0.4813,-0.6285,-0.6229,-0.6235,-0.6255,-0.5956,-0.531,0.0,0.0,0.0,0.0,0.0,0.0,0.0,0.0,0.0,0.0,0.0,0.0,0.0,0.0,0.0,0.0,0.0,0.0,0.0,0.0,0.0,0.0,0.0,0.0,0.0,0.0,0.0,0.0,0.0,0.0,0.0,0.0,0.0,0.0,0.0,0.0,0.0,0.0,0.0,0.0,0.0,0.0,0.0,0.0,0.0,0.0,0.0,0.0,0.0,0.0,0.0,0.0,0.0,0.0,0.0,0.0,0.0,0.0,0.0,0.0,0.0,0.0,0.0,0.0,0.0,0.0,0.0,0.0,0.0,0.0,0.0,0.0,0.0,0.0,0.0,0.0,0.0,0.0,0.0,0.0,0.0,0.0,0.0,0.0,0.0,0.0,0.0,0.0,0.0,0.0,0.0,0.0,0.0,0.0,0.0,0.0,0.0,0.0,0.0,0.0,0.0,0.0,0.0,0.0,0.0,0.0,0.0,0.0,-0.5199,-0.6245,-0.5847,-0.5791,-0.6248,-0.5776,-0.537,0.0,0.0,0.0,0.0,0.0,0.0,0.0,0.0,0.0,0.0,0.0,0.0,0.0,0.0,0.0,0.0,0.0,0.0,0.0,0.0,0.0,0.0,0.0,0.0,0.0,0.0,0.0,0.0,0.0,0.0,0.0,0.0,0.0,0.0,0.0,0.0,0.0,0.0,0.0,0.0,0.0,0.0,0.0,0.0,0.0,0.0,0.0,0.0,-0.335,0.0,0.0,0.0,0.0,0.0,0.0,0.0,0.0,0.0,0.0,0.0,0.0,0.0,0.0,0.0,0.0,0.0,0.0,0.0,0.0,0.0,0.0,0.0,0.0,0.0,0.0,0.0,0.0,0.0,0.0,0.0,0.0,0.0,0.0,0.0,0.0,0.0,0.0,0.0,0.0,0.0,0.0,0.0,0.0,0.0,0.0,0.0,0.0,0.0,0.0,0.0,0.0,0.0,0.0,0.0,0.0,0.0,0.0,0.0,-0.5355,-0.5869,-0.558,-0.5578,-0.5871,-0.5664,-0.5446,0.0,0.0,0.0,0.0,0.0,0.0,0.0,0.0,0.0,0.0,0.0,0.0,0.0,0.0,0.0,0.0,0.0,0.0,0.0,0.0,0.0,0.0,0.0,0.0,0.0,0.0,0.0,0.0,0.0,0.0,0.0,0.0,0.0,0.0,0.0,0.0,0.0,0.0,0.0,0.0,0.0,0.0,0.0,0.0,0.0,0.0,0.0,0.0,0.0,0.0,0.0,0.0,0.0,0.0,0.0,0.0,0.0,0.0,0.0,0.0,0.0,0.0,0.0,0.0,0.0,0.0,0.0,0.0,0.0,0.0,0.0,0.0,0.0,0.0,0.0,0.0,0.0,0.0,0.0,0.0,0.0,0.0,0.0,0.0,0.0,0.0,0.0,0.0,0.0,0.0,0.0,0.0,0.0,0.0,0.0,0.0,0.0,0.0,0.0,0.0,0.0,0.0,0.0,0.0,0.0,0.0,0.0,-0.4928,-0.5322,-0.5369,-0.5396,-0.5386,-0.5428,-0.5644,-0.5502,-0.4842,0.0,0.0,0.0,0.0,0.0,0.0,0.0,0.0,0.0,0.0,0.0,0.0,0.0,0.0,0.0,0.0,0.0,0.0,0.0,0.0,0.0,0.0,0.0,0.0,0.0,0.0,0.0,0.0,0.0,0.0,0.0,0.0,0.0,0.0,0.0,0.0,0.0,0.0,-0.3171,-0.3625,0.0,0.0,0.0,0.0,0.0,0.0,0.0,0.0,-0.364,0.0,0.0,0.0,0.0,0.0,0.0,0.0,0.0,0.0,0.0,0.0,0.0,0.0,0.0,0.0,0.0,0.0,0.0,0.0,0.0,0.0,0.0,0.0,0.0,0.0,0.0,0.0,0.0,0.0,0.0,0.0,0.0,0.0,0.0,0.0,0.0,0.0,0.0,0.0,0.0,0.0,0.0,0.0,0.0,0.0,0.0,0.0,0.0,0.0,0.0,0.0,0.0,0.0,0.0,0.0,0.0,-0.5168,-0.4832,-0.4865,-0.5365,-0.5416,-0.5408,-0.5412,-0.5679,-0.5439,-0.4634,0.0,0.0,0.0,0.0,0.0,0.0,0.0,0.0,0.0,0.0,0.0,0.0,0.0,0.0,0.0,0.0,0.0,0.0,0.0,0.0,0.0,0.0,0.0,0.0,0.0,0.0,0.0,0.0,0.0,0.0,0.0,0.0,0.0,0.0,0.0,0.0,0.0,0.0,0.0,-0.4106,-0.4307,0.0,0.0,0.0,0.0,0.0,0.0,0.0,0.0,-0.3554,0.0,0.0,0.0,0.0,0.0,0.0,0.0,0.0,0.0,0.0,0.0,0.0,0.0,0.0,0.0,0.0,0.0,0.0,0.0,0.0,0.0,0.0,0.0,0.0,0.0,0.0,0.0,0.0,0.0,0.0,0.0,0.0,0.0,0.0,0.0,0.0,0.0,0.0,0.0,0.0,0.0,0.0,0.0,0.0,0.0,0.0,0.0,0.0,0.0,0.0,0.0,0.0,0.0,0.0,0.0,-0.4445,-0.4756,-0.5094,-0.5362,-0.5373,-0.543,-0.5409,-0.5848,-0.559,0.0,0.0,0.0,0.0,0.0,0.0,0.0,0.0,0.0,0.0,0.0,0.0,0.0,0.0,0.0,0.0,0.0,0.0,0.0,0.0,0.0,0.0,0.0,0.0,0.0,0.0,0.0,0.0,0.0,0.0,0.0,0.0,0.0,0.0,0.0,0.0,0.0,0.0,0.0,0.0,-0.4344,-0.4409,-0.4217,0.0,0.0,0.0,0.0,0.0,0.0,-0.3873,-0.3882,0.0,0.0,0.0,0.0,0.0,0.0,0.0,0.0,0.0,0.0,0.0,0.0,0.0,0.0,0.0,0.0,0.0,0.0,0.0,0.0,0.0,0.0,0.0,0.0,0.0,0.0,0.0,0.0,0.0,0.0,0.0,0.0,0.0,0.0,0.0,0.0,0.0,0.0,0.0,0.0,0.0,0.0,0.0,0.0,0.0,0.0,0.0,0.0,0.0,0.0,0.0,0.0,0.0,0.0,0.0,-0.3922,-0.4887,-0.5426,-0.5391,-0.5423,-0.543,-0.5412,-0.5963,-0.5677,0.0,0.0,0.0,0.0,0.0,0.0,0.0,0.0,0.0,0.0,0.0,0.0,0.0,0.0,0.0,0.0,0.0,0.0,0.0,0.0,0.0,0.0,0.0,0.0,0.0,0.0,0.0,0.0,0.0,0.0,0.0,0.0,0.0,0.0,0.0,0.0,0.0,0.0,0.0,0.0,0.0,-0.4535,-0.4308,-0.4284,0.0,0.0,0.0,0.0,-0.4085,-0.4362,0.0,0.0,0.0,0.0,0.0,0.0,0.0,0.0,0.0,0.0,0.0,0.0,0.0,0.0,0.0,0.0,0.0,0.0,0.0,0.0,0.0,0.0,0.0,0.0,0.0,0.0,0.0,0.0,0.0,0.0,0.0,0.0,0.0,0.0,0.0,0.0,0.0,0.0,0.0,0.0,0.0,0.0,0.0,0.0,0.0,0.0,0.0,0.0,0.0,0.0,0.0,0.0,0.0,0.0,0.0,0.0,-0.4671,-0.5172,-0.5393,-0.5389,-0.5369,-0.543,-0.5418,-0.5973,-0.546,0.0,0.0,0.0,0.0,0.0,0.0,0.0,0.0,0.0,0.0,0.0,0.0,0.0,0.0,0.0,0.0,0.0,0.0,0.0,0.0,0.0,0.0,0.0,0.0,0.0,0.0,0.0,0.0,0.0,0.0,0.0,0.0,0.0,0.0,0.0,0.0,0.0,0.0,0.0,0.0,0.0,-0.4952,-0.4677,-0.464,-0.4629,0.0,0.0,-0.4548,-0.4452,-0.4479,0.0,0.0,0.0,0.0,0.0,0.0,0.0,0.0,0.0,0.0,0.0,0.0,0.0,0.0,0.0,0.0,0.0,0.0,0.0,0.0,0.0,0.0,0.0,0.0,0.0,0.0,0.0,0.0,0.0,0.0,0.0,0.0,0.0,0.0,0.0,0.0,0.0,0.0,0.0,0.0,0.0,0.0,0.0,0.0,0.0,0.0,0.0,0.0,0.0,0.0,0.0,0.0,0.0,0.0,0.0,-0.187,-0.2205,-0.4306,-0.5389,-0.5432,-0.5428,-0.543,-0.5421,-0.5336,-0.4897,0.0,0.0,0.0,0.0,0.0,0.0,0.0,0.0,0.0,0.0,0.0,0.0,0.0,0.0,0.0,0.0,0.0,0.0,0.0,0.0,0.0,0.0,0.0,0.0,0.0,0.0,0.0,0.0,0.0,0.0,0.0,0.0,0.0,0.0,0.0,0.0,0.0,0.0,0.0,0.0,0.0,0.0,-0.485,-0.4962,0.0,0.0,0.0,-0.5158,-0.5019,0.0,0.0,0.0,0.0,0.0,0.0,0.0,0.0,0.0,0.0,0.0,0.0,0.0,0.0,0.0,0.0,0.0,0.0,0.0,0.0,0.0,0.0,0.0,0.0,0.0,0.0,0.0,0.0,0.0,0.0,0.0,0.0,0.0,0.0,0.0,0.0,0.0,0.0,0.0,0.0,0.0,0.0,0.0,0.0,0.0,0.0,0.0,0.0,0.0,0.0,0.0,0.0,0.0,0.0,0.0,0.0,0.0,-0.1656,-0.411,-0.5415,-0.5369,-0.5428,-0.543,-0.5409,-0.4823,0.0,0.0,0.0,0.0,0.0,0.0,0.0,0.0,0.0,0.0,0.0,0.0,0.0,0.0,0.0,0.0,0.0,0.0,0.0,0.0,0.0,0.0,0.0,0.0,0.0,0.0,0.0,-0.2001,0.0,0.0,0.0,0.0,0.0,0.0,0.0,0.0,0.0,0.0,0.0,0.0,0.0,0.0,-0.522,-0.5152,-0.5396,-0.5655,0.0,0.0,-0.5742,-0.5634,-0.5597,-0.5713,0.0,0.0,0.0,0.0,0.0,0.0,0.0,0.0,0.0,0.0,0.0,0.0,0.0,0.0,0.0,0.0,0.0,0.0,0.0,0.0,0.0,0.0,0.0,0.0,0.0,0.0,0.0,0.0,0.0,0.0,0.0,0.0,0.0,0.0,0.0,0.0,0.0,0.0,0.0,0.0,0.0,0.0,0.0,0.0,0.0,0.0,0.0,0.0,0.0,0.0,0.0,0.0,0.0,0.0,-0.5966,-0.5855,-0.5525,-0.538,-0.5376,-0.5428,-0.543,-0.5415,-0.4803,-0.44,0.0,0.0,0.0,0.0,0.0,0.0,0.0,0.0,0.0,0.0,0.0,0.0,0.0,0.0,0.0,0.0,0.0,0.0,0.0,0.0,0.0,0.0,0.0,0.0,0.0,0.0,0.0,0.0,0.0,0.0,0.0,0.0,0.0,0.0,0.0,0.0,0.0,0.0,0.0,0.0,0.0,-0.5603,-0.5725,-0.6006,-0.62,0.0,-0.621,-0.6242,-0.6254,-0.622,-0.6057,-0.5586,0.0,0.0,0.0,0.0,0.0,0.0,0.0,0.0,0.0,0.0,0.0,0.0,0.0,0.0,0.0,0.0,0.0,0.0,0.0,0.0,0.0,0.0,0.0,0.0,0.0,0.0,0.0,0.0,0.0,0.0,0.0,0.0,0.0,0.0,0.0,0.0,0.0,0.0,0.0,0.0,0.0,0.0,0.0,0.0,0.0,0.0,0.0,0.0,0.0,0.0,0.0,0.0,0.0,-0.4988,-0.6258,-0.5848,-0.5567,-0.544,-0.541,-0.5433,-0.5425,-0.5299,-0.4975,0.0,0.0,0.0,0.0,0.0,0.0,0.0,0.0,0.0,0.0,0.0,0.0,0.0,0.0,0.0,0.0,0.0,0.0,0.0,0.0,0.0,0.0,0.0,0.0,0.0,0.0,0.0,0.0,-0.3002,-0.3075,-0.3135,0.0,0.0,0.0,0.0,0.0,0.0,0.0,0.0,0.0,0.0,-0.5915,-0.6064,-0.6261,0.0,0.0,-0.6532,-0.6627,-0.6746,-0.6688,-0.6385,-0.5981,-0.5023,0.0,0.0,0.0,0.0,0.0,0.0,0.0,0.0,0.0,0.0,0.0,0.0,0.0,0.0,0.0,0.0,0.0,0.0,0.0,0.0,0.0,0.0,0.0,0.0,0.0,0.0,0.0,0.0,0.0,0.0,0.0,0.0,0.0,0.0,0.0,0.0,0.0,0.0,0.0,0.0,0.0,0.0,0.0,0.0,0.0,0.0,0.0,0.0,0.0,0.0,0.0,0.0,-0.4148,-0.6293,-0.6062,-0.5796,-0.5437,-0.5368,-0.5428,-0.54,-0.5783,-0.5599,0.0,0.0,0.0,0.0,0.0,0.0,0.0,0.0,0.0,0.0,0.0,0.0,0.0,0.0,0.0,0.0,0.0,0.0,0.0,0.0,0.0,0.0,0.0,0.0,0.0,0.0,0.0,0.0,-0.3314,-0.3273,-0.3185,0.0,0.0,0.0,0.0,0.0,0.0,0.0,0.0,0.0,0.0,-0.6237,-0.643,-0.6583,-0.6712,-0.6817,-0.6797,-0.6776,-0.6877,-0.6889,-0.6633,-0.6095,0.0,0.0,0.0,0.0,0.0,0.0,0.0,0.0,0.0,0.0,0.0,0.0,0.0,0.0,0.0,0.0,0.0,0.0,0.0,0.0,0.0,0.0,0.0,0.0,0.0,0.0,0.0,-0.0,0.0,0.0,-0.0,0.0,0.0,0.0,0.0,0.0,0.0,0.0,0.0,0.0,0.0,0.0,0.0,0.0,0.0,0.0,0.0,0.0,0.0,0.0,0.0,0.0,0.0,-0.4177,-0.6233,-0.6246,-0.6022,-0.5431,-0.544,-0.5432,-0.5384,-0.5953,-0.5973,-0.5408,0.0,0.0,0.0,0.0,0.0,0.0,0.0,0.0,0.0,0.0,0.0,0.0,0.0,0.0,0.0,0.0,0.0,0.0,0.0,0.0,0.0,0.0,0.0,0.0,0.0,0.0,-0.3574,-0.3482,-0.3282,0.0,0.0,0.0,0.0,0.0,0.0,0.0,0.0,0.0,-0.6518,-0.6572,-0.6573,-0.6868,-0.7034,-0.7115,-0.7126,-0.7014,-0.6831,-0.6549,-0.6845,-0.6687,0.0,0.0,0.0,0.0,0.0,0.0,0.0,0.0,0.0,0.0,0.0,0.0,0.0,0.0,0.0,0.0,0.0,0.0,0.0,0.0,0.0,0.0,0.0,0.0,0.0,0.0,0.0,-0.0,-0.0,0.0,0.0,0.0,0.0,0.0,0.0,0.0,0.0,0.0,0.0,0.0,-0.0,-0.0,0.0,0.0,0.0,0.0,0.0,0.0,0.0,0.0,0.0,0.0,0.0,0.0,-0.416,-0.6207,-0.6305,-0.6236,-0.6029,-0.6029,-0.5776,-0.5422,-0.5955,-0.5891,-0.5077,0.0,0.0,0.0,0.0,0.0,0.0,0.0,0.0,0.0,0.0,0.0,0.0,0.0,0.0,0.0,0.0,0.0,0.0,0.0,0.0,0.0,0.0,0.0,0.0,0.0,-0.4019,0.0,0.0,0.0,0.0,0.0,0.0,0.0,0.0,0.0,0.0,-0.4825,-0.5953,-0.6831,-0.6973,-0.6953,-0.7058,-0.72,-0.7258,0.0,0.0,0.0,0.0,0.0,0.0,0.0,0.0,0.0,0.0,0.0,0.0,0.0,0.0,-0.6427,-0.5332,-0.5053,-0.4719,-0.3856,0.0,0.0,0.0,0.0,0.0,0.0,0.0,0.0,0.0,0.0,0.0,0.0,0.0,0.0,-0.0,-0.0,-0.0,0.0,0.0,0.0,0.0,0.0,0.0,0.0,0.0,-0.0,-0.0,-0.0,-0.0,-0.0,0.0,-0.0,-0.0,0.0,0.0,0.0,0.0,0.0,0.0,0.0,0.0,-0.4121,-0.6177,-0.6295,-0.6266,-0.6259,-0.6264,-0.6131,-0.5728,-0.6061,-0.594,-0.5169,-0.4842,-0.4531,0.0,0.0,0.0,0.0,0.0,0.0,0.0,0.0,0.0,0.0,0.0,0.0,0.0,0.0,0.0,0.0,0.0,0.0,0.0,0.0,0.0,0.0,0.0,-0.4172,0.0,0.0,0.0,0.0,0.0,0.0,0.0,0.0,0.0,-0.4364,-0.546,-0.6555,-0.734,-0.7306,-0.7238,-0.7295,0.0,0.0,0.0,0.0,0.0,0.0,0.0,-0.6478,-0.6492,-0.7009,-0.7391,-0.7381,-0.7215,-0.7112,-0.6956,0.0,0.0,-0.6183,-0.5942,-0.5742,-0.5174,-0.5606,-0.6363,-0.7214,-0.6964,-0.6566,0.0,0.0,0.0,0.0,0.0,0.0,0.0,0.0,-0.0,-0.0,0.0,-0.0,0.0,0.0,0.0,0.0,-0.0,-0.0,0.0,0.0,-0.0,-0.0,-0.0,-0.0,-0.0,-0.0,-0.0,-0.0,-0.0,-0.0,0.0,0.0,0.0,0.0,0.0,0.0,-0.4231,-0.6262,-0.6342,-0.6261,-0.6257,-0.627,-0.6263,-0.6244,-0.6263,-0.6047,-0.563,-0.5596,-0.5267,-0.4562,-0.4507,0.0,0.0,0.0,0.0,0.0,0.0,0.0,0.0,0.0,0.0,0.0,0.0,0.0,0.0,0.0,0.0,0.0,0.0,0.0,0.0,-0.4157,0.0,0.0,0.0,0.0,0.0,0.0,0.0,0.0,0.0,-0.593,-0.5079,-0.5965,-0.7062,-0.7876,0.0,0.0,0.0,0.0,-0.7438,-0.7573,-0.7478,-0.7336,-0.7183,-0.6892,-0.6427,-0.5673,0.0,0.0,-0.7037,-0.7322,-0.7475,-0.7054,-0.7346,-0.7614,-0.7584,-0.719,-0.6873,-0.6974,-0.6888,-0.7059,-0.7722,-0.7512,-0.717,-0.0,0.0,0.0,0.0,0.0,-0.0,-0.0,-0.0,-0.0,-0.0,-0.0,-0.0,0.0,0.0,0.0,0.0,0.0,0.0,-0.0,-0.0,-0.0,-0.0,-0.0,-0.0,-0.0,-0.0,-0.0,-0.0,-0.0,-0.0,-0.0,-0.0,0.0,0.0,0.0,0.0,-0.5814,-0.6522,-0.6423,-0.6285,-0.6285,-0.6314,-0.63,-0.6257,-0.627,-0.6271,-0.6143,-0.5962,-0.5755,-0.5433,-0.5088,0.0,0.0,0.0,0.0,0.0,0.0,0.0,0.0,0.0,0.0,0.0,0.0,0.0,0.0,0.0,0.0,0.0,0.0,0.0,-0.4259,-0.4275,-0.4023,0.0,0.0,0.0,0.0,0.0,0.0,0.0,0.0,0.0,-0.6205,-0.689,-0.7485,0.0,0.0,-0.7662,-0.7607,-0.7648,-0.7665,-0.7611,-0.7648,0.0,-0.7492,-0.7413,-0.7285,-0.7038,-0.7561,-0.7966,-0.7743,-0.7828,-0.7872,-0.7736,-0.7824,-0.7913,-0.7896,-0.7641,-0.7305,-0.7148,-0.7302,-0.7595,-0.7844,-0.7872,-0.7777,-0.0,-0.0,-0.0,-0.0,-0.0,-0.0,-0.0,-0.0,-0.0,-0.0,-0.0,-0.0,-0.0,-0.0,-0.0,0.0,0.0,0.0,-0.0,-0.0,-0.0,-0.0,-0.0,-0.0,-0.0,-0.0,-0.0,-0.0,-0.0,-0.0,-0.0,-0.0,0.0,-0.1405,-0.4254,-0.5837,-0.6191,-0.5364,-0.5937,-0.6281,-0.6297,-0.6305,-0.6268,-0.6257,-0.6252,-0.6322,-0.6254,-0.6227,-0.6063,-0.5915,-0.5665,-0.4987,0.0,0.0,0.0,0.0,0.0,0.0,0.0,0.0,0.0,0.0,0.0,-0.3316,-0.2224,0.0,0.0,0.0,-0.3485,-0.4036,-0.4772,-0.4841,0.0,0.0,0.0,0.0,0.0,0.0,0.0,-0.6816,-0.7063,-0.7249,-0.7047,-0.7482,-0.7773,-0.7973,-0.7894,-0.7801,-0.7777,0.0,-0.7801,-0.778,-0.7845,-0.7872,-0.7784,-0.7719,-0.7788,-0.7758,-0.7875,-0.8035,-0.8038,-0.8038,-0.8062,-0.8113,-0.813,-0.815,-0.8204,-0.8065,-0.7879,-0.7488,-0.7677,-0.7896,-0.8,-0.798,-0.8038,-0.0,-0.0,-0.0,-0.0,-0.0,-0.0,-0.0,-0.0,-0.0,-0.0,-0.0,-0.0,-0.0,-0.0,-0.0,0.0,-0.0,-0.0,-0.0,-0.0,-0.0,-0.0,-0.0,-0.0,-0.0,-0.0,-0.0,-0.0,-0.0,-0.0,-0.0,-0.0,-0.0,-0.0,-0.0,-0.47,-0.5897,-0.3537,-0.4977,-0.5927,-0.6276,-0.628,-0.6278,-0.6278,-0.6355,-0.6285,-0.6379,-0.6434,-0.6368,-0.6074,-0.6242,-0.5895,-0.499,0.0,0.0,0.0,0.0,0.0,0.0,0.0,0.0,0.0,0.0,0.0,0.0,0.0,0.0,-0.2499,-0.427,0.0,-0.5585,-0.5637,0.0,0.0,0.0,-0.6514,-0.6029,-0.6559,-0.699,-0.7014,0.0,0.0,-0.7664,-0.7885,-0.8075,-0.8075,-0.7933,-0.7882,-0.8018,-0.7916,-0.7882,-0.8004,-0.8035,-0.8035,-0.8011,-0.8014,-0.8035,-0.8079,-0.8072,-0.8092,-0.8092,-0.8089,-0.814,-0.8262,-0.8289,-0.8319,-0.8455,-0.8448,-0.8397,-0.8113,-0.8075,-0.8079,-0.8085,-0.8092,-0.8102,-0.0,-0.0,-0.0,-0.0,-0.0,-0.0,-0.0,-0.0,-0.0,-0.0,-0.0,-0.0,-0.0,-0.0,-0.0,-0.0,-0.0,-0.0,-0.0,-0.0,-0.0,-0.0,-0.0,-0.0,-0.0,-0.0,-0.0,-0.0,-0.0,-0.0,-0.0,-0.0,-0.0,-0.0,-0.0,-0.4676,-0.6807,-0.6119,-0.3038,-0.3059,-0.6163,-0.6276,-0.6275,-0.6258,-0.6503,-0.6561,-0.6593,-0.6739,-0.6749,-0.6522,-0.6454,-0.6156,-0.5601,-0.5054,0.0,0.0,0.0,0.0,0.0,0.0,0.0,0.0,0.0,-0.5801,-0.6046,0.0,-0.4431,0.0,-0.5171,-0.5881,-0.6999,-0.6316,0.0,0.0,-0.6531,-0.6753,-0.7109,-0.7329,-0.7526,-0.775,-0.8099,-0.8217,-0.7898,-0.814,-0.8377,-0.8374,-0.815,-0.8001,-0.8031,-0.8014,-0.7997,-0.8038,-0.8048,-0.8038,-0.7955,-0.8036,-0.8143,-0.836,-0.8374,-0.8374,-0.8377,-0.8377,-0.8387,-0.8425,-0.8435,-0.8448,-0.8482,-0.8482,-0.8465,-0.8391,-0.8374,-0.8377,-0.8377,-0.8374,-0.8374,-0.0,-0.0,-0.0,-0.0,-0.0,-0.0,-0.0,-0.0,-0.0,-0.0,-0.0,-0.0,-0.0,-0.0,-0.0,-0.0,-0.0,-0.0,-0.0,-0.0,-0.0,-0.0,-0.0,-0.0,-0.0,-0.0,-0.0,-0.0,-0.0,-0.0,-0.0,-0.0,-0.0,-0.0,-0.0,-0.2654,-0.3968,-0.397,-0.3489,-0.4264,-0.6564,-0.6671,-0.6556,-0.6311,-0.6471,-0.6481,-0.6505,-0.6586,-0.6682,-0.6687,-0.653,-0.6301,-0.6057,-0.5716,-0.5125,0.0,0.0,0.0,0.0,0.0,0.0,0.0,0.0,0.0,0.0,0.0,-0.5758,-0.6271,-0.6143,-0.6454,-0.7531,-0.7015,-0.6868,-0.7278,-0.7292,-0.7441,-0.7855,-0.7953,-0.8055,-0.8218,-0.8381,-0.8479,-0.8266,-0.8374,-0.8587,-0.8696,-0.8446,-0.8238,-0.8235,-0.8238,-0.8235,-0.8238,-0.8235,-0.8133,-0.8028,-0.8094,-0.8284,-0.857,-0.8696,-0.8696,-0.8482,-0.8482,-0.8499,-0.8567,-0.8584,-0.8608,-0.8669,-0.8686,-0.8686,-0.8686,-0.8686,-0.8638,-0.8727,-0.8587,-0.8482,-0.0,-0.0,-0.0,-0.0,-0.0,-0.0,-0.0,-0.0,-0.0,-0.0,-0.0,-0.0,-0.0,-0.0,-0.0,-0.0,-0.0,-0.0,-0.0,-0.0,-0.0,-0.0,-0.0,-0.0,-0.0,-0.0,-0.0,-0.0,-0.0,-0.0,-0.0,-0.0,-0.0,-0.0,-0.0,-0.0591,-0.0585,-0.0095,-0.4684,-0.7074,-0.7097,-0.7126,-0.6888,-0.6404,-0.6293,-0.6301,-0.6325,-0.6335,-0.6506,-0.6667,-0.6468,-0.64,-0.6316,-0.6305,-0.5829,0.0,-0.4313,0.0,0.0,0.0,0.0,0.0,0.0,0.0,0.0,-0.6606,-0.66,-0.6965,-0.7028,-0.7245,-0.7622,-0.7804,-0.7879,-0.7902,-0.8136,-0.8299,-0.8303,-0.8425,-0.8513,-0.8509,-0.8526,-0.854,-0.855,-0.854,-0.8652,-0.8776,-0.8663,-0.8543,-0.8537,-0.8496,-0.8459,-0.8482,-0.8482,-0.8344,-0.8164,-0.8292,-0.8523,-0.8864,-0.8892,-0.8867,-0.8557,-0.8557,-0.8591,-0.8703,-0.874,-0.8781,-0.8916,-0.893,-0.893,-0.8916,-0.891,-0.8838,-0.8852,-0.8676,-0.854,-0.0,-0.0,-0.0,-0.0,-0.0,-0.0,-0.0,-0.0,-0.0,-0.0,-0.0,-0.0,-0.0,-0.0,-0.0,-0.0,-0.0,-0.0,-0.0,-0.0,-0.0,-0.0,-0.0,-0.0,-0.0,-0.0,-0.0,-0.0,-0.0,-0.0,-0.0,-0.0,-0.0,-0.0,-0.0,0.0,0.0,0.0,-0.4644,-0.7083,-0.7131,-0.7105,-0.7015,-0.6957,-0.656,0.0,-0.663,-0.6736,-0.6749,-0.6719,-0.6795,0.0,0.0,0.0,0.0,0.0,0.0,0.0,0.0,0.0,0.0,0.0,-0.6884,-0.6951,-0.7324,-0.7395,-0.7105,-0.6502,-0.7128,-0.7815,-0.8297,-0.8282,-0.8231,-0.8347,-0.8408,-0.8442,-0.8448,-0.8577,-0.8665,-0.8669,-0.8774,-0.8849,-0.8838,-0.8852,-0.8845,-0.8835,-0.8849,-0.8852,-0.8842,-0.8642,-0.8492,-0.8482,-0.8506,-0.8533,-0.8428,-0.8444,-0.8598,-0.8815,-0.8965,-0.8845,-0.8835,-0.8838,-0.8845,-0.8889,-0.8896,-0.8896,-0.8937,-0.8937,-0.8937,-0.8937,-0.8937,-0.8923,-0.8866,-0.8849,-0.8852,-0.0,-0.0,-0.0,-0.0,0.0,-0.0,-0.0,-0.0,-0.0,-0.0,-0.0,-0.0,-0.0,-0.0,-0.0,-0.0,-0.0,-0.0,-0.0,-0.0,-0.0,-0.0,-0.0,-0.0,-0.0,-0.0,-0.0,-0.0,-0.0,-0.0,-0.0,-0.0,-0.0,-0.1313,-0.3947,-0.5012,-0.4831,-0.3564,-0.5868,-0.5958,-0.3758,-0.3629,-0.4858,-0.734,-0.701,0.0,0.0,0.0,0.0,0.0,0.0,0.0,0.0,0.0,0.0,-0.6488,-0.6841,-0.7335,-0.7764,-0.8201,-0.8243,-0.7779,-0.7996,-0.8004,-0.761,-0.7709,-0.7584,-0.7025,-0.7668,-0.8309,-0.8674,-0.8484,-0.8435,-0.857,-0.8594,-0.8621,-0.8699,-0.8777,-0.8821,-0.8825,-0.8889,-0.8937,-0.8937,-0.8937,-0.8937,-0.8937,-0.8937,-0.8937,-0.8927,-0.8811,-0.871,-0.8706,-0.8706,-0.8733,-0.8692,-0.8709,-0.8729,-0.892,-0.8937,-0.8937,-0.8937,-0.8937,-0.8937,-0.8937,-0.8937,-0.8937,-0.8937,-0.8937,-0.8937,-0.8937,-0.8937,-0.8937,-0.8937,-0.8937,-0.8937,-0.0,-0.0,-0.0,-0.0,-0.0,-0.0,-0.0,-0.0,0.0,0.0,0.0,-0.0,-0.0,-0.0,-0.0,-0.0,-0.0,-0.0,-0.0,-0.0,-0.0,-0.0,-0.0,-0.0,-0.0,-0.0,-0.0,-0.0,-0.0,-0.0,-0.0,-0.0,-0.0,-0.273,-0.7525,-0.577,-0.5513,-0.7202,-0.7254,-0.5287,-0.1384,-0.127,-0.3328,-0.7782,-0.7418,-0.7132,-0.6926,-0.6688,-0.664,-0.6817,-0.6753,-0.682,-0.7122,-0.7193,-0.7024,-0.6775,-0.7021,-0.7326,-0.7643,-0.7911,-0.7984,-0.7904,-0.8347,-0.8358,-0.778,-0.8001,-0.8034,-0.7817,-0.818,-0.8683,-0.8918,-0.8735,-0.8615,-0.874,-0.875,-0.8801,-0.8916,-0.8937,-0.893,-0.8937,-0.8933,-0.8937,-0.8937,-0.8937,-0.8937,-0.8937,-0.8937,-0.8937,-0.8937,-0.8923,-0.891,-0.8906,-0.8896,-0.8923,-0.8933,-0.893,-0.8937,-0.8933,-0.8937,-0.8937,-0.8937,-0.8937,-0.8937,-0.8937,-0.8937,-0.8937,-0.8937,-0.8937,-0.8937,-0.8937,-0.8937,-0.8937,-0.8937,-0.8937,-0.8937,-0.0,-0.0,-0.0,-0.0,-0.0,-0.0,-0.0,-0.0,-0.0,-0.0,-0.0,-0.0,-0.0,-0.0,-0.0,-0.0,-0.0,-0.0,-0.0,-0.0,-0.0,-0.0,-0.0,-0.0,-0.0,-0.0,-0.0,-0.0,-0.0,-0.0,-0.0,-0.0,-0.0,-0.2729,-0.7513,-0.7572,-0.7547,-0.7842,-0.7596,-0.7106,-0.6104,-0.6088,-0.6415,-0.7163,-0.7451,-0.7323,-0.6936,-0.6892,-0.6865,-0.6871,-0.7183,-0.7269,-0.7095,-0.742,-0.7352,-0.7103,-0.7399,-0.7621,-0.7945,-0.8219,-0.8487,-0.8598,-0.8587,-0.8421,-0.837,-0.8516,-0.8577,-0.8394,-0.8604,-0.8686,-0.8824,-0.8808,-0.8876,-0.8906,-0.891,-0.892,-0.8954,-0.8954,-0.8957,-0.896,-0.8937,-0.895,-0.8964,-0.8957,-0.8964,-0.8947,-0.8984,-0.8954,-0.8967,-0.8937,-0.8937,-0.8937,-0.8937,-0.8937,-0.8937,-0.8937,-0.8937,-0.8937,-0.8937,-0.8937,-0.8937,-0.8937,-0.8937,-0.8937,-0.8937,-0.8937,-0.8937,-0.8937,-0.8937,-0.8937,-0.8937,-0.8937,-0.8937,-0.8937,-0.8937,-0.0,-0.0,-0.0,-0.0,-0.0,-0.0,-0.0,-0.0,-0.0,-0.0,-0.0,-0.0,-0.0,-0.0,-0.0,-0.0,-0.0,-0.0,-0.0,-0.0,-0.0,-0.0,-0.0,-0.0,-0.0,-0.0,-0.0,-0.0,-0.0,-0.0,-0.0,-0.0,-0.3135,-0.5182,-0.5841,-0.7376,-0.815,-0.7955,-0.7906,-0.7731,-0.7624,-0.7555,-0.7423,-0.713,-0.7409,-0.7495,-0.7312,-0.7333,-0.7292,-0.7292,-0.7424,-0.7495,-0.7512,-0.7716,-0.7744,-0.756,-0.7694,-0.8002,-0.8275,-0.8412,-0.8584,-0.8689,-0.8645,-0.8645,-0.8723,-0.8716,-0.8716,-0.8726,-0.8798,-0.8872,-0.9168,-0.9126,-0.9086,-0.9171,-0.9181,-0.9181,-0.9178,-0.9181,-0.9178,-0.9178,-0.9178,-0.9064,-0.8947,-0.9064,-0.9178,-0.9178,-0.9174,-0.9174,-0.9174,-0.9174,-0.9117,-0.8977,-0.8937,-0.8937,-0.8937,-0.8937,-0.8937,-0.8937,-0.8937,-0.8937,-0.8937,-0.894,-0.894,-0.8937,-0.894,-0.8937,-0.894,-0.8937,-0.8937,-0.8937,-0.8937,-0.8937,-0.8937,-0.8937,-0.8937,-0.0,-0.0,-0.0,-0.0,-0.0,-0.0,-0.0,-0.0,-0.0,-0.0,-0.0,-0.0,-0.0,-0.0,-0.0,-0.0,-0.0,-0.0,-0.0,-0.0,-0.0,-0.0,-0.0,-0.0,-0.0,-0.0,-0.0,-0.0,-0.0,-0.0,-0.0749,-0.2347,-0.6635,-0.7539,-0.5199,-0.7288,-0.8272,-0.8036,-0.8021,-0.8031,-0.7962,-0.802,-0.7801,-0.7395,-0.7573,-0.7651,-0.7654,-0.7655,-0.7597,-0.7604,-0.7662,-0.775,-0.7862,-0.8038,-0.8089,-0.81,-0.8099,-0.8279,-0.8533,-0.8533,-0.8615,-0.8794,-0.8808,-0.8876,-0.9008,-0.893,-0.8889,-0.8863,-0.9018,-0.9089,-0.9295,-0.9319,-0.9252,-0.9364,-0.9381,-0.9364,-0.9378,-0.9381,-0.9381,-0.9381,-0.9381,-0.9255,-0.9139,-0.9258,-0.9367,-0.9361,-0.9381,-0.9381,-0.9381,-0.9381,-0.9276,-0.9117,-0.9011,-0.8974,-0.895,-0.8937,-0.8937,-0.8937,-0.8974,-0.8994,-0.9005,-0.9015,-0.9042,-0.9055,-0.9015,-0.9005,-0.8991,-0.8991,-0.8994,-0.9001,-0.8923,-0.8943,-0.9066,-0.9062,-0.9008,-0.0,-0.0,-0.0,-0.0,-0.0,-0.0,-0.0,-0.0,-0.0,-0.0,-0.0,-0.0,-0.0,-0.0,-0.0,-0.0,-0.0,-0.0,-0.0,-0.0,-0.0,-0.0,-0.0,-0.0,-0.0,-0.0,-0.0,-0.0,-0.0,-0.0,-0.2818,-0.7514,-0.8697,-0.8676,-0.818,-0.8391,-0.8367,-0.8011,-0.7998,-0.7971,-0.8024,-0.7969,-0.7994,-0.7907,-0.7974,-0.7897,-0.776,-0.7611,-0.7604,-0.7621,-0.7862,-0.8007,-0.8045,-0.8286,-0.8448,-0.8462,-0.8479,-0.854,-0.8783,-0.88,-0.8811,-0.9076,-0.9103,-0.9167,-0.931,-0.932,-0.9259,-0.9074,-0.9144,-0.9327,-0.9357,-0.9364,-0.9374,-0.9412,-0.9412,-0.9381,-0.9401,-0.9381,-0.9381,-0.9381,-0.9415,-0.9384,-0.9412,-0.9418,-0.9405,-0.9429,-0.9435,-0.9435,-0.9429,-0.9429,-0.9412,-0.9327,-0.9232,-0.9096,-0.9001,-0.894,-0.8866,-0.8974,-0.9167,-0.9233,-0.9267,-0.9232,-0.9334,-0.9242,-0.9208,-0.9137,-0.9133,-0.9133,-0.9133,-0.9147,-0.9097,-0.8967,-0.9218,-0.9313,-0.9225,-0.0,-0.0,-0.0,-0.0,-0.0,-0.0,-0.0,-0.0,-0.0,-0.0,-0.0,-0.0,-0.0,-0.0,-0.0,-0.0,-0.0,-0.0,-0.0,-0.0,-0.0,-0.0,-0.0,-0.0,-0.0,-0.0,-0.0,-0.0,-0.0,-0.3454,-0.6546,-0.863,-0.8941,-0.8764,-0.8659,-0.8638,-0.8581,-0.8269,-0.8266,-0.8314,-0.8419,-0.8238,-0.7998,-0.7994,-0.8042,-0.8119,-0.8123,-0.8019,-0.8019,-0.8126,-0.8238,-0.8303,-0.8303,-0.8503,-0.8618,-0.8511,-0.8703,-0.8777,-0.8951,-0.8923,-0.9025,-0.9144,-0.9239,-0.9317,-0.9378,-0.9462,-0.9483,-0.9312,-0.9282,-0.9415,-0.9621,-0.9517,-0.9547,-0.9622,-0.9642,-0.9639,-0.9642,-0.9639,-0.9642,-0.9642,-0.9642,-0.9639,-0.9642,-0.9642,-0.9642,-0.9642,-0.9639,-0.9625,-0.9635,-0.9642,-0.9602,-0.953,-0.9456,-0.9248,-0.8993,-0.8964,-0.896,-0.897,-0.9242,-0.9404,-0.9415,-0.9323,-0.9378,-0.9388,-0.933,-0.9289,-0.9286,-0.9286,-0.9286,-0.931,-0.931,-0.9262,-0.9617,-0.9501,-0.931,-0.0,-0.0,-0.0,-0.0,-0.0,-0.0,-0.0,-0.0,-0.0,-0.0,-0.0,-0.0,-0.0,-0.0,-0.0,-0.0,-0.0,-0.0,-0.0,-0.0,-0.0,-0.0,-0.0,-0.0,-0.0,-0.0,-0.0,-0.0,-0.0,-0.5953,-0.8907,-0.8897,-0.8876,-0.8803,-0.8696,-0.8781,-0.8723,-0.8621,-0.8608,-0.8718,-0.8828,-0.8495,-0.8239,-0.8276,-0.8262,-0.8371,-0.8591,-0.8479,-0.8374,-0.8479,-0.852,-0.8547,-0.8547,-0.8689,-0.8679,-0.861,-0.8933,-0.9018,-0.9055,-0.9157,-0.9235,-0.9279,-0.9384,-0.9459,-0.9513,-0.9605,-0.9663,-0.9533,-0.9446,-0.9564,-0.9765,-0.9673,-0.9717,-0.9808,-0.9819,-0.9819,-0.9812,-0.9819,-0.9808,-0.9819,-0.9791,-0.9819,-0.9819,-0.9808,-0.9798,-0.9798,-0.9808,-0.9819,-0.9819,-0.9808,-0.9774,-0.9683,-0.9666,-0.9459,-0.9069,-0.9116,-0.9023,-0.9159,-0.9395,-0.9562,-0.9573,-0.9466,-0.9507,-0.9581,-0.9496,-0.9445,-0.9445,-0.9442,-0.9466,-0.949,-0.95,-0.95,-0.978,-0.9631,-0.951,-0.0,-0.0,-0.0,-0.0,-0.0,-0.0,-0.0,-0.0,-0.0,-0.0,-0.0,-0.0,-0.0,-0.0,-0.0,-0.0,-0.0,-0.0,-0.0,-0.0,-0.0,-0.0,-0.0,-0.0,-0.0,-0.0,-0.0,-0.0,-0.0,-0.5947,-0.8897,-0.8866,-0.8863,-0.8843,-0.892,-0.8913,-0.892,-0.8886,-0.8886,-0.8903,-0.8903,-0.8906,-0.8767,-0.8864,-0.8818,-0.8829,-0.8825,-0.8706,-0.8598,-0.8489,-0.8628,-0.8703,-0.8713,-0.8845,-0.887,-0.8874,-0.9137,-0.9325,-0.9323,-0.9357,-0.9425,-0.9429,-0.9581,-0.9649,-0.9744,-0.9778,-0.9788,-0.9805,-0.9774,-0.9778,-0.9791,-0.9788,-0.9795,-0.9815,-0.9819,-0.9819,-0.9819,-0.9819,-0.9819,-0.9819,-0.9819,-0.9819,-0.9819,-0.9819,-0.9819,-0.9819,-0.9819,-0.9819,-0.9819,-0.9819,-0.9808,-0.9802,-0.9778,-0.9713,-0.9459,-0.9329,-0.9432,-0.9573,-0.9554,-0.972,-0.9649,-0.957,-0.9741,-0.9754,-0.9663,-0.9608,-0.9602,-0.9622,-0.9659,-0.969,-0.9724,-0.9737,-0.9813,-0.9768,-0.9754,-0.0,-0.0,-0.0,-0.0,-0.0,-0.0,-0.0,-0.0,-0.0,-0.0,-0.0,-0.0,-0.0,-0.0,-0.0,-0.0,-0.0,-0.0,-0.0,-0.0,-0.0,-0.0,-0.0,-0.0,-0.0,-0.0,-0.0,-0.0,-0.0,-0.5976,-0.889,-0.8863,-0.896,-0.8944,-0.894,-0.8937,-0.8937,-0.8937,-0.8937,-0.8937,-0.894,-0.8937,-0.8882,-0.8896,-0.8889,-0.8886,-0.8889,-0.8886,-0.8777,-0.8774,-0.8828,-0.8855,-0.8869,-0.888,-0.8911,-0.8925,-0.9415,-0.968,-0.9624,-0.9593,-0.9547,-0.9605,-0.9696,-0.9758,-0.9808,-0.9819,-0.9819,-0.9819,-0.9819,-0.9819,-0.9819,-0.9819,-0.9819,-0.9819,-0.9819,-0.9819,-0.9819,-0.9819,-0.9819,-0.9819,-0.9819,-0.9819,-0.9819,-0.9819,-0.9819,-0.9819,-0.9819,-0.9819,-0.9819,-0.9819,-0.9819,-0.9819,-0.9819,-0.9788,-0.9707,-0.9666,-0.9669,-0.9799,-0.972,-0.9734,-0.9764,-0.9764,-0.9795,-0.9795,-0.9741,-0.9727,-0.971,-0.9717,-0.9768,-0.9778,-0.9819,-0.9819,-0.9819,-0.9819,-0.9819,-0.0,-0.0,-0.0,-0.0,-0.0,-0.0,-0.0,-0.0,-0.0,-0.0,-0.0,-0.0,-0.0,-0.0,-0.0,-0.0,-0.0,-0.0,-0.0,-0.0,-0.0,-0.0,-0.0,-0.0,-0.0,-0.0,-0.0,-0.0,-0.0,-0.6057,-0.8897,-0.9106,-0.9086,-0.9055,-0.9018,-0.9008,-0.8991,-0.895,-0.8937,-0.8957,-0.8883,-0.8897,-0.8917,-0.8957,-0.8967,-0.8917,-0.8947,-0.8937,-0.8937,-0.8944,-0.8981,-0.9028,-0.9086,-0.9054,-0.906,-0.9189,-0.9573,-0.9838,-0.9769,-0.9741,-0.968,-0.9683,-0.9761,-0.9819,-0.9819,-0.9819,-0.9819,-0.9819,-0.9819,-0.9819,-0.9819,-0.9819,-0.9819,-0.9819,-0.9819,-0.9819,-0.9819,-0.9819,-0.9819,-0.9819,-0.9819,-0.9819,-0.9819,-0.9819,-0.9819,-0.9819,-0.9819,-0.9819,-0.9819,-0.9819,-0.9819,-0.9819,-0.9819,-0.9819,-0.9778,-0.9761,-0.9761,-0.9771,-0.9774,-0.9805,-0.9819,-0.9819,-0.9819,-0.9819,-0.9819,-0.9819,-0.9819,-0.9819,-0.9819,-0.9819,-0.9819,-0.9819,-0.9819,-0.9819,-0.9819,-0.0,-0.0,-0.0,-0.0,-0.0,-0.0,-0.0,-0.0,-0.0,-0.0,-0.0,-0.0,-0.0,-0.0,-0.0,-0.0,-0.0,-0.0,-0.0,-0.0,-0.0,-0.0,-0.0,-0.0,-0.0,-0.0,-0.0,-0.0,-0.0,-0.6539,-0.9364,-0.9364,-0.934,-0.9266,-0.9154,-0.9154,-0.9089,-0.9008,-0.8876,-0.892,-0.8901,-0.8921,-0.898,-0.8977,-0.899,-0.8993,-0.8974,-0.8964,-0.8977,-0.8984,-0.9089,-0.9225,-0.934,-0.9381,-0.9449,-0.9456,-0.9731,-0.9799,-0.9781,-0.9798,-0.9795,-0.9798,-0.9815,-0.9819,-0.9819,-0.9819,-0.9819,-0.9819,-0.9819,-0.9819,-0.9819,-0.9839,-0.9836,-0.9819,-0.9819,-0.9819,-0.9819,-0.9819,-0.9819,-0.9819,-0.9819,-0.9819,-0.9819,-0.9819,-0.9819,-0.9819,-0.9819,-0.9819,-0.9819,-0.9819,-0.9819,-0.9819,-0.9819,-0.9819,-0.9819,-0.9819,-0.9815,-0.9815,-0.9812,-0.9819,-0.9819,-0.9819,-0.9819,-0.9819,-0.9819,-0.9819,-0.9819,-0.9819,-0.9819,-0.9819,-0.9819,-0.9819,-0.9819,-0.9819,-0.9819,-0.0,-0.0,-0.0,-0.0,-0.0,-0.0,-0.0,-0.0,-0.0,-0.0,-0.0,-0.0,-0.0,-0.0,-0.0,-0.0,-0.0,-0.0,-0.0,-0.0,-0.0,-0.0,-0.0,-0.0,-0.0,-0.0,-0.4691,-0.67,-0.7017,-0.8743,-0.9644,-0.9624,-0.9504,-0.9357,-0.9313,-0.931,-0.9276,-0.9134,-0.901,-0.8915,-0.8954,-0.931,-0.9575,-0.949,-0.9501,-0.9564,-0.9488,-0.9245,-0.9124,-0.9239,-0.9286,-0.9381,-0.9503,-0.9419,-0.9486,-0.973,-0.9754,-0.9768,-0.9808,-0.9822,-0.9822,-0.9822,-0.9822,-0.9819,-0.9819,-0.9832,-0.9832,-0.9829,-0.9819,-0.9819,-0.9836,-1.0046,-1.0064,-0.9832,-0.9819,-0.9839,-0.9849,-0.9836,-0.9819,-0.9819,-0.9819,-0.9819,-0.9822,-0.9822,-0.9819,-0.9819,-0.9819,-0.9819,-0.9819,-0.9819,-0.9819,-0.9819,-0.9819,-0.9819,-0.9819,-0.9819,-0.9819,-0.9819,-0.9819,-0.9819,-0.9819,-0.9819,-0.9819,-0.9819,-0.9819,-0.9819,-0.9819,-0.9819,-0.9819,-0.9819,-0.9819,-0.9819,-0.9819,-0.9819,-0.9819,-0.0,-0.0,-0.0,-0.0,-0.0,-0.0,-0.0,-0.0,-0.0,-0.0,-0.0,-0.0,-0.0,-0.0,-0.0,-0.0,-0.0,-0.0,-0.0,-0.0,-0.0,-0.0,-0.2718,-0.0863,-0.0,-0.0,-0.671,-0.9747,-0.983,-0.9741,-0.9804,-0.979,-0.9665,-0.9517,-0.9473,-0.9462,-0.9442,-0.9272,-0.9139,-0.9052,-0.9212,-0.9586,-0.9852,-0.978,-0.9787,-0.979,-0.979,-0.9544,-0.9372,-0.9418,-0.9432,-0.9537,-0.9666,-0.957,-0.9607,-0.9795,-0.9819,-0.9819,-0.9819,-0.9819,-0.9852,-0.9886,-0.9903,-0.9941,-0.9975,-0.9992,-0.9992,-0.9988,-0.9871,-0.9868,-1.0012,-1.0198,-1.0211,-1.0008,-1.0002,-0.9992,-0.9992,-0.9992,-0.9998,-0.9998,-0.9828,-0.9914,-0.9903,-0.9839,-0.9825,-0.9819,-0.9819,-0.9819,-0.9819,-0.9819,-0.9819,-0.9819,-0.9819,-0.9819,-0.9819,-0.9819,-0.9819,-0.9819,-0.9819,-0.9819,-0.9819,-0.9819,-0.9819,-0.9819,-0.9819,-0.9819,-0.9819,-0.9819,-0.9819,-0.9819,-0.9819,-0.9819,-0.9819,-0.9819,-0.9819,-0.0,-0.0,-0.0,-0.0,-0.0,-0.0,-0.0,-0.0,-0.0,-0.0,-0.0,-0.0,-0.0,-0.0,-0.0,-0.0,-0.0,-0.0,-0.0,-0.0,-0.0,-0.3459,-0.7447,-0.3825,-0.0,-0.0,-0.7109,-0.9585,-0.9802,-0.9785,-0.9819,-0.9785,-0.9771,-0.9751,-0.9642,-0.9618,-0.9557,-0.9466,-0.9432,-0.9382,-0.9489,-0.9622,-0.9792,-0.9788,-0.9788,-0.9785,-0.9778,-0.9771,-0.9669,-0.9469,-0.9561,-0.9676,-0.9785,-0.9819,-0.9812,-0.9819,-0.9819,-0.9836,-0.9832,-0.9859,-0.9917,-1.0046,-1.0066,-1.0117,-1.0212,-1.0219,-1.0219,-1.0222,-0.9972,-0.9986,-1.0246,-1.028,-1.0287,-1.0304,-1.0253,-1.0239,-1.0266,-1.0256,-1.0226,-1.0219,-1.0022,-0.9935,-1.0059,-0.9951,-0.9893,-0.9852,-0.9856,-0.9859,-0.9819,-0.9819,-0.9819,-0.9822,-0.9822,-0.9819,-0.9819,-0.9819,-0.9819,-0.9819,-0.9819,-0.9819,-0.9819,-0.9819,-0.9819,-0.9819,-0.9819,-0.9819,-0.9819,-0.9819,-0.9819,-0.9819,-0.9819,-0.9819,-0.9819,-0.9819,-0.9819,-0.0,-0.0,-0.0,-0.0,-0.0,-0.0,-0.0,-0.0,-0.0,-0.0,-0.0,-0.0,-0.0,-0.0,-0.0,-0.0,-0.0,-0.4943,-0.42,-0.0864,-0.2708,-0.5677,-0.9063,-0.8181,-0.7028,-0.7362,-0.8604,-0.9842,-0.9822,-0.9819,-0.9819,-0.9819,-0.9819,-0.9805,-0.9764,-0.9758,-0.9751,-0.971,-0.97,-0.9707,-0.9744,-0.9758,-0.9781,-0.9812,-0.9819,-0.9819,-0.9819,-0.9819,-0.9798,-0.9724,-0.9737,-0.9778,-0.9815,-0.9825,-0.9836,-0.9832,-0.9836,-0.988,-1.0095,-1.0115,-1.0066,-1.0195,-1.0219,-1.0239,-1.027,-1.0283,-1.028,-1.028,-1.0149,-1.0159,-1.0304,-1.0507,-1.0603,-1.0558,-1.0429,-1.0307,-1.03,-1.028,-1.028,-1.0273,-1.0249,-1.0096,-1.0076,-1.0042,-1.0097,-0.9891,-0.9858,-0.9961,-0.991,-0.9846,-0.9859,-0.9832,-0.9822,-0.9822,-0.9819,-0.9819,-0.9819,-0.9819,-0.9819,-0.9819,-0.9819,-0.9819,-0.9819,-0.9819,-0.9819,-0.9819,-0.9819,-0.9819,-0.9819,-0.9819,-0.9819,-0.9819,-0.9819,-0.9819,-0.9819,-0.0,-0.0,-0.0,-0.0,-0.0,-0.0,-0.0,-0.0,-0.0,-0.0,-0.0,-0.0,-0.0,-0.0,-0.0,-0.0,-0.4447,-0.8055,-0.7552,-0.5306,-0.6164,-0.8025,-0.9529,-0.9777,-0.9761,-0.9846,-0.9842,-0.9832,-0.9822,-0.9819,-0.9819,-0.9819,-0.9819,-0.9819,-0.9812,-0.9819,-0.9819,-0.9815,-0.9819,-0.9819,-0.9819,-0.9819,-0.9819,-0.9819,-0.9819,-0.9819,-0.9819,-0.9819,-0.9819,-0.9819,-0.9819,-0.9819,-0.9829,-0.9764,-0.9791,-0.9794,-0.9971,-1.0066,-1.0249,-1.0277,-1.0219,-1.0334,-1.0368,-1.0405,-1.0453,-1.0463,-1.0466,-1.0477,-1.0466,-1.0466,-1.0477,-1.0675,-1.0754,-1.067,-1.0565,-1.0463,-1.0463,-1.0477,-1.047,-1.0453,-1.0412,-1.0368,-1.0233,-1.0324,-1.0249,-1.0175,-1.0148,-1.0107,-1.0049,-0.9971,-0.9917,-0.9917,-0.9869,-0.9859,-0.9859,-0.9859,-0.9856,-0.9852,-0.9819,-0.9819,-0.9819,-0.9819,-0.9819,-0.9819,-0.9819,-0.9819,-0.9819,-0.9819,-0.9819,-0.9819,-0.9819,-0.9819,-0.9819,-0.9819,-0.9819,-0.0,-0.0,-0.0,-0.0,-0.0,-0.0,-0.0,-0.0,-0.0,-0.0,-0.0,-0.0,-0.0,-0.0,-0.0,-0.4324,-0.9435,-0.9552,-0.9661,-0.9023,-0.9387,-0.9635,-0.9734,-0.9741,-0.9849,-0.9825,-0.9822,-0.9822,-0.9819,-0.9819,-0.9819,-0.9819,-0.9819,-0.9819,-0.9819,-0.9819,-0.9819,-0.9819,-0.9819,-0.9819,-0.9819,-0.9819,-0.9819,-0.9819,-0.9819,-0.9819,-0.9829,-0.9842,-0.9856,-0.9849,-0.9832,-0.9836,-0.9856,-0.9858,-0.9797,-0.9955,-1.0171,-1.038,-1.03,-1.0304,-1.0365,-1.0483,-1.0517,-1.0568,-1.0653,-1.067,-1.067,-1.0663,-1.0714,-1.068,-1.068,-1.0711,-1.0707,-1.0714,-1.07,-1.0714,-1.0721,-1.0721,-1.0721,-1.0714,-1.0585,-1.0531,-1.0616,-1.0548,-1.0458,-1.0445,-1.0421,-1.0249,-1.0192,-1.0117,-1.008,-1.0073,-1.0002,-0.9903,-0.9903,-0.9903,-0.9777,-0.9767,-0.9839,-0.9819,-0.9819,-0.9819,-0.9819,-0.9819,-0.9819,-0.9819,-0.9819,-0.9819,-0.9819,-0.9819,-0.9819,-0.9819,-0.9819,-0.9819,-0.9819,-0.0,-0.0,-0.0,-0.0,-0.0,-0.0,-0.0,-0.0,-0.0,-0.0,-0.0,-0.0,-0.0,-0.0,-0.4818,-0.8685,-0.9678,-0.9774,-0.9741,-0.9846,-0.9737,-0.9852,-0.9839,-0.9846,-0.9842,-0.9825,-0.9819,-0.9819,-0.9819,-0.9819,-0.9819,-0.9819,-0.9819,-0.9819,-0.9819,-0.9819,-0.9819,-0.9819,-0.9819,-0.9819,-0.9819,-0.9819,-0.9825,-0.9832,-0.9832,-0.9832,-0.9849,-0.9937,-0.9998,-0.9971,-0.991,-0.9903,-0.9865,-0.9918,-0.9867,-1.0215,-1.04,-1.0604,-1.0555,-1.0589,-1.0644,-1.0633,-1.0653,-1.0683,-1.0704,-1.0721,-1.0721,-1.0721,-1.0721,-1.0721,-1.0721,-1.0721,-1.0721,-1.0721,-1.0721,-1.0721,-1.0721,-1.0721,-1.0721,-1.0711,-1.069,-1.067,-1.0666,-1.0636,-1.0685,-1.0743,-1.0558,-1.0392,-1.0337,-1.0273,-1.0243,-1.0226,-1.0151,-1.007,-1.0066,-1.0056,-0.9908,-0.9888,-0.9951,-0.9873,-0.9869,-0.9849,-0.9859,-0.9846,-0.9819,-0.9819,-0.9819,-0.9819,-0.9819,-0.9819,-0.9819,-0.9819,-0.9819,-0.9819,-0.9819,-0.0,-0.0,-0.0,-0.0,-0.0,-0.0,-0.0,-0.0,-0.0,-0.0,-0.0,-0.0,-0.0,-0.0,-0.6555,-0.9681,-0.9771,-0.9737,-0.9832,-0.9825,-0.9836,-0.9832,-0.9825,-0.9832,-0.9832,-0.9822,-0.9819,-0.9819,-0.9819,-0.9819,-0.9819,-0.9819,-0.9819,-0.9819,-0.9819,-0.9819,-0.9819,-0.9819,-0.9819,-0.9819,-0.9819,-0.9819,-0.9873,-1.004,-1.006,-1.0081,-1.0046,-1.011,-1.0154,-1.0137,-1.0083,-1.0066,-1.0154,-1.0089,-1.0166,-1.0361,-1.0592,-1.0644,-1.0719,-1.0737,-1.0764,-1.0711,-1.0721,-1.0721,-1.0721,-1.0721,-1.0721,-1.0721,-1.0721,-1.0721,-1.0721,-1.0721,-1.0721,-1.0721,-1.0721,-1.0721,-1.0721,-1.0721,-1.0721,-1.0721,-1.0714,-1.0711,-1.0717,-1.0721,-1.0704,-1.0723,-1.0723,-1.0558,-1.0534,-1.047,-1.0402,-1.0361,-1.0297,-1.0253,-1.0246,-1.0229,-1.0069,-1.0042,-1.0131,-1.0039,-0.9981,-0.9947,-0.9914,-0.9873,-0.9819,-0.9819,-0.9819,-0.9819,-0.9819,-0.9819,-0.9819,-0.9819,-0.9819,-0.9819,-0.9819,-0.0,-0.0,-0.0,-0.0,-0.0,-0.0,-0.0,-0.0,-0.0,-0.0,-0.0,-0.0,-0.0,-0.2833,-0.7165,-0.9648,-0.9737,-0.9836,-0.9822,-0.9822,-0.9822,-0.9822,-0.9819,-0.9822,-0.9822,-0.9819,-0.9819,-0.9819,-0.9819,-0.9819,-0.9819,-0.9819,-0.9819,-0.9819,-0.9819,-0.9819,-0.9819,-0.9819,-0.9819,-0.9819,-0.9819,-0.9825,-1.0019,-1.0263,-1.0339,-1.0259,-1.0222,-1.028,-1.031,-1.0314,-1.0331,-1.0344,-1.0371,-1.0283,-1.038,-1.0387,-1.0626,-1.0673,-1.0683,-1.07,-1.0711,-1.0721,-1.0721,-1.0721,-1.0721,-1.0721,-1.0721,-1.0721,-1.0721,-1.0721,-1.0721,-1.0721,-1.0721,-1.0721,-1.0721,-1.0721,-1.0721,-1.0721,-1.0721,-1.0721,-1.0721,-1.0721,-1.0721,-1.0721,-1.0721,-1.0721,-1.0721,-1.0711,-1.0677,-1.0643,-1.0561,-1.0527,-1.048,-1.0456,-1.0453,-1.0365,-1.0337,-1.0314,-1.0283,-1.0195,-1.011,-1.009,-1.0036,-0.9873,-0.9819,-0.9825,-0.9825,-0.9819,-0.9819,-0.9819,-0.9819,-0.9819,-0.9819,-0.9819,-0.9832,-0.0,-0.0,-0.0,-0.0,-0.0,-0.0,-0.0,-0.0,-0.0,-0.0,-0.0,-0.0,-0.3451,-0.7042,-0.876,-0.9852,-0.9832,-0.9822,-0.9819,-0.9819,-0.9819,-0.9819,-0.9819,-0.9819,-0.9819,-0.9819,-0.9819,-0.9819,-0.9819,-0.9819,-0.9819,-0.9819,-0.9819,-0.9819,-0.9819,-0.9819,-0.9819,-0.9819,-0.9819,-0.9819,-0.9819,-0.9849,-1.0057,-1.0468,-1.0584,-1.0527,-1.0445,-1.0402,-1.0456,-1.047,-1.0578,-1.0626,-1.0602,-1.0411,-1.0434,-1.0511,-1.069,-1.0721,-1.0721,-1.0721,-1.0721,-1.0721,-1.0721,-1.0721,-1.0721,-1.0721,-1.0721,-1.0721,-1.0721,-1.0721,-1.0721,-1.0721,-1.0721,-1.0721,-1.0721,-1.0721,-1.0721,-1.0721,-1.0721,-1.0721,-1.0721,-1.0721,-1.0721,-1.0721,-1.0721,-1.0721,-1.0721,-1.0721,-1.0704,-1.0697,-1.0673,-1.0666,-1.0677,-1.0666,-1.0663,-1.0675,-1.0592,-1.0572,-1.0534,-1.0455,-1.039,-1.0253,-1.0168,-1.0012,-0.989,-0.9856,-0.9846,-0.9839,-0.9819,-0.9819,-0.9819,-0.9829,-0.9866,-0.9903,-0.9897,-0.0,-0.0,-0.0,-0.0,-0.0,-0.0,-0.1975,-0.4322,-0.0,-0.0,-0.0,-0.3445,-0.6655,-0.9265,-0.9751,-0.9842,-0.9825,-0.9819,-0.9819,-0.9819,-0.9819,-0.9819,-0.9819,-0.9819,-0.9819,-0.9819,-0.9819,-0.9819,-0.9819,-0.9819,-0.9819,-0.9819,-0.9819,-0.9819,-0.9819,-0.9819,-0.9822,-0.9822,-0.9825,-0.9825,-0.9839,-0.9771,-1.0173,-1.0503,-1.0739,-1.0687,-1.0644,-1.0561,-1.0609,-1.0622,-1.0677,-1.0711,-1.0697,-1.067,-1.0504,-1.0704,-1.0721,-1.0721,-1.0721,-1.0721,-1.0721,-1.0721,-1.0721,-1.0721,-1.0721,-1.0721,-1.0721,-1.0721,-1.0721,-1.0721,-1.0721,-1.0721,-1.0721,-1.0721,-1.0721,-1.0721,-1.0721,-1.0721,-1.0721,-1.0721,-1.0721,-1.0721,-1.0721,-1.0721,-1.0721,-1.0721,-1.0721,-1.0721,-1.0721,-1.0721,-1.0721,-1.0717,-1.0714,-1.0714,-1.0714,-1.0649,-1.0706,-1.0689,-1.0664,-1.0586,-1.0541,-1.0399,-1.03,-1.0158,-1.0053,-0.9971,-0.991,-0.9914,-0.9869,-0.9846,-0.9903,-0.9954,-0.9971,-1.0108,-0.9995,-0.0,-0.0,-0.0,-0.0,-0.0,-0.0,-0.3696,-0.7801,-0.4439,-0.0,-0.27,-0.7018,-0.9506,-0.9741,-0.9849,-0.9839,-0.9819,-0.9819,-0.9819,-0.9819,-0.9819,-0.9819,-0.9819,-0.9819,-0.9819,-0.9819,-0.9819,-0.9819,-0.9819,-0.9819,-0.9819,-0.9819,-0.9819,-0.9819,-0.9819,-0.9819,-0.9829,-0.9863,-0.9741,-0.9751,-0.9814,-0.9938,-1.0239,-1.061,-1.0654,-1.0726,-1.0673,-1.0694,-1.07,-1.0704,-1.0714,-1.0721,-1.0721,-1.0717,-1.0717,-1.0721,-1.0721,-1.0721,-1.0721,-1.0721,-1.0721,-1.0721,-1.0721,-1.0721,-1.0721,-1.0721,-1.0721,-1.0721,-1.0721,-1.0721,-1.0721,-1.0721,-1.0721,-1.0721,-1.0721,-1.0721,-1.0721,-1.0721,-1.0721,-1.0721,-1.0721,-1.0721,-1.0721,-1.0721,-1.0721,-1.0721,-1.0721,-1.0721,-1.0721,-1.0721,-1.0721,-1.0721,-1.0717,-1.0717,-1.0717,-1.0717,-1.067,-1.0656,-1.0643,-1.0602,-1.0565,-1.0541,-1.0432,-1.0348,-1.0256,-1.0175,-1.0086,-1.0019,-0.9898,-0.9911,-0.9935,-1.0086,-1.0239,-1.0266,-1.0161,-0.0,-0.0,-0.0,-0.0,-0.0,-0.0,-0.3782,-0.9174,-0.8547,-0.867,-0.7768,-0.9127,-0.9737,-0.9849,-0.9836,-0.9825,-0.9819,-0.9819,-0.9819,-0.9819,-0.9819,-0.9819,-0.9819,-0.9819,-0.9819,-0.9819,-0.9819,-0.9819,-0.9819,-0.9819,-0.9819,-0.9819,-0.9819,-0.9819,-0.9819,-0.9846,-0.989,-0.9992,-0.9891,-0.983,-0.9949,-1.0341,-1.0565,-1.0654,-1.0743,-1.0687,-1.0717,-1.0721,-1.0721,-1.0721,-1.0721,-1.0721,-1.0721,-1.0721,-1.0721,-1.0721,-1.0721,-1.0721,-1.0721,-1.0721,-1.0721,-1.0721,-1.0721,-1.0721,-1.0721,-1.0721,-1.0721,-1.0721,-1.0721,-1.0721,-1.0721,-1.0721,-1.0721,-1.0721,-1.0721,-1.0721,-1.0721,-1.0721,-1.0721,-1.0721,-1.0721,-1.0721,-1.0721,-1.0721,-1.0721,-1.0721,-1.0721,-1.0721,-1.0721,-1.0721,-1.0721,-1.0721,-1.0721,-1.0721,-1.0721,-1.0721,-1.0721,-1.0721,-1.0714,-1.0704,-1.067,-1.0633,-1.0663,-1.0575,-1.0473,-1.0382,-1.0304,-1.0253,-1.0099,-1.0079,-1.0079,-1.0359,-1.0647,-1.0548,-1.0337,-0.0,-0.0,-0.3654,-0.5082,-0.4897,-0.3453,-0.5315,-0.9035,-0.9734,-0.9757,-0.9737,-0.9842,-0.9836,-0.9832,-0.9822,-0.9822,-0.9819,-0.9819,-0.9819,-0.9819,-0.9819,-0.9819,-0.9819,-0.9819,-0.9819,-0.9819,-0.9819,-0.9819,-0.9819,-0.9819,-0.9819,-0.9819,-0.9819,-0.9819,-0.9846,-0.991,-0.9975,-1.0056,-1.0009,-1.0122,-1.0375,-1.0596,-1.0668,-1.0747,-1.0687,-1.0714,-1.0721,-1.0721,-1.0721,-1.0721,-1.0721,-1.0721,-1.0721,-1.0721,-1.0721,-1.0721,-1.0721,-1.0721,-1.0721,-1.0721,-1.0721,-1.0721,-1.0721,-1.0721,-1.0721,-1.0721,-1.0721,-1.0721,-1.0721,-1.0721,-1.0721,-1.0721,-1.0721,-1.0721,-1.0721,-1.0721,-1.0721,-1.0721,-1.0721,-1.0721,-1.0721,-1.0721,-1.0721,-1.0721,-1.0721,-1.0721,-1.0721,-1.0721,-1.0721,-1.0721,-1.0721,-1.0721,-1.0721,-1.0721,-1.0721,-1.0721,-1.0721,-1.0721,-1.0721,-1.0714,-1.0717,-1.0711,-1.0721,-1.0721,-1.0633,-1.0558,-1.0504,-1.0409,-1.0183,-1.0189,-1.0213,-1.0507,-1.068,-1.0644,-1.0551,-0.0448,-0.1683,-0.6724,-0.8866,-0.8791,-0.672,-0.7288,-0.9413,-0.9754,-0.9808,-0.9819,-0.9822,-0.9822,-0.9819,-0.9819,-0.9819,-0.9819,-0.9819,-0.9819,-0.9819,-0.9819,-0.9819,-0.9819,-0.9819,-0.9819,-0.9819,-0.9819,-0.9819,-0.9819,-0.9819,-0.9819,-0.9819,-0.9819,-0.9852,-0.9903,-0.9981,-1.0073,-1.0076,-1.0334,-1.0449,-1.0668,-1.0689,-1.0754,-1.068,-1.0721,-1.0721,-1.0721,-1.0721,-1.0721,-1.0721,-1.0721,-1.0721,-1.0721,-1.0721,-1.0721,-1.0721,-1.0721,-1.0721,-1.0721,-1.0721,-1.0721,-1.0721,-1.0721,-1.0721,-1.0721,-1.0721,-1.0721,-1.0721,-1.0721,-1.0721,-1.0721,-1.0721,-1.0721,-1.0721,-1.0721,-1.0721,-1.0721,-1.0721,-1.0721,-1.0721,-1.0721,-1.0721,-1.0721,-1.0721,-1.0721,-1.0721,-1.0721,-1.0721,-1.0721,-1.0721,-1.0721,-1.0721,-1.0721,-1.0721,-1.0721,-1.0721,-1.0721,-1.0721,-1.0721,-1.0721,-1.0721,-1.0721,-1.0721,-1.0721,-1.0721,-1.0687,-1.0609,-1.0493,-1.0395,-1.0466,-1.0524,-1.0534,-1.0716,-1.0673,-1.0704,-0.1676,-0.4474,-0.7547,-0.8884,-0.8866,-0.8771,-0.8926,-0.9493,-0.9656,-0.9854,-0.9815,-0.9819,-0.9819,-0.9819,-0.9819,-0.9819,-0.9819,-0.9819,-0.9819,-0.9819,-0.9819,-0.9819,-0.9819,-0.9819,-0.9819,-0.9819,-0.9819,-0.9819,-0.9819,-0.9819,-0.9819,-0.9822,-0.9849,-0.992,-1.0002,-1.0083,-1.0116,-1.0266,-1.0558,-1.0633,-1.0673,-1.0683,-1.0697,-1.0707,-1.0721,-1.0721,-1.0721,-1.0721,-1.0721,-1.0721,-1.0721,-1.0721,-1.0721,-1.0721,-1.0721,-1.0721,-1.0721,-1.0721,-1.0721,-1.0721,-1.0721,-1.0721,-1.0721,-1.0721,-1.0721,-1.0721,-1.0721,-1.0721,-1.0721,-1.0721,-1.0721,-1.0721,-1.0721,-1.0721,-1.0721,-1.0721,-1.0721,-1.0721,-1.0721,-1.0721,-1.0721,-1.0721,-1.0721,-1.0721,-1.0721,-1.0721,-1.0721,-1.0721,-1.0721,-1.0721,-1.0721,-1.0721,-1.0721,-1.0721,-1.0721,-1.0721,-1.0721,-1.0721,-1.0721,-1.0721,-1.0721,-1.0721,-1.0721,-1.0721,-1.0721,-1.0721,-1.0714,-1.0616,-1.0578,-1.0656,-1.069,-1.0653,-1.0646,-1.0694,-1.0717,-0.6158,-0.7279,-0.8425,-0.891,-0.8957,-0.903,-0.9178,-0.9476,-0.9581,-0.97,-0.9819,-0.9819,-0.9819,-0.9819,-0.9819,-0.9819,-0.9819,-0.9819,-0.9819,-0.9819,-0.9819,-0.9819,-0.9819,-0.9819,-0.9819,-0.9819,-0.9819,-0.9819,-0.9819,-0.9819,-0.9819,-0.9839,-0.9917,-0.9978,-1.0066,-1.0229,-1.0429,-1.0565,-1.0677,-1.0717,-1.0721,-1.0721,-1.0721,-1.0721,-1.0721,-1.0721,-1.0721,-1.0721,-1.0721,-1.0721,-1.0721,-1.0721,-1.0721,-1.0721,-1.0721,-1.0721,-1.0721,-1.0721,-1.0721,-1.0721,-1.0721,-1.0721,-1.0721,-1.0721,-1.0721,-1.0721,-1.0721,-1.0721,-1.0721,-1.0721,-1.0721,-1.0721,-1.0721,-1.0721,-1.0721,-1.0721,-1.0721,-1.0721,-1.0721,-1.0721,-1.0721,-1.0721,-1.0721,-1.0721,-1.0721,-1.0721,-1.0721,-1.0721,-1.0721,-1.0721,-1.0721,-1.0721,-1.0721,-1.0721,-1.0721,-1.0721,-1.0721,-1.0721,-1.0721,-1.0721,-1.0721,-1.0721,-1.0721,-1.0721,-1.0721,-1.0721,-1.0721,-1.0721,-1.0717,-1.0717,-1.0717,-1.0707,-1.0714,-1.0721,-1.0721,-0.8873,-0.8964,-0.896,-0.8964,-0.8974,-0.9055,-0.9174,-0.9323,-0.9476,-0.9656,-0.9815,-0.9819,-0.9819,-0.9819,-0.9819,-0.9819,-0.9819,-0.9819,-0.9819,-0.9819,-0.9819,-0.9819,-0.9819,-0.9819,-0.9819,-0.9819,-0.9819,-0.9819,-0.9819,-0.9819,-0.9859,-0.993,-1.0032,-0.9978,-1.0188,-1.0402,-1.0616,-1.0694,-1.0721,-1.0721,-1.0721,-1.0721,-1.0721,-1.0721,-1.0721,-1.0721,-1.0721,-1.0721,-1.0721,-1.0721,-1.0721,-1.0721,-1.0721,-1.0721,-1.0721,-1.0721,-1.0721,-1.0721,-1.0721,-1.0721,-1.0721,-1.0721,-1.0721,-1.0721,-1.0721,-1.0721,-1.0721,-1.0721,-1.0721,-1.0721,-1.0721,-1.0721,-1.0721,-1.0721,-1.0721,-1.0721,-1.0721,-1.0721,-1.0721,-1.0721,-1.0721,-1.0721,-1.0721,-1.0721,-1.0721,-1.0721,-1.0721,-1.0721,-1.0721,-1.0721,-1.0721,-1.0721,-1.0721,-1.0721,-1.0721,-1.0721,-1.0721,-1.0721,-1.0721,-1.0721,-1.0721,-1.0721,-1.0721,-1.0721,-1.0721,-1.0721,-1.0721,-1.0721,-1.0721,-1.0717,-1.0721,-1.0721,-1.0721,-1.0721,-1.0721,-0.896,-0.894,-0.894,-0.894,-0.894,-0.8944,-0.9035,-0.9198,-0.9361,-0.9578,-0.9805,-0.9819,-0.9819,-0.9819,-0.9819,-0.9819,-0.9819,-0.9819,-0.9819,-0.9819,-0.9819,-0.9819,-0.9819,-0.9819,-0.9819,-0.9819,-0.9819,-0.9819,-0.9819,-0.9819,-0.9893,-1.0167,-1.0168,-1.0159,-1.0307,-1.0565,-1.0711,-1.0721,-1.0721,-1.0721,-1.0721,-1.0721,-1.0721,-1.0721,-1.0721,-1.0721,-1.0721,-1.0721,-1.0721,-1.0721,-1.0721,-1.0721,-1.0721,-1.0721,-1.0721,-1.0721,-1.0721,-1.0721,-1.0721,-1.0721,-1.0721,-1.0721,-1.0721,-1.0721,-1.0721,-1.0721,-1.0721,-1.0721,-1.0721,-1.0721,-1.0721,-1.0721,-1.0721,-1.0721,-1.0721,-1.0721,-1.0721,-1.0721,-1.0721,-1.0721,-1.0721,-1.0721,-1.0721,-1.0721,-1.0721,-1.0721,-1.0721,-1.0721,-1.0721,-1.0721,-1.0721,-1.0721,-1.0721,-1.0721,-1.0721,-1.0721,-1.0721,-1.0721,-1.0721,-1.0721,-1.0721,-1.0721,-1.0721,-1.0721,-1.0721,-1.0721,-1.0721,-1.0721,-1.0721,-1.0721,-1.0721,-1.0721,-1.0721,-1.0721,-1.0721,-0.8947,-0.8937,-0.8937,-0.8937,-0.8937,-0.8937,-0.9018,-0.9184,-0.9538,-0.9761,-0.9791,-0.9819,-0.9819,-0.9819,-0.9819,-0.9819,-0.9819,-0.9819,-0.9819,-0.9819,-0.9819,-0.9819,-0.9819,-0.9819,-0.9819,-0.9819,-0.9819,-0.9819,-0.9819,-0.9819,-1.0036,-1.0194,-1.029,-1.047,-1.0561,-1.0697,-1.0717,-1.0721,-1.0721,-1.0721,-1.0721,-1.0721,-1.0721,-1.0721,-1.0721,-1.0721,-1.0721,-1.0721,-1.0721,-1.0721,-1.0721,-1.0721,-1.0721,-1.0721,-1.0721,-1.0721,-1.0721,-1.0721,-1.0721,-1.0721,-1.0721,-1.0721,-1.0731,-1.0734,-1.0724,-1.0721,-1.0721,-1.0734,-1.0761,-1.0755,-1.0721,-1.0724,-1.0724,-1.0721,-1.0721,-1.0721,-1.0721,-1.0721,-1.0721,-1.0721,-1.0721,-1.0721,-1.0721,-1.0721,-1.0721,-1.0721,-1.0721,-1.0721,-1.0721,-1.0721,-1.0721,-1.0721,-1.0721,-1.0721,-1.0721,-1.0721,-1.0721,-1.0721,-1.0721,-1.0721,-1.0721,-1.0721,-1.0721,-1.0721,-1.0721,-1.0721,-1.0721,-1.0721,-1.0721,-1.0721,-1.0721,-1.0721,-1.0721,-1.0721,-1.0721,-0.8937,-0.8937,-0.8937,-0.8937,-0.8937,-0.8937,-0.9018,-0.9181,-0.9542,-0.9734,-0.9734,-0.9791,-0.9819,-0.9819,-0.9819,-0.9819,-0.9819,-0.9819,-0.9819,-0.9819,-0.9819,-0.9819,-0.9819,-0.9819,-0.9819,-0.9819,-0.9819,-0.9819,-0.9819,-0.9819,-1.0074,-1.0412,-1.05,-1.0538,-1.066,-1.0714,-1.0721,-1.0721,-1.0721,-1.0721,-1.0721,-1.0721,-1.0721,-1.0721,-1.0721,-1.0721,-1.0721,-1.0721,-1.0721,-1.0721,-1.0721,-1.0721,-1.0721,-1.0721,-1.0721,-1.0721,-1.0721,-1.0721,-1.0721,-1.0721,-1.0721,-1.0721,-1.0761,-1.0795,-1.0816,-1.087,-1.0752,-1.0756,-1.0725,-1.0867,-1.0863,-1.0856,-1.085,-1.085,-1.0816,-1.0822,-1.0785,-1.0789,-1.0727,-1.0724,-1.0721,-1.0721,-1.0721,-1.0721,-1.0721,-1.0721,-1.0721,-1.0721,-1.0721,-1.0721,-1.0721,-1.0721,-1.0721,-1.0721,-1.0721,-1.0721,-1.0721,-1.0721,-1.0721,-1.0721,-1.0721,-1.0721,-1.0721,-1.0721,-1.0721,-1.0721,-1.0721,-1.0721,-1.0721,-1.0721,-1.0721,-1.0721,-1.0721,-1.0721,-1.0721,-0.8937,-0.8937,-0.8937,-0.8937,-0.8937,-0.8937,-0.9022,-0.9161,-0.932,-0.9593,-0.9744,-0.9771,-0.9819,-0.9819,-0.9819,-0.9819,-0.9819,-0.9819,-0.9819,-0.9819,-0.9819,-0.9819,-0.9819,-0.9819,-0.9819,-0.9819,-0.9819,-0.9819,-0.9822,-0.9741,-1.0143,-1.0475,-1.0524,-1.0544,-1.0643,-1.0704,-1.0711,-1.0721,-1.0721,-1.0721,-1.0721,-1.0721,-1.0721,-1.0721,-1.0721,-1.0721,-1.0721,-1.0721,-1.0721,-1.0721,-1.0721,-1.0721,-1.0721,-1.0721,-1.0721,-1.0721,-1.0721,-1.0721,-1.0721,-1.0721,-1.0751,-1.0778,-1.0887,-1.0931,-1.0958,-1.1006,-1.1046,-1.0926,-1.0923,-1.1097,-1.1121,-1.1107,-1.1097,-1.1056,-1.0999,-1.0962,-1.0907,-1.085,-1.0765,-1.0734,-1.0724,-1.0721,-1.0721,-1.0721,-1.0721,-1.0721,-1.0721,-1.0721,-1.0721,-1.0721,-1.0721,-1.0721,-1.0721,-1.0721,-1.0721,-1.0721,-1.0721,-1.0721,-1.0721,-1.0721,-1.0721,-1.0721,-1.0721,-1.0721,-1.0721,-1.0721,-1.0721,-1.0721,-1.0721,-1.0721,-1.0721,-1.0721,-1.0721,-1.0721,-1.0721,-0.8937,-0.8937,-0.8937,-0.8937,-0.8937,-0.8937,-0.9022,-0.9164,-0.9079,-0.9345,-0.9744,-0.9761,-0.9808,-0.9819,-0.9819,-0.9819,-0.9819,-0.9819,-0.9819,-0.9819,-0.9819,-0.9819,-0.9819,-0.9819,-0.9819,-0.9819,-0.9819,-0.9822,-0.9846,-0.9774,-0.9848,-0.9999,-1.0361,-1.0493,-1.0582,-1.0663,-1.07,-1.0721,-1.0721,-1.0721,-1.0721,-1.0721,-1.0721,-1.0721,-1.0721,-1.0721,-1.0721,-1.0721,-1.0721,-1.0721,-1.0721,-1.0721,-1.0721,-1.0721,-1.0721,-1.0721,-1.0721,-1.0721,-1.0721,-1.0721,-1.0758,-1.0867,-1.1006,-1.1009,-1.1029,-1.1094,-1.1185,-1.1219,-1.1226,-1.1243,-1.1389,-1.1386,-1.1243,-1.1212,-1.1151,-1.109,-1.1026,-1.0928,-1.0836,-1.0731,-1.0721,-1.0721,-1.0721,-1.0721,-1.0721,-1.0721,-1.0721,-1.0721,-1.0721,-1.0721,-1.0721,-1.0721,-1.0721,-1.0721,-1.0721,-1.0721,-1.0721,-1.0721,-1.0721,-1.0721,-1.0721,-1.0721,-1.0721,-1.0721,-1.0721,-1.0721,-1.0721,-1.0721,-1.0721,-1.0721,-1.0721,-1.0721,-1.0721,-1.0721,-1.0721,-0.8886,-0.8933,-0.8937,-0.8937,-0.8937,-0.8937,-0.8994,-0.9089,-0.8987,-0.9255,-0.9652,-0.9792,-0.9768,-0.9819,-0.9819,-0.9819,-0.9819,-0.9819,-0.9819,-0.9819,-0.9819,-0.9819,-0.9819,-0.9819,-0.9819,-0.9819,-0.9819,-0.9822,-0.9846,-0.9774,-0.9841,-0.9824,-1.0179,-1.0419,-1.0521,-1.0636,-1.0711,-1.0721,-1.0721,-1.0721,-1.0721,-1.0721,-1.0721,-1.0721,-1.0721,-1.0721,-1.0721,-1.0721,-1.0721,-1.0721,-1.0721,-1.0721,-1.0721,-1.0721,-1.0721,-1.0721,-1.0721,-1.0721,-1.0721,-1.0721,-1.0809,-1.0934,-1.108,-1.1141,-1.1212,-1.1294,-1.1348,-1.1382,-1.1369,-1.1358,-1.1495,-1.1492,-1.1352,-1.1352,-1.1284,-1.1219,-1.1121,-1.1016,-1.089,-1.0758,-1.0721,-1.0721,-1.0721,-1.0721,-1.0721,-1.0721,-1.0721,-1.0721,-1.0721,-1.0721,-1.0721,-1.0721,-1.0721,-1.0721,-1.0721,-1.0721,-1.0721,-1.0721,-1.0721,-1.0721,-1.0721,-1.0721,-1.0721,-1.0721,-1.0721,-1.0721,-1.0721,-1.0721,-1.0721,-1.0721,-1.0721,-1.0721,-1.0721,-1.0721,-1.0721,-0.8907,-0.8916,-0.893,-0.8937,-0.8937,-0.8937,-0.8944,-0.895,-0.8967,-0.9111,-0.9398,-0.9669,-0.9823,-0.9802,-0.9819,-0.9819,-0.9819,-0.9819,-0.9819,-0.9819,-0.9819,-0.9819,-0.9819,-0.9819,-0.9819,-0.9819,-0.9819,-0.9819,-0.9819,-0.9852,-0.9798,-0.9787,-1.0086,-1.0344,-1.0449,-1.0633,-1.0714,-1.0721,-1.0721,-1.0721,-1.0721,-1.0721,-1.0721,-1.0721,-1.0721,-1.0721,-1.0721,-1.0721,-1.0721,-1.0721,-1.0721,-1.0721,-1.0721,-1.0721,-1.0721,-1.0721,-1.0721,-1.0721,-1.0721,-1.0721,-1.0809,-1.0934,-1.108,-1.1206,-1.1307,-1.1436,-1.1494,-1.1511,-1.1494,-1.1494,-1.1494,-1.1494,-1.1494,-1.148,-1.144,-1.1362,-1.1267,-1.1104,-1.089,-1.0775,-1.0721,-1.0721,-1.0721,-1.0721,-1.0721,-1.0721,-1.0721,-1.0721,-1.0721,-1.0721,-1.0721,-1.0721,-1.0721,-1.0721,-1.0721,-1.0721,-1.0721,-1.0721,-1.0721,-1.0721,-1.0721,-1.0721,-1.0721,-1.0721,-1.0721,-1.0721,-1.0721,-1.0721,-1.0721,-1.0721,-1.0721,-1.0721,-1.0721,-1.0721,-1.0721,-0.8841,-0.8774,-0.8893,-0.8937,-0.8937,-0.8937,-0.8937,-0.894,-0.8856,-0.8907,-0.9136,-0.9537,-0.9806,-0.9791,-0.9815,-0.9819,-0.9819,-0.9819,-0.9819,-0.9819,-0.9819,-0.9819,-0.9819,-0.9819,-0.9819,-0.9819,-0.9819,-0.9819,-0.9819,-0.9825,-0.9839,-0.9787,-1.011,-1.0293,-1.0365,-1.0568,-1.0694,-1.0714,-1.0721,-1.0721,-1.0721,-1.0721,-1.0721,-1.0721,-1.0721,-1.0721,-1.0721,-1.0721,-1.0721,-1.0721,-1.0721,-1.0721,-1.0721,-1.0721,-1.0721,-1.0721,-1.0721,-1.0721,-1.0721,-1.0731,-1.0802,-1.0931,-1.108,-1.1226,-1.1372,-1.1531,-1.1613,-1.1613,-1.1616,-1.1616,-1.1616,-1.1616,-1.1616,-1.1596,-1.1579,-1.1491,-1.1402,-1.1162,-1.0907,-1.0812,-1.0744,-1.0721,-1.0721,-1.0721,-1.0721,-1.0721,-1.0721,-1.0721,-1.0721,-1.0721,-1.0721,-1.0721,-1.0721,-1.0721,-1.0721,-1.0721,-1.0721,-1.0721,-1.0721,-1.0721,-1.0721,-1.0721,-1.0721,-1.0721,-1.0721,-1.0721,-1.0721,-1.0721,-1.0721,-1.0721,-1.0721,-1.0721,-1.0721,-1.0721,-1.0721,-0.8541,-0.8726,-0.8876,-0.8937,-0.8937,-0.8937,-0.8937,-0.8937,-0.8937,-0.895,-0.9043,-0.9442,-0.9832,-0.9737,-0.9788,-0.9819,-0.9819,-0.9819,-0.9819,-0.9819,-0.9819,-0.9819,-0.9819,-0.9819,-0.9819,-0.9819,-0.9819,-0.9819,-0.9819,-0.9822,-0.9832,-0.9863,-1.007,-1.0219,-1.029,-1.0504,-1.066,-1.0714,-1.0714,-1.0721,-1.0721,-1.0721,-1.0721,-1.0721,-1.0721,-1.0721,-1.0721,-1.0721,-1.0721,-1.0721,-1.0721,-1.0721,-1.0721,-1.0721,-1.0721,-1.0721,-1.0721,-1.0721,-1.0721,-1.0738,-1.0789,-1.0924,-1.1002,-1.1124,-1.1492,-1.1636,-1.1558,-1.1569,-1.1609,-1.1616,-1.1616,-1.1616,-1.1616,-1.1606,-1.1586,-1.1535,-1.1402,-1.1212,-1.1016,-1.0887,-1.0806,-1.0721,-1.0721,-1.0721,-1.0721,-1.0721,-1.0721,-1.0721,-1.0721,-1.0721,-1.0721,-1.0721,-1.0721,-1.0721,-1.0721,-1.0721,-1.0721,-1.0721,-1.0721,-1.0721,-1.0721,-1.0721,-1.0721,-1.0721,-1.0721,-1.0721,-1.0721,-1.0721,-1.0721,-1.0721,-1.0721,-1.0721,-1.0721,-1.0721,-1.0721,-0.8335,-0.8723,-0.8876,-0.8937,-0.8937,-0.8937,-0.8937,-0.8937,-0.894,-0.889,-0.8901,-0.9404,-0.9683,-0.9853,-0.9754,-0.9795,-0.9819,-0.9819,-0.9819,-0.9819,-0.9819,-0.9819,-0.9819,-0.9819,-0.9819,-0.9819,-0.9819,-0.9819,-0.9819,-0.9819,-0.9829,-0.9856,-0.9968,-1.0114,-1.0256,-1.0415,-1.0558,-1.0646,-1.0683,-1.0714,-1.0721,-1.0721,-1.0721,-1.0721,-1.0721,-1.0721,-1.0721,-1.0721,-1.0721,-1.0721,-1.0721,-1.0721,-1.0721,-1.0721,-1.0721,-1.0721,-1.0721,-1.0721,-1.0721,-1.0721,-1.0795,-1.088,-1.0921,-1.1053,-1.1416,-1.1523,-1.1443,-1.1525,-1.1565,-1.1613,-1.1613,-1.1616,-1.1616,-1.1616,-1.1596,-1.1562,-1.1409,-1.1253,-1.1101,-1.0955,-1.0843,-1.0741,-1.0721,-1.0721,-1.0721,-1.0721,-1.0721,-1.0721,-1.0721,-1.0721,-1.0721,-1.0721,-1.0721,-1.0721,-1.0721,-1.0721,-1.0721,-1.0721,-1.0721,-1.0721,-1.0721,-1.0721,-1.0721,-1.0721,-1.0721,-1.0721,-1.0721,-1.0721,-1.0721,-1.0721,-1.0721,-1.0721,-1.0721,-1.0721,-1.0721,-0.8357,-0.8834,-0.8876,-0.8937,-0.8937,-0.8937,-0.8937,-0.8937,-0.8937,-0.8957,-0.8907,-0.903,-0.9337,-0.9737,-0.9758,-0.9819,-0.9819,-0.9819,-0.9819,-0.9819,-0.9819,-0.9819,-0.9819,-0.9819,-0.9819,-0.9819,-0.9819,-0.9819,-0.9819,-0.9819,-0.9822,-0.9832,-0.9964,-1.007,-1.0124,-1.0304,-1.05,-1.0713,-1.0673,-1.0721,-1.0721,-1.0721,-1.0721,-1.0721,-1.0721,-1.0721,-1.0721,-1.0721,-1.0721,-1.0721,-1.0721,-1.0721,-1.0721,-1.0721,-1.0721,-1.0721,-1.0721,-1.0721,-1.0721,-1.0721,-1.0785,-1.0789,-1.0843,-1.0941,-1.1104,-1.1179,-1.1274,-1.1416,-1.148,-1.1579,-1.1599,-1.1613,-1.1616,-1.1616,-1.1606,-1.1538,-1.143,-1.1267,-1.1111,-1.0965,-1.0833,-1.0761,-1.0721,-1.0721,-1.0721,-1.0721,-1.0721,-1.0721,-1.0721,-1.0721,-1.0721,-1.0721,-1.0721,-1.0721,-1.0721,-1.0721,-1.0721,-1.0721,-1.0721,-1.0721,-1.0721,-1.0721,-1.0721,-1.0721,-1.0721,-1.0721,-1.0721,-1.0721,-1.0721,-1.0721,-1.0721,-1.0721,-1.0721,-1.0721,-1.0721]},{"header":{"parameterUnit":"m.s-1","parameterCategory":1,"la1":31.0,"la2":29.5877,"lo1":-88.7671,"lo2":-86.6584,"dy":0.0162,"dx":0.0185,"nx":115,"ny":88,"refTime":"2025-11-05T12:00:00:Z","depth":0,"parameterNumber":3,"parameterNumberName":"V-component_of_WINDS"},"data":[0.0,0.0,0.0,0.0,0.0,0.0,0.0,0.0,0.0,0.0,0.0,0.0,0.0,0.0,0.0,0.0,0.0,0.0,0.0,0.0,0.0,0.0,0.0,0.0,0.0,0.0,0.0,0.0,0.0,0.0,0.0,0.0,0.0,0.0,0.0,0.0,0.0,0.0,0.0,0.0,0.0,0.0,0.0,0.0,0.0,0.0,0.0,0.0,0.0,0.0,0.0,0.0,0.0,0.0,0.0,0.0,0.0,0.0,0.0,0.0,0.0,0.0,0.0,0.0,0.0,0.0,0.0,0.0,0.0,0.0,0.0,0.0,0.0,0.0,0.0,0.0,0.0,0.0,0.0,0.0,0.0,0.0,0.0,0.0,0.0,0.0,0.0,0.0,0.0,0.0,0.0,0.0,0.0,0.0,0.0,0.0,0.0,0.0,0.0,0.0,0.0,0.0,0.0,0.0,0.0,0.0,0.0,0.0,0.0,0.0,0.0,0.0,0.0,0.0,0.0,0.0,0.0,0.0,0.0,0.0,0.0,0.0,0.0,0.0,0.0,0.0,0.0,0.0,0.0,0.0,0.0,0.0,0.0,0.0,0.0,0.0,0.0,0.0,0.0,0.0,0.0,0.0,0.0,0.0,0.0,0.0,0.0,0.0,0.0,0.0,0.0,0.0,0.0,0.0,0.0,0.0,0.0,0.0,0.0,0.0,0.0,0.0,0.0,0.0,0.0,0.0,0.0,0.0,0.0,0.0,0.0,0.0,0.0,0.0,0.0,0.0,0.0,0.0,0.0,0.0,0.0,0.0,0.0,0.0,0.0,0.0,0.0,0.0,0.0,0.0,0.0,0.0,0.0,0.0,0.0,0.0,0.0,0.0,0.0,0.0,0.0,0.0,0.0,0.0,0.0,0.0,0.0,0.0,0.0,0.0,0.0,0.0,0.0,0.0,0.0,0.0,0.0,0.0,0.0,0.0,0.0,0.0,0.0,0.0,0.0,0.0,0.0,0.0,0.0,0.0,0.0,0.0,0.0,0.0,0.0,0.0,0.0,0.0,0.0,0.0,0.0,0.0,0.0,0.0,0.0,0.0,0.0,0.0,0.0,0.0,0.0,0.0,0.0,0.0,0.0,0.0,0.0,0.0,0.0,0.0,0.0,0.0,0.0,0.0,0.0,0.0,0.0,0.0,0.0,0.0,0.0,0.0,0.0,0.0,0.0,0.0,0.0,0.0,0.0,0.0,0.0,0.0,0.0,0.0,0.0,0.0,0.0,0.0,0.0,0.0,0.0,0.0,0.0,0.0,0.0,0.0,0.0,0.0,0.0,0.0,0.0,0.0,0.0,0.0,0.0,0.0,0.0,0.0,0.0,0.0,0.0,0.0,0.0,0.0,0.0,0.0,0.0,0.0,0.0,0.0,0.0,0.0,0.0,0.0,0.0,0.0,0.0,0.0,0.0,0.0,0.0,0.0,0.0,0.0,0.0,0.0,0.0,0.0,0.0,0.0,0.0,0.0,0.0,0.0,0.0,0.0,0.0,0.0,0.0,0.0,0.0,0.0,0.0,0.0,0.0,0.0,0.0,0.0,0.0,0.0,0.0,0.0,0.0,0.0,0.0,0.0,0.0,0.0,0.0,0.0,0.0,0.0,0.0,0.0,0.0,0.0,0.0,0.0,0.0,0.0,0.0,0.0,0.0,0.0,0.0,0.0,0.0,0.0,0.0,0.0,0.0,0.0,0.0,0.0,0.0,0.0,0.0,0.0,0.0,0.0,0.0,0.0,0.0,0.0,0.0,0.0,0.0,0.0,0.0,0.0,0.0,0.0,0.0,0.0,0.0,0.0,0.0,0.0,0.0,0.0,0.0,0.0,0.0,0.0,0.0,0.0,0.0,0.0,0.0,0.0,0.0,0.0,0.0,0.0,0.0,0.0,0.0,0.0,0.0,0.0,0.0,0.0,0.0,0.0,0.0,0.0,0.0,0.0,0.0,0.0,0.0,0.0,0.0,0.0,0.0,0.0,0.0,0.0,0.0,0.0,0.0,0.0,0.0,0.0,0.0,0.0,0.0,0.0,0.0,0.0,0.0,0.0,0.0,0.0,0.0,0.0,0.0,0.0,0.0,0.0,0.0,0.0,0.0,0.0,0.0,0.0,0.0,0.0,0.0,0.0,0.0,0.0,0.0,0.0,0.0,0.0,0.0,0.0,0.0,0.0,0.0,0.0,0.0,0.0,0.0,0.0,0.0,0.0,0.0,0.0,0.0,0.0,0.0,0.0,0.0,0.0,0.0,0.0,0.0,0.0,0.0,0.0,0.0,0.0,0.0,0.0,0.0,0.0,0.0,0.0,0.0,0.0,0.0,0.0,0.0,0.0,0.0,0.0,0.0,0.0,0.0,0.0,0.0,0.0,0.0,0.0,0.0,0.0,0.0,0.0,0.0,0.0,0.0,0.0,0.0,0.0,0.0,0.0,0.0,0.0,0.0,0.0,0.0,0.0,0.0,0.0,0.0,0.0,0.0,0.0,0.0,0.0,0.0,0.0,0.0,0.0,0.0,0.0,0.0,0.0,0.0,0.0,0.0,0.0,0.0,0.0,0.0,0.0,0.0,0.0,0.0,0.0,0.0,0.0,0.0,0.0,0.0,0.0,0.0,0.0,0.0,0.0,0.0,0.0,0.0,0.0,0.0,0.0,0.0,0.0,0.0,0.0,0.0,0.0,0.0,0.0,0.0,0.0,0.0,0.0,0.0,0.0,0.0,0.0,0.0,0.0,0.0,0.0,0.0,0.0,0.0,0.0,0.0,0.0,0.0,0.0,0.0,0.0,0.0,0.0,0.0,0.0,0.0,0.0,0.0,0.0,0.0,0.0,0.0,0.0,0.0,0.0,0.0,0.0,0.0,0.0,0.0,0.0,0.0,0.0,0.0,0.0,0.0,0.0,0.0,0.0,0.0,0.0,0.0,0.0,0.0,0.0,0.0,0.0,0.0,0.0,0.0,0.0,0.0,0.0,0.0,0.0,0.0,0.0,0.0,0.0,0.0,0.0,0.0,0.0,0.0,0.0,0.0,0.0,0.0,0.0,0.0,0.0,0.0,0.0,0.0,0.0,0.0,0.0,0.0,0.0,0.0,0.0,0.0,0.0,0.0,0.0,0.0,0.0,0.0,0.0,0.0,0.0,0.0,0.0,0.0,0.0,0.0,0.0,0.0,0.0,0.0,0.0,0.0,0.0,0.0,0.0,0.0,0.0,0.0,0.0,0.0,0.0,0.0,0.0,0.0,0.0,0.0,0.0,0.0,0.0,0.0,0.0,0.0,0.0,0.0,0.0,0.0,0.0,0.0,0.0,0.0,0.0,0.0,0.0,0.0,0.0,0.0,0.0,0.0,0.0,0.0,0.0,0.0,0.0,0.0,0.0,0.0,0.0,0.0,0.0,0.0,0.0,0.0,0.0,0.0,0.0,0.0,0.0,0.0,0.0,0.0,0.0,0.0,0.0,0.0,0.0,0.0,0.0,0.0,0.0,0.0,0.0,0.0,0.0,0.0,0.0,0.0,0.0,0.0,0.0,0.0,0.0,0.0,0.0,0.0,0.0,0.0,0.0,0.0,0.0,0.0,0.0,0.0,0.0,0.0,0.0,0.0,0.0,0.0,0.0,0.0,0.0,0.0,0.0,0.0,0.0,0.0,0.0,0.0,0.0,0.0,0.0,0.0,0.0,0.0,0.0,0.0,0.0,0.0,0.0,0.0,0.0,0.0,0.0,0.0,0.0,0.0,0.0,0.0,0.0,0.0,0.0,0.0,0.0,0.0,0.0,0.0,0.0,0.0,0.0,0.0,0.0,0.0,0.0,0.0,0.0,0.0,0.0,0.0,0.0,0.0,0.0,0.0,0.0,0.0,0.0,0.0,0.0,0.0,0.0,0.0,0.0,0.0,0.0,0.0,0.0,0.0,0.0,0.0,0.0,0.0,0.0,0.0,0.0,0.0,0.0,0.0,0.0,0.0,0.0,0.0,0.0,0.0,0.0,0.0,0.0,0.0,0.0,0.0,0.0,0.0,0.0,0.0,0.0,0.0,0.0,0.0,0.0,0.0,0.0,0.0,0.0,0.0,0.0,0.0,0.0,0.0,0.0,0.0,0.0,0.0,0.0,0.0,0.0,0.0,0.0,0.0,0.0,0.0,0.0,0.0,0.0,0.0,0.0,0.0,0.0,0.0,0.0,0.0,0.0,0.0,0.0,0.0,0.0,0.0,0.0,-2.1482,0.0,0.0,0.0,-2.0292,0.0,0.0,0.0,0.0,0.0,0.0,0.0,0.0,0.0,0.0,0.0,0.0,0.0,0.0,0.0,0.0,0.0,0.0,0.0,0.0,0.0,0.0,0.0,0.0,0.0,0.0,0.0,0.0,0.0,0.0,0.0,0.0,0.0,0.0,0.0,0.0,0.0,0.0,0.0,0.0,0.0,0.0,0.0,0.0,0.0,0.0,0.0,0.0,0.0,0.0,0.0,0.0,0.0,0.0,0.0,0.0,0.0,0.0,0.0,0.0,0.0,0.0,0.0,0.0,0.0,0.0,0.0,0.0,0.0,0.0,0.0,0.0,0.0,0.0,0.0,0.0,0.0,0.0,0.0,0.0,0.0,0.0,0.0,0.0,0.0,0.0,0.0,0.0,0.0,0.0,0.0,0.0,0.0,0.0,0.0,0.0,0.0,0.0,0.0,0.0,0.0,0.0,0.0,0.0,0.0,0.0,0.0,0.0,0.0,0.0,-2.0847,-2.0828,-2.0485,-2.0292,-2.0292,0.0,0.0,0.0,0.0,0.0,0.0,0.0,0.0,0.0,0.0,0.0,0.0,0.0,0.0,0.0,0.0,0.0,0.0,0.0,0.0,0.0,0.0,0.0,0.0,0.0,0.0,0.0,0.0,0.0,0.0,0.0,0.0,0.0,0.0,0.0,0.0,0.0,0.0,0.0,0.0,0.0,0.0,0.0,0.0,0.0,0.0,0.0,0.0,0.0,0.0,0.0,0.0,0.0,0.0,0.0,0.0,0.0,0.0,0.0,0.0,0.0,0.0,0.0,0.0,0.0,0.0,0.0,0.0,0.0,0.0,0.0,0.0,0.0,0.0,0.0,0.0,0.0,0.0,0.0,0.0,0.0,0.0,0.0,0.0,0.0,0.0,0.0,0.0,0.0,0.0,0.0,0.0,0.0,0.0,0.0,0.0,0.0,0.0,0.0,0.0,0.0,0.0,0.0,0.0,0.0,0.0,0.0,0.0,0.0,0.0,0.0,0.0,-2.0856,-2.0866,-2.0881,0.0,0.0,0.0,0.0,0.0,0.0,0.0,0.0,0.0,0.0,0.0,0.0,0.0,0.0,0.0,0.0,0.0,0.0,0.0,0.0,0.0,0.0,0.0,0.0,0.0,0.0,0.0,0.0,0.0,0.0,0.0,0.0,0.0,0.0,0.0,0.0,0.0,0.0,0.0,0.0,0.0,0.0,0.0,0.0,0.0,0.0,0.0,0.0,0.0,0.0,0.0,0.0,0.0,0.0,0.0,0.0,0.0,0.0,0.0,0.0,0.0,0.0,0.0,0.0,0.0,0.0,0.0,0.0,0.0,0.0,0.0,0.0,0.0,0.0,0.0,0.0,0.0,0.0,0.0,0.0,0.0,0.0,0.0,0.0,0.0,0.0,0.0,0.0,0.0,0.0,0.0,0.0,0.0,0.0,0.0,0.0,0.0,0.0,0.0,0.0,0.0,0.0,0.0,0.0,0.0,0.0,0.0,0.0,0.0,0.0,-2.102,-2.2524,-2.2555,0.0,-2.2565,0.0,0.0,0.0,0.0,0.0,0.0,0.0,0.0,0.0,0.0,0.0,0.0,0.0,0.0,0.0,0.0,0.0,0.0,0.0,0.0,0.0,0.0,0.0,0.0,0.0,0.0,0.0,0.0,0.0,0.0,0.0,0.0,0.0,0.0,0.0,0.0,0.0,0.0,0.0,0.0,0.0,0.0,0.0,0.0,0.0,0.0,0.0,0.0,0.0,0.0,0.0,0.0,0.0,0.0,0.0,0.0,0.0,0.0,0.0,0.0,0.0,0.0,0.0,0.0,0.0,0.0,0.0,0.0,0.0,0.0,0.0,0.0,0.0,0.0,0.0,0.0,0.0,0.0,0.0,0.0,0.0,0.0,0.0,0.0,0.0,0.0,0.0,0.0,0.0,0.0,0.0,0.0,0.0,0.0,0.0,0.0,0.0,0.0,0.0,0.0,0.0,0.0,0.0,0.0,0.0,0.0,0.0,0.0,0.0,0.0,-2.2106,-2.2782,-2.2297,-2.2029,0.0,0.0,0.0,0.0,0.0,0.0,0.0,0.0,0.0,0.0,0.0,0.0,0.0,0.0,0.0,0.0,0.0,0.0,0.0,0.0,0.0,0.0,0.0,0.0,0.0,0.0,0.0,0.0,0.0,0.0,0.0,0.0,0.0,0.0,0.0,0.0,0.0,0.0,0.0,0.0,0.0,0.0,0.0,0.0,0.0,0.0,0.0,0.0,0.0,0.0,0.0,0.0,0.0,0.0,0.0,0.0,0.0,0.0,0.0,0.0,0.0,0.0,0.0,0.0,0.0,0.0,0.0,0.0,0.0,0.0,0.0,0.0,0.0,0.0,0.0,0.0,0.0,0.0,0.0,0.0,0.0,0.0,0.0,0.0,0.0,0.0,0.0,0.0,0.0,0.0,0.0,0.0,0.0,0.0,0.0,0.0,0.0,0.0,0.0,0.0,0.0,0.0,0.0,0.0,0.0,0.0,0.0,0.0,0.0,0.0,-2.2412,-2.2901,-2.3094,-2.2314,-2.1645,-2.118,0.0,0.0,0.0,0.0,0.0,0.0,0.0,0.0,0.0,0.0,0.0,0.0,0.0,0.0,0.0,0.0,0.0,0.0,0.0,0.0,0.0,0.0,0.0,0.0,0.0,0.0,0.0,0.0,0.0,0.0,0.0,0.0,0.0,0.0,0.0,0.0,0.0,0.0,0.0,0.0,0.0,0.0,0.0,0.0,0.0,0.0,0.0,0.0,0.0,0.0,0.0,0.0,0.0,0.0,0.0,0.0,0.0,0.0,0.0,0.0,0.0,0.0,0.0,0.0,0.0,0.0,0.0,0.0,0.0,0.0,0.0,0.0,0.0,0.0,0.0,0.0,0.0,0.0,0.0,0.0,0.0,0.0,0.0,0.0,0.0,0.0,0.0,0.0,0.0,0.0,0.0,0.0,0.0,0.0,0.0,0.0,0.0,0.0,0.0,0.0,0.0,0.0,0.0,0.0,0.0,0.0,0.0,0.0,-2.4761,-2.3504,-2.321,-2.3992,-2.3169,-2.1991,0.0,0.0,0.0,0.0,0.0,0.0,0.0,0.0,0.0,0.0,0.0,0.0,0.0,0.0,0.0,0.0,0.0,0.0,0.0,0.0,0.0,0.0,0.0,0.0,0.0,0.0,0.0,0.0,0.0,0.0,0.0,0.0,0.0,0.0,0.0,0.0,0.0,0.0,0.0,0.0,0.0,0.0,0.0,0.0,0.0,0.0,0.0,0.0,0.0,0.0,0.0,0.0,0.0,0.0,0.0,0.0,0.0,0.0,0.0,0.0,0.0,0.0,0.0,0.0,0.0,0.0,0.0,0.0,0.0,0.0,0.0,0.0,0.0,0.0,0.0,0.0,0.0,0.0,0.0,0.0,0.0,0.0,0.0,0.0,0.0,0.0,0.0,0.0,0.0,0.0,0.0,0.0,0.0,0.0,0.0,0.0,0.0,0.0,0.0,0.0,0.0,0.0,0.0,0.0,0.0,0.0,0.0,0.0,0.0,-2.04,-2.0919,-2.2384,-2.4632,-2.1957,-2.0589,0.0,0.0,0.0,0.0,0.0,0.0,0.0,0.0,0.0,0.0,0.0,0.0,0.0,0.0,0.0,0.0,0.0,0.0,0.0,0.0,0.0,0.0,0.0,0.0,0.0,0.0,0.0,0.0,0.0,0.0,0.0,0.0,0.0,0.0,0.0,0.0,0.0,0.0,0.0,0.0,0.0,0.0,0.0,0.0,0.0,0.0,0.0,0.0,0.0,0.0,0.0,0.0,0.0,0.0,0.0,0.0,0.0,0.0,0.0,0.0,0.0,0.0,0.0,0.0,0.0,0.0,0.0,0.0,0.0,0.0,0.0,0.0,0.0,0.0,0.0,0.0,0.0,0.0,0.0,0.0,0.0,0.0,0.0,0.0,0.0,0.0,0.0,0.0,0.0,0.0,0.0,0.0,0.0,0.0,0.0,0.0,0.0,0.0,0.0,0.0,0.0,0.0,0.0,0.0,0.0,0.0,0.0,0.0,0.0,-1.9365,0.0,-2.2354,-2.3867,-2.1062,-1.9438,0.0,0.0,0.0,0.0,0.0,0.0,0.0,0.0,0.0,0.0,0.0,0.0,0.0,0.0,0.0,0.0,0.0,0.0,0.0,0.0,0.0,0.0,0.0,0.0,0.0,0.0,0.0,0.0,0.0,0.0,0.0,0.0,0.0,0.0,0.0,0.0,0.0,0.0,0.0,0.0,0.0,0.0,0.0,0.0,0.0,0.0,0.0,0.0,0.0,0.0,0.0,0.0,0.0,0.0,0.0,0.0,0.0,0.0,0.0,0.0,0.0,0.0,0.0,0.0,0.0,0.0,0.0,0.0,0.0,0.0,0.0,0.0,0.0,0.0,0.0,0.0,0.0,0.0,0.0,0.0,0.0,0.0,0.0,0.0,0.0,0.0,0.0,0.0,0.0,0.0,0.0,0.0,0.0,0.0,0.0,0.0,0.0,0.0,0.0,0.0,0.0,0.0,0.0,0.0,0.0,0.0,0.0,0.0,-1.94,-2.2526,-2.3469,-2.3179,-2.1623,-2.0738,-1.8734,0.0,0.0,0.0,0.0,0.0,0.0,0.0,0.0,0.0,0.0,0.0,0.0,0.0,0.0,0.0,0.0,0.0,0.0,0.0,0.0,0.0,0.0,0.0,0.0,0.0,0.0,0.0,0.0,0.0,0.0,0.0,0.0,0.0,0.0,0.0,0.0,0.0,0.0,0.0,0.0,0.0,0.0,0.0,0.0,0.0,0.0,0.0,0.0,0.0,0.0,0.0,0.0,0.0,0.0,0.0,0.0,0.0,0.0,0.0,0.0,0.0,0.0,0.0,0.0,0.0,0.0,0.0,0.0,0.0,0.0,0.0,0.0,0.0,0.0,0.0,0.0,0.0,0.0,0.0,0.0,0.0,0.0,0.0,0.0,0.0,0.0,0.0,0.0,0.0,0.0,0.0,0.0,0.0,0.0,0.0,0.0,0.0,0.0,0.0,0.0,0.0,0.0,0.0,0.0,0.0,0.0,0.0,0.0,0.0,-2.0227,-2.1575,-2.263,-2.3179,-2.0762,-1.9468,0.0,0.0,0.0,0.0,0.0,0.0,0.0,0.0,0.0,0.0,0.0,0.0,0.0,0.0,0.0,0.0,0.0,0.0,0.0,0.0,0.0,0.0,0.0,0.0,0.0,0.0,0.0,0.0,0.0,0.0,0.0,0.0,0.0,0.0,0.0,0.0,0.0,0.0,0.0,0.0,0.0,0.0,0.0,0.0,0.0,0.0,0.0,0.0,0.0,0.0,0.0,0.0,0.0,0.0,0.0,0.0,0.0,0.0,0.0,0.0,0.0,0.0,0.0,0.0,0.0,0.0,0.0,0.0,0.0,0.0,0.0,0.0,0.0,0.0,0.0,0.0,0.0,0.0,0.0,0.0,0.0,0.0,0.0,0.0,0.0,0.0,0.0,0.0,0.0,0.0,0.0,0.0,0.0,0.0,0.0,0.0,0.0,0.0,0.0,0.0,0.0,0.0,0.0,0.0,0.0,0.0,0.0,0.0,0.0,-2.1949,-2.3179,-2.3937,-2.4109,-2.1701,-2.0465,-2.0504,0.0,0.0,0.0,0.0,0.0,0.0,0.0,0.0,0.0,0.0,0.0,0.0,0.0,0.0,0.0,0.0,0.0,0.0,0.0,0.0,0.0,0.0,0.0,0.0,0.0,0.0,0.0,0.0,0.0,0.0,0.0,0.0,0.0,0.0,0.0,0.0,0.0,0.0,0.0,0.0,0.0,0.0,0.0,0.0,0.0,0.0,0.0,0.0,0.0,0.0,0.0,0.0,0.0,0.0,0.0,0.0,0.0,0.0,0.0,0.0,0.0,0.0,0.0,0.0,0.0,0.0,0.0,0.0,0.0,0.0,0.0,0.0,0.0,0.0,0.0,0.0,0.0,0.0,0.0,0.0,0.0,0.0,0.0,0.0,0.0,0.0,0.0,0.0,0.0,0.0,0.0,0.0,0.0,0.0,0.0,0.0,0.0,0.0,0.0,0.0,0.0,0.0,0.0,0.0,0.0,0.0,0.0,0.0,-2.6737,-2.7678,-2.6997,-2.4601,-2.3554,-2.1836,0.0,0.0,0.0,0.0,0.0,0.0,0.0,0.0,0.0,0.0,0.0,0.0,0.0,0.0,0.0,0.0,0.0,0.0,0.0,0.0,0.0,0.0,0.0,0.0,0.0,0.0,0.0,0.0,0.0,0.0,0.0,0.0,0.0,0.0,0.0,0.0,0.0,0.0,0.0,0.0,0.0,0.0,0.0,0.0,0.0,0.0,0.0,0.0,0.0,0.0,0.0,0.0,0.0,0.0,0.0,0.0,0.0,0.0,0.0,0.0,0.0,0.0,0.0,0.0,0.0,0.0,0.0,0.0,0.0,0.0,0.0,0.0,0.0,0.0,0.0,0.0,0.0,0.0,0.0,0.0,0.0,0.0,0.0,0.0,0.0,0.0,0.0,0.0,0.0,0.0,0.0,0.0,0.0,0.0,0.0,0.0,0.0,0.0,0.0,0.0,0.0,0.0,0.0,0.0,0.0,0.0,0.0,0.0,0.0,-2.8479,-3.0484,-3.0681,-2.8791,-2.6717,-2.4716,0.0,0.0,0.0,0.0,0.0,0.0,0.0,0.0,0.0,0.0,0.0,0.0,0.0,0.0,0.0,0.0,0.0,0.0,0.0,0.0,0.0,0.0,0.0,0.0,0.0,0.0,0.0,0.0,0.0,0.0,0.0,0.0,0.0,0.0,0.0,0.0,0.0,0.0,0.0,0.0,0.0,0.0,0.0,0.0,0.0,0.0,0.0,0.0,0.0,0.0,0.0,0.0,0.0,0.0,0.0,0.0,0.0,0.0,0.0,0.0,0.0,0.0,0.0,0.0,0.0,0.0,0.0,0.0,0.0,0.0,0.0,0.0,0.0,0.0,0.0,0.0,0.0,0.0,0.0,0.0,0.0,0.0,0.0,0.0,0.0,0.0,0.0,0.0,0.0,0.0,0.0,0.0,0.0,0.0,0.0,0.0,0.0,0.0,0.0,0.0,0.0,0.0,0.0,0.0,0.0,0.0,0.0,0.0,-2.8809,-2.9645,-3.2497,-3.3185,-3.1488,-2.9329,-2.6909,0.0,0.0,0.0,0.0,0.0,0.0,0.0,0.0,0.0,0.0,0.0,0.0,0.0,0.0,0.0,0.0,0.0,0.0,0.0,0.0,0.0,0.0,0.0,0.0,0.0,0.0,0.0,0.0,0.0,0.0,0.0,0.0,0.0,0.0,0.0,0.0,0.0,0.0,0.0,0.0,0.0,0.0,0.0,0.0,0.0,0.0,0.0,0.0,0.0,0.0,0.0,0.0,0.0,0.0,0.0,0.0,0.0,0.0,0.0,0.0,0.0,0.0,0.0,0.0,0.0,0.0,0.0,0.0,0.0,0.0,0.0,0.0,0.0,0.0,0.0,0.0,0.0,0.0,0.0,0.0,0.0,0.0,0.0,0.0,0.0,0.0,0.0,0.0,0.0,0.0,0.0,0.0,0.0,0.0,0.0,0.0,0.0,0.0,0.0,0.0,0.0,0.0,0.0,0.0,0.0,0.0,0.0,0.0,-2.9552,-3.0552,-3.3607,-3.448,-3.2947,-3.1373,-2.8653,0.0,0.0,0.0,0.0,0.0,0.0,0.0,0.0,0.0,0.0,0.0,0.0,0.0,0.0,0.0,0.0,0.0,0.0,0.0,0.0,0.0,0.0,0.0,0.0,0.0,0.0,0.0,0.0,0.0,0.0,0.0,0.0,0.0,0.0,0.0,0.0,0.0,0.0,0.0,0.0,0.0,0.0,0.0,0.0,0.0,0.0,0.0,0.0,0.0,0.0,0.0,0.0,0.0,0.0,0.0,0.0,0.0,0.0,0.0,0.0,0.0,0.0,0.0,0.0,0.0,0.0,0.0,0.0,0.0,0.0,0.0,0.0,0.0,0.0,0.0,0.0,0.0,0.0,0.0,0.0,0.0,0.0,0.0,0.0,0.0,0.0,0.0,0.0,0.0,0.0,0.0,0.0,0.0,0.0,0.0,0.0,0.0,0.0,0.0,0.0,0.0,0.0,0.0,0.0,0.0,0.0,0.0,0.0,-2.9863,-3.1397,-3.2744,-3.3269,-3.2908,-3.1943,-3.0071,0.0,0.0,0.0,0.0,0.0,0.0,0.0,0.0,0.0,0.0,0.0,0.0,0.0,0.0,0.0,0.0,0.0,0.0,0.0,0.0,0.0,0.0,0.0,0.0,0.0,0.0,0.0,0.0,0.0,0.0,0.0,0.0,0.0,0.0,0.0,0.0,0.0,0.0,0.0,0.0,0.0,0.0,0.0,0.0,0.0,0.0,0.0,0.0,-1.7037,0.0,0.0,0.0,0.0,0.0,0.0,0.0,0.0,0.0,0.0,0.0,0.0,0.0,0.0,0.0,0.0,0.0,0.0,0.0,0.0,0.0,0.0,0.0,0.0,0.0,0.0,0.0,0.0,0.0,0.0,0.0,0.0,0.0,0.0,0.0,0.0,0.0,0.0,0.0,0.0,0.0,0.0,0.0,0.0,0.0,0.0,0.0,0.0,0.0,0.0,0.0,0.0,0.0,0.0,0.0,0.0,0.0,0.0,0.0,-3.0371,-3.1668,-3.2473,-3.289,-3.2878,-3.2122,-3.0494,0.0,0.0,0.0,0.0,0.0,0.0,0.0,0.0,0.0,0.0,0.0,0.0,0.0,0.0,0.0,0.0,0.0,0.0,0.0,0.0,0.0,0.0,0.0,0.0,0.0,0.0,0.0,0.0,0.0,0.0,0.0,0.0,0.0,0.0,0.0,0.0,0.0,0.0,0.0,0.0,0.0,0.0,0.0,0.0,0.0,0.0,0.0,0.0,0.0,0.0,0.0,0.0,0.0,0.0,0.0,0.0,0.0,0.0,0.0,0.0,0.0,0.0,0.0,0.0,0.0,0.0,0.0,0.0,0.0,0.0,0.0,0.0,0.0,0.0,0.0,0.0,0.0,0.0,0.0,0.0,0.0,0.0,0.0,0.0,0.0,0.0,0.0,0.0,0.0,0.0,0.0,0.0,0.0,0.0,0.0,0.0,0.0,0.0,0.0,0.0,0.0,0.0,0.0,0.0,0.0,0.0,0.0,-2.9058,-3.0575,-3.1657,-3.2247,-3.2625,-3.2875,-3.2006,-3.0424,-2.8181,0.0,0.0,0.0,0.0,0.0,0.0,0.0,0.0,0.0,0.0,0.0,0.0,0.0,0.0,0.0,0.0,0.0,0.0,0.0,0.0,0.0,0.0,0.0,0.0,0.0,0.0,0.0,0.0,0.0,0.0,0.0,0.0,0.0,0.0,0.0,0.0,0.0,0.0,-1.7111,-2.0046,0.0,0.0,0.0,0.0,0.0,0.0,0.0,0.0,-1.9884,0.0,0.0,0.0,0.0,0.0,0.0,0.0,0.0,0.0,0.0,0.0,0.0,0.0,0.0,0.0,0.0,0.0,0.0,0.0,0.0,0.0,0.0,0.0,0.0,0.0,0.0,0.0,0.0,0.0,0.0,0.0,0.0,0.0,0.0,0.0,0.0,0.0,0.0,0.0,0.0,0.0,0.0,0.0,0.0,0.0,0.0,0.0,0.0,0.0,0.0,0.0,0.0,0.0,0.0,0.0,0.0,-2.969,-2.8876,-2.9464,-3.1638,-3.1114,-3.1472,-3.2779,-3.1405,-3.0079,-2.8849,0.0,0.0,0.0,0.0,0.0,0.0,0.0,0.0,0.0,0.0,0.0,0.0,0.0,0.0,0.0,0.0,0.0,0.0,0.0,0.0,0.0,0.0,0.0,0.0,0.0,0.0,0.0,0.0,0.0,0.0,0.0,0.0,0.0,0.0,0.0,0.0,0.0,0.0,0.0,-2.2996,-2.4428,0.0,0.0,0.0,0.0,0.0,0.0,0.0,0.0,-1.99,0.0,0.0,0.0,0.0,0.0,0.0,0.0,0.0,0.0,0.0,0.0,0.0,0.0,0.0,0.0,0.0,0.0,0.0,0.0,0.0,0.0,0.0,0.0,0.0,0.0,0.0,0.0,0.0,0.0,0.0,0.0,0.0,0.0,0.0,0.0,0.0,0.0,0.0,0.0,0.0,0.0,0.0,0.0,0.0,0.0,0.0,0.0,0.0,0.0,0.0,0.0,0.0,0.0,0.0,0.0,-2.8879,-2.9205,-3.004,-3.1619,-3.0864,-3.1191,-3.276,-3.0439,-2.9097,0.0,0.0,0.0,0.0,0.0,0.0,0.0,0.0,0.0,0.0,0.0,0.0,0.0,0.0,0.0,0.0,0.0,0.0,0.0,0.0,0.0,0.0,0.0,0.0,0.0,0.0,0.0,0.0,0.0,0.0,0.0,0.0,0.0,0.0,0.0,0.0,0.0,0.0,0.0,0.0,-2.4024,-2.5005,-2.4225,0.0,0.0,0.0,0.0,0.0,0.0,-2.1688,-2.0694,0.0,0.0,0.0,0.0,0.0,0.0,0.0,0.0,0.0,0.0,0.0,0.0,0.0,0.0,0.0,0.0,0.0,0.0,0.0,0.0,0.0,0.0,0.0,0.0,0.0,0.0,0.0,0.0,0.0,0.0,0.0,0.0,0.0,0.0,0.0,0.0,0.0,0.0,0.0,0.0,0.0,0.0,0.0,0.0,0.0,0.0,0.0,0.0,0.0,0.0,0.0,0.0,0.0,0.0,0.0,-2.7909,-2.9599,-3.0775,-3.1376,-3.0756,-3.1191,-3.2779,-2.9979,-2.8542,0.0,0.0,0.0,0.0,0.0,0.0,0.0,0.0,0.0,0.0,0.0,0.0,0.0,0.0,0.0,0.0,0.0,0.0,0.0,0.0,0.0,0.0,0.0,0.0,0.0,0.0,0.0,0.0,0.0,0.0,0.0,0.0,0.0,0.0,0.0,0.0,0.0,0.0,0.0,0.0,0.0,-2.5717,-2.4745,-2.461,0.0,0.0,0.0,0.0,-2.4743,-2.3823,0.0,0.0,0.0,0.0,0.0,0.0,0.0,0.0,0.0,0.0,0.0,0.0,0.0,0.0,0.0,0.0,0.0,0.0,0.0,0.0,0.0,0.0,0.0,0.0,0.0,0.0,0.0,0.0,0.0,0.0,0.0,0.0,0.0,0.0,0.0,0.0,0.0,0.0,0.0,0.0,0.0,0.0,0.0,0.0,0.0,0.0,0.0,0.0,0.0,0.0,0.0,0.0,0.0,0.0,0.0,0.0,-2.7913,-2.9709,-3.0583,-3.0564,-3.0448,-3.1191,-3.2817,-3.1092,-2.9459,0.0,0.0,0.0,0.0,0.0,0.0,0.0,0.0,0.0,0.0,0.0,0.0,0.0,0.0,0.0,0.0,0.0,0.0,0.0,0.0,0.0,0.0,0.0,0.0,0.0,0.0,0.0,0.0,0.0,0.0,0.0,0.0,0.0,0.0,0.0,0.0,0.0,0.0,0.0,0.0,0.0,-2.8082,-2.6524,-2.6313,-2.6255,0.0,0.0,-2.6468,-2.7335,-2.7885,0.0,0.0,0.0,0.0,0.0,0.0,0.0,0.0,0.0,0.0,0.0,0.0,0.0,0.0,0.0,0.0,0.0,0.0,0.0,0.0,0.0,0.0,0.0,0.0,0.0,0.0,0.0,0.0,0.0,0.0,0.0,0.0,0.0,0.0,0.0,0.0,0.0,0.0,0.0,0.0,0.0,0.0,0.0,0.0,0.0,0.0,0.0,0.0,0.0,0.0,0.0,0.0,0.0,0.0,0.0,-2.5165,-2.8019,-3.0163,-3.096,-3.0417,-3.0398,-3.1191,-3.2837,-2.9879,-2.8132,0.0,0.0,0.0,0.0,0.0,0.0,0.0,0.0,0.0,0.0,0.0,0.0,0.0,0.0,0.0,0.0,0.0,0.0,0.0,0.0,0.0,0.0,0.0,0.0,0.0,0.0,0.0,0.0,0.0,0.0,0.0,0.0,0.0,0.0,0.0,0.0,0.0,0.0,0.0,0.0,0.0,0.0,-2.7505,-2.814,0.0,0.0,0.0,-2.9632,-2.9993,0.0,0.0,0.0,0.0,0.0,0.0,0.0,0.0,0.0,0.0,0.0,0.0,0.0,0.0,0.0,0.0,0.0,0.0,0.0,0.0,0.0,0.0,0.0,0.0,0.0,0.0,0.0,0.0,0.0,0.0,0.0,0.0,0.0,0.0,0.0,0.0,0.0,0.0,0.0,0.0,0.0,0.0,0.0,0.0,0.0,0.0,0.0,0.0,0.0,0.0,0.0,0.0,0.0,0.0,0.0,0.0,0.0,-2.8076,-3.0703,-3.1511,-3.0448,-3.0398,-3.1191,-3.276,-2.9214,0.0,0.0,0.0,0.0,0.0,0.0,0.0,0.0,0.0,0.0,0.0,0.0,0.0,0.0,0.0,0.0,0.0,0.0,0.0,0.0,0.0,0.0,0.0,0.0,0.0,0.0,0.0,-1.1348,0.0,0.0,0.0,0.0,0.0,0.0,0.0,0.0,0.0,0.0,0.0,0.0,0.0,0.0,-2.9602,-2.9217,-3.0602,-3.1667,0.0,0.0,-3.2564,-3.2365,-3.2153,-3.0823,0.0,0.0,0.0,0.0,0.0,0.0,0.0,0.0,0.0,0.0,0.0,0.0,0.0,0.0,0.0,0.0,0.0,0.0,0.0,0.0,0.0,0.0,0.0,0.0,0.0,0.0,0.0,0.0,0.0,0.0,0.0,0.0,0.0,0.0,0.0,0.0,0.0,0.0,0.0,0.0,0.0,0.0,0.0,0.0,0.0,0.0,0.0,0.0,0.0,0.0,0.0,0.0,0.0,0.0,-2.6365,-2.8147,-3.1333,-3.2151,-3.0487,-3.0398,-3.1191,-3.2798,-3.0325,-2.8589,0.0,0.0,0.0,0.0,0.0,0.0,0.0,0.0,0.0,0.0,0.0,0.0,0.0,0.0,0.0,0.0,0.0,0.0,0.0,0.0,0.0,0.0,0.0,0.0,0.0,0.0,0.0,0.0,0.0,0.0,0.0,0.0,0.0,0.0,0.0,0.0,0.0,0.0,0.0,0.0,0.0,-3.1775,-3.2468,-3.4064,-3.5161,0.0,-3.5218,-3.4955,-3.4159,-3.5276,-3.4353,-2.8739,0.0,0.0,0.0,0.0,0.0,0.0,0.0,0.0,0.0,0.0,0.0,0.0,0.0,0.0,0.0,0.0,0.0,0.0,0.0,0.0,0.0,0.0,0.0,0.0,0.0,0.0,0.0,0.0,0.0,0.0,0.0,0.0,0.0,0.0,0.0,0.0,0.0,0.0,0.0,0.0,0.0,0.0,0.0,0.0,0.0,0.0,0.0,0.0,0.0,0.0,0.0,0.0,0.0,-2.6587,-2.8821,-3.1552,-3.2396,-3.1249,-3.0679,-3.121,-3.2856,-3.0441,-2.8951,0.0,0.0,0.0,0.0,0.0,0.0,0.0,0.0,0.0,0.0,0.0,0.0,0.0,0.0,0.0,0.0,0.0,0.0,0.0,0.0,0.0,0.0,0.0,0.0,0.0,0.0,0.0,0.0,-1.7023,-1.7664,-1.801,0.0,0.0,0.0,0.0,0.0,0.0,0.0,0.0,0.0,0.0,-3.3545,-3.4391,-3.5507,0.0,0.0,-3.7046,-3.7108,-3.7305,-3.6085,-3.4035,-3.0772,-2.8486,0.0,0.0,0.0,0.0,0.0,0.0,0.0,0.0,0.0,0.0,0.0,0.0,0.0,0.0,0.0,0.0,0.0,0.0,0.0,0.0,0.0,0.0,0.0,0.0,0.0,0.0,0.0,0.0,0.0,0.0,0.0,0.0,0.0,0.0,0.0,0.0,0.0,0.0,0.0,0.0,0.0,0.0,0.0,0.0,0.0,0.0,0.0,0.0,0.0,0.0,0.0,0.0,-2.6948,-2.9292,-3.193,-3.2872,-3.2062,-3.1241,-3.1588,-3.3157,-3.0829,-2.9493,0.0,0.0,0.0,0.0,0.0,0.0,0.0,0.0,0.0,0.0,0.0,0.0,0.0,0.0,0.0,0.0,0.0,0.0,0.0,0.0,0.0,0.0,0.0,0.0,0.0,0.0,0.0,0.0,-1.8792,-1.8799,-1.8299,0.0,0.0,0.0,0.0,0.0,0.0,0.0,0.0,0.0,0.0,-3.5372,-3.6469,-3.7334,-3.8065,-3.8661,-3.8546,-3.843,-3.8512,-3.6723,-3.4525,-3.2102,0.0,0.0,0.0,0.0,0.0,0.0,0.0,0.0,0.0,0.0,0.0,0.0,0.0,0.0,0.0,0.0,0.0,0.0,0.0,0.0,0.0,0.0,0.0,0.0,0.0,0.0,0.0,-1.7949,0.0,0.0,-1.791,0.0,0.0,0.0,0.0,0.0,0.0,0.0,0.0,0.0,0.0,0.0,0.0,0.0,0.0,0.0,0.0,0.0,0.0,0.0,0.0,0.0,0.0,-2.7537,-2.9325,-3.2511,-3.3724,-3.2894,-3.2081,-3.2459,-3.399,-3.1732,-3.0375,-3.0283,0.0,0.0,0.0,0.0,0.0,0.0,0.0,0.0,0.0,0.0,0.0,0.0,0.0,0.0,0.0,0.0,0.0,0.0,0.0,0.0,0.0,0.0,0.0,0.0,0.0,0.0,-2.0015,-1.9496,-1.8381,0.0,0.0,0.0,0.0,0.0,0.0,0.0,0.0,0.0,-3.2398,-3.5033,-3.7276,-3.895,-3.9892,-4.0354,-4.0412,-3.9777,-3.8738,-3.7142,-3.7386,-3.6522,0.0,0.0,0.0,0.0,0.0,0.0,0.0,0.0,0.0,0.0,0.0,0.0,0.0,0.0,0.0,0.0,0.0,0.0,0.0,0.0,0.0,0.0,0.0,0.0,0.0,0.0,0.0,-2.3008,-2.1445,0.0,0.0,0.0,0.0,0.0,0.0,0.0,0.0,0.0,0.0,0.0,-3.1269,-3.2148,0.0,0.0,0.0,0.0,0.0,0.0,0.0,0.0,0.0,0.0,0.0,0.0,-2.7835,-3.0169,-3.2818,-3.4063,-3.3763,-3.2929,-3.2756,-3.3292,-3.2526,-3.1028,-2.8794,0.0,0.0,0.0,0.0,0.0,0.0,0.0,0.0,0.0,0.0,0.0,0.0,0.0,0.0,0.0,0.0,0.0,0.0,0.0,0.0,0.0,0.0,0.0,0.0,0.0,-1.9113,0.0,0.0,0.0,0.0,0.0,0.0,0.0,0.0,0.0,0.0,-2.9629,-3.2923,-3.5143,-3.7621,-3.9431,-4.0027,-4.0835,-4.1162,0.0,0.0,0.0,0.0,0.0,0.0,0.0,0.0,0.0,0.0,0.0,0.0,0.0,0.0,-3.6449,-3.0237,-2.8659,-2.8202,-2.7879,0.0,0.0,0.0,0.0,0.0,0.0,0.0,0.0,0.0,0.0,0.0,0.0,0.0,0.0,-2.7285,-2.625,-2.5664,0.0,0.0,0.0,0.0,0.0,0.0,0.0,0.0,-3.2539,-3.4453,-3.5234,-3.5781,-3.5762,0.0,-3.4101,-3.1094,0.0,0.0,0.0,0.0,0.0,0.0,0.0,0.0,-2.8867,-3.141,-3.3555,-3.4653,-3.4614,-3.3799,-3.3486,-3.3775,-3.3519,-3.2052,-2.9313,-2.8181,-2.6371,0.0,0.0,0.0,0.0,0.0,0.0,0.0,0.0,0.0,0.0,0.0,0.0,0.0,0.0,0.0,0.0,0.0,0.0,0.0,0.0,0.0,0.0,0.0,-2.0278,0.0,0.0,0.0,0.0,0.0,0.0,0.0,0.0,0.0,-2.9641,-3.3068,-3.6248,-3.8207,-3.9903,-4.1046,-4.1373,0.0,0.0,0.0,0.0,0.0,0.0,0.0,-3.7214,-3.8281,-3.6919,-3.5927,-3.6687,-3.8927,-4.0335,-3.945,0.0,0.0,-3.5064,-3.3699,-3.3416,-3.3134,-3.3954,-3.4754,-3.5066,-3.6251,-3.7238,0.0,0.0,0.0,0.0,0.0,0.0,0.0,0.0,-3.0449,-3.0937,0.0,-3.0566,0.0,0.0,0.0,0.0,-2.6348,-3.1094,0.0,0.0,-3.7773,-3.9414,-3.8672,-3.8652,-3.8652,-3.8672,-3.8555,-3.7207,-3.4492,-2.8945,0.0,0.0,0.0,0.0,0.0,0.0,-3.0588,-3.2985,-3.4639,-3.5507,-3.5488,-3.4672,-3.4634,-3.5411,-3.4634,-3.3442,-3.1929,-3.1737,-2.9871,-2.587,-2.5563,0.0,0.0,0.0,0.0,0.0,0.0,0.0,0.0,0.0,0.0,0.0,0.0,0.0,0.0,0.0,0.0,0.0,0.0,0.0,0.0,-2.243,0.0,0.0,0.0,0.0,0.0,0.0,0.0,0.0,0.0,-3.4969,-3.3484,-3.6132,-3.9054,-4.1485,0.0,0.0,0.0,0.0,-4.2181,-4.2951,-4.2412,-4.1604,-4.0739,-4.1185,-4.1161,-3.9734,0.0,0.0,-3.9912,-4.1527,-4.2393,-4.0008,-4.1662,-4.3181,-4.3008,-4.0777,-3.9484,-4.0062,-3.9065,-3.8558,-3.9267,-4.0044,-4.0662,-3.6289,0.0,0.0,0.0,0.0,-3.5273,-3.6621,-3.9043,-3.8223,-3.709,-3.5801,-3.5332,0.0,0.0,0.0,0.0,0.0,0.0,-3.5918,-3.7129,-3.8398,-3.9492,-4.0449,-4.0469,-4.0469,-4.043,-3.9824,-3.8809,-3.7461,-3.5762,-3.1719,-2.5684,0.0,0.0,0.0,0.0,-3.2154,-3.3949,-3.5081,-3.5641,-3.5641,-3.5359,-3.5282,-3.5488,-3.4672,-3.4255,-3.4397,-3.3814,-3.2641,-3.0814,-2.8494,0.0,0.0,0.0,0.0,0.0,0.0,0.0,0.0,0.0,0.0,0.0,0.0,0.0,0.0,0.0,0.0,0.0,0.0,0.0,-2.2431,-2.2786,-2.3109,0.0,0.0,0.0,0.0,0.0,0.0,0.0,0.0,0.0,-3.9179,-4.0631,-4.1915,0.0,0.0,-4.3451,-4.3143,-4.3374,-4.347,-4.3162,-4.3374,0.0,-4.2489,-4.1511,-4.1316,-4.2626,-4.4003,-4.4607,-4.3912,-4.4393,-4.4643,-4.3874,-4.4374,-4.4874,-4.4778,-4.3335,-4.1966,-4.1597,-4.1947,-4.253,-4.2842,-4.3532,-4.4105,-4.1973,-3.9941,-3.8262,-3.834,-3.959,-3.9414,-4.0684,-4.2871,-4.2031,-4.1172,-4.0312,-3.9609,-3.7695,-3.4922,-3.3887,0.0,0.0,0.0,-3.8984,-4.0625,-4.0605,-4.1367,-4.2617,-4.2344,-4.2363,-4.2617,-4.1465,-4.0801,-4.0625,-3.9961,-3.6738,-3.1309,0.0,-3.2176,-3.1255,-3.3103,-3.4666,-3.589,-3.6453,-3.6554,-3.6175,-3.5757,-3.5545,-3.5488,-3.5012,-3.496,-3.5468,-3.5315,-3.4828,-3.3981,-3.1725,-2.9404,0.0,0.0,0.0,0.0,0.0,0.0,0.0,0.0,0.0,0.0,0.0,-1.9049,-1.661,0.0,0.0,0.0,-2.1695,-2.3801,-2.4839,-2.6118,0.0,0.0,0.0,0.0,0.0,0.0,0.0,-3.6776,-3.955,-4.1639,-4.2684,-4.3541,-4.4085,-4.409,-4.4203,-4.4239,-4.4105,0.0,-4.4239,-4.4124,-4.4489,-4.4643,-4.4143,-4.3222,-4.3071,-4.4564,-4.5238,-4.5566,-4.5586,-4.5586,-4.572,-4.6009,-4.6105,-4.622,-4.6528,-4.574,-4.4682,-4.358,-4.4102,-4.4778,-4.4799,-4.5259,-4.5586,-4.6504,-4.6152,-4.2266,-4.1035,-4.168,-4.2402,-4.3164,-4.3828,-4.3047,-4.3555,-4.4844,-4.332,-4.2148,-4.1269,-3.8965,0.0,-3.916,-4.0762,-4.2305,-4.3808,-4.373,-4.4121,-4.4824,-4.4062,-4.4121,-4.4844,-4.3281,-4.293,-4.3555,-4.2187,-4.0234,-3.7871,-3.7949,-3.7383,-3.6211,-3.6948,-3.7765,-3.849,-3.8449,-3.7958,-3.7011,-3.6078,-3.5603,-3.5603,-3.5589,-3.5641,-3.5724,-3.6488,-3.6579,-3.5817,-3.4955,-3.3013,-2.982,0.0,0.0,0.0,0.0,0.0,0.0,0.0,0.0,0.0,0.0,0.0,0.0,0.0,0.0,-2.3284,-2.6217,0.0,-2.8401,-3.1174,0.0,0.0,0.0,-3.4309,-3.3763,-3.7199,-3.9642,-3.9777,0.0,0.0,-4.46,-4.5295,-4.5797,-4.5797,-4.4989,-4.4701,-4.547,-4.4893,-4.4701,-4.5393,-4.5566,-4.5566,-4.5432,-4.5451,-4.5566,-4.5817,-4.5778,-4.5893,-4.5893,-4.5874,-4.6163,-4.6855,-4.7009,-4.7182,-4.7952,-4.7913,-4.7625,-4.6009,-4.5797,-4.5817,-4.5855,-4.5893,-4.5951,-4.8301,-4.8183,-4.7187,-4.6133,-4.5098,-4.5293,-4.5488,-4.5664,-4.5469,-4.5234,-4.498,-4.4551,-4.3906,-4.3105,-4.3164,-4.3281,-4.3496,-4.3906,-4.4316,-4.4648,-4.4004,-4.3808,-4.4004,-4.3789,-4.3808,-4.3965,-4.3594,-4.3496,-4.3711,-4.3984,-4.3437,-4.2305,-4.3496,-4.2031,-3.7988,-3.8782,-3.9615,-4.0339,-3.9708,-3.8864,-3.7841,-3.7011,-3.6516,-3.6419,-3.6416,-3.6743,-3.7392,-3.8219,-3.8277,-3.7464,-3.6603,-3.4911,-3.2172,-2.8302,0.0,0.0,0.0,0.0,0.0,0.0,0.0,0.0,0.0,-2.4879,-2.1084,0.0,-2.6131,0.0,-2.8599,-3.0612,-3.2577,-3.2875,0.0,0.0,-3.657,-3.7343,-4.0315,-4.1566,-4.2681,-4.3951,-4.5932,-4.72,-4.7195,-4.7372,-4.7509,-4.749,-4.622,-4.5374,-4.5547,-4.5451,-4.5355,-4.5586,-4.5643,-4.5586,-4.5699,-4.6161,-4.6777,-4.7413,-4.749,-4.749,-4.7509,-4.7509,-4.7567,-4.7778,-4.7836,-4.7913,-4.8105,-4.8105,-4.8009,-4.7586,-4.749,-4.7509,-4.7509,-4.749,-4.749,-4.8887,-4.8887,-4.8887,-4.834,-4.7461,-4.7441,-4.7461,-4.7461,-4.7461,-4.6953,-4.6133,-4.5742,-4.5312,-4.4902,-4.5371,-4.5566,-4.5586,-4.5566,-4.5566,-4.5547,-4.5078,-4.4863,-4.4863,-4.4863,-4.4863,-4.4844,-4.4473,-4.4277,-4.4277,-4.4375,-4.416,-4.3711,-4.4648,-4.3867,-4.1484,-4.1889,-4.2177,-4.2196,-4.0906,-3.9733,-3.8705,-3.7834,-3.718,-3.6727,-3.6699,-3.6757,-3.6892,-3.7353,-3.7416,-3.6978,-3.6113,-3.4845,-3.3083,-3.0107,-2.7992,0.0,0.0,0.0,0.0,0.0,0.0,0.0,0.0,0.0,0.0,0.0,-2.9621,-3.1172,-3.3146,-3.5254,-3.7433,-3.7851,-3.895,-4.1277,-4.1354,-4.22,-4.4547,-4.5105,-4.5682,-4.6605,-4.7528,-4.8086,-4.8103,-4.8105,-4.8087,-4.8087,-4.7299,-4.6721,-4.6701,-4.6721,-4.6701,-4.6721,-4.6701,-4.6719,-4.6718,-4.7103,-4.7585,-4.7991,-4.8087,-4.8087,-4.8105,-4.8105,-4.8202,-4.8586,-4.8682,-4.8817,-4.9163,-4.926,-4.926,-4.926,-4.926,-4.899,-4.826,-4.8087,-4.8105,-4.9238,-4.9219,-4.9219,-4.9219,-4.9219,-4.9219,-4.9101,-4.8887,-4.8887,-4.8476,-4.7734,-4.6973,-4.6641,-4.6641,-4.6641,-4.6621,-4.6641,-4.6641,-4.6641,-4.6621,-4.6523,-4.6465,-4.6465,-4.6348,-4.6289,-4.6269,-4.5527,-4.5176,-4.5137,-4.4414,-4.4043,-4.4023,-4.4023,-4.4414,-4.5137,-4.5172,-4.4664,-4.3652,-4.1927,-4.0639,-3.9742,-3.8923,-3.8093,-3.7266,-3.7107,-3.667,-3.5872,-3.593,-3.5979,-3.5969,-3.5331,-3.4529,-3.367,-3.2062,-3.0702,0.0,-2.8859,0.0,0.0,0.0,0.0,0.0,0.0,0.0,0.0,-3.2838,-3.3954,-3.5833,-3.8385,-4.0569,-4.2148,-4.3703,-4.4682,-4.4816,-4.6144,-4.7067,-4.7086,-4.7778,-4.8279,-4.8259,-4.8355,-4.8432,-4.849,-4.8432,-4.8452,-4.8529,-4.851,-4.8452,-4.8413,-4.8182,-4.7971,-4.8105,-4.8105,-4.7931,-4.8141,-4.8257,-4.8336,-4.8414,-4.8568,-4.8433,-4.8529,-4.8529,-4.8721,-4.9356,-4.9567,-4.9798,-5.0567,-5.0644,-5.0644,-5.0567,-5.0529,-5.0125,-4.8952,-4.8587,-4.8432,-5.0937,-5.0937,-5.0918,-5.0918,-5.0937,-5.0918,-5.0156,-4.8887,-4.8887,-4.8808,-4.8652,-4.8476,-4.8418,-4.8418,-4.8418,-4.8398,-4.8418,-4.8398,-4.8398,-4.8359,-4.7695,-4.7363,-4.7305,-4.6621,-4.6289,-4.6289,-4.6133,-4.6055,-4.6035,-4.5898,-4.5801,-4.5801,-4.5801,-4.5898,-4.6055,0.0,0.0,0.0,-4.2403,-4.1767,-4.1501,-4.1347,-4.0827,-3.9965,-3.9201,0.0,-3.7603,-3.82,-3.8277,-3.7627,-3.805,0.0,0.0,0.0,0.0,0.0,0.0,0.0,0.0,0.0,0.0,0.0,-3.7141,-3.6612,-3.6001,-3.8953,-4.0296,-3.8854,-4.1482,-4.3761,-4.4765,-4.58,-4.6682,-4.7336,-4.7682,-4.7875,-4.7913,-4.8644,-4.9144,-4.9163,-4.976,-5.0183,-5.0125,-5.0202,-5.0164,-5.0106,-5.0183,-5.0202,-5.0144,-4.9009,-4.8163,-4.8105,-4.824,-4.8394,-4.9047,-4.9143,-4.9394,-4.999,-5.0202,-5.0164,-5.0106,-5.0125,-5.0164,-5.0414,-5.0452,-5.0452,-5.0683,-5.0683,-5.0683,-5.0683,-5.0683,-5.0606,-5.0279,-5.0183,-5.0202,-5.1387,-5.1387,-5.1387,-5.1387,0.0,-5.1387,-5.0918,-5.0137,-5.0137,-4.9902,-4.9512,-4.9082,-4.8887,-4.8887,-4.8887,-4.8887,-4.8887,-4.8887,-4.8887,-4.8867,-4.8457,-4.8242,-4.8242,-4.7793,-4.7344,-4.6933,-4.6953,-4.6719,-4.6308,-4.6289,-4.6289,-4.6289,-4.6289,-4.629,-4.6277,-4.5761,-4.5015,-4.4055,-4.3118,-4.2396,-4.1902,-4.1482,-4.1042,-4.0592,-3.9758,0.0,0.0,0.0,0.0,0.0,0.0,0.0,0.0,0.0,0.0,-3.7271,-3.691,-3.6875,-3.7326,-3.8172,-3.9201,-4.049,-4.2119,-4.2157,-4.0085,-4.2629,-4.4138,-4.3736,-4.5214,-4.6529,-4.7376,-4.751,-4.7836,-4.8606,-4.874,-4.8894,-4.9336,-4.9779,-5.0029,-5.0048,-5.0414,-5.0683,-5.0683,-5.0683,-5.0683,-5.0683,-5.0683,-5.0683,-5.0625,-4.9971,-4.9394,-4.9375,-4.9375,-4.9529,-4.9933,-5.0029,-5.0144,-5.0587,-5.0683,-5.0683,-5.0683,-5.0683,-5.0683,-5.0683,-5.0683,-5.0683,-5.0683,-5.0683,-5.0683,-5.0683,-5.0683,-5.0683,-5.0683,-5.0683,-5.0683,-5.1387,-5.1387,-5.1387,-5.1387,-5.1387,-5.1387,-5.1387,-5.1387,0.0,0.0,0.0,-4.9668,-4.9355,-4.9336,-4.9336,-4.9336,-4.9355,-4.9336,-4.9355,-4.9336,-4.918,-4.9141,-4.9141,-4.8965,-4.8535,-4.7851,-4.7832,-4.7461,-4.6758,-4.6601,-4.6523,-4.6523,-4.6387,-4.6287,-4.6208,-4.5357,-4.4897,-4.4835,-4.3936,-4.3055,-4.2282,-4.1563,-4.1135,-4.0987,-4.0021,-3.9438,-3.9277,-3.793,-3.7185,-3.7233,-3.6887,-3.7252,-3.8428,-3.8812,-3.9835,-4.16,-4.1956,-4.2082,-4.2264,-4.3208,-4.3611,-4.3169,-4.559,-4.6223,-4.4124,-4.5374,-4.6756,-4.8,-4.8237,-4.8625,-4.9317,-4.8914,-4.8856,-4.9567,-4.9625,-4.9913,-5.0567,-5.0683,-5.0644,-5.0683,-5.0664,-5.0683,-5.0683,-5.0683,-5.0683,-5.0683,-5.0683,-5.0683,-5.0683,-5.0606,-5.0529,-5.051,-5.0452,-5.0606,-5.0664,-5.0644,-5.0683,-5.0664,-5.0683,-5.0683,-5.0683,-5.0683,-5.0683,-5.0683,-5.0683,-5.0683,-5.0683,-5.0683,-5.0683,-5.0683,-5.0683,-5.0683,-5.0683,-5.0683,-5.0683,-5.1387,-5.1387,-5.1387,-5.1387,-5.1387,-5.1387,-5.1387,-5.1387,-5.1387,-5.1328,-5.1211,-5.1113,-5.1055,-5.1055,-5.1055,-5.1055,-5.1055,-5.1055,-5.1035,-5.1016,-5.0332,-5.0039,-4.998,-4.9258,-4.8848,-4.873,-4.8711,-4.8652,-4.8476,-4.7793,-4.7402,-4.7324,-4.666,-4.6267,-4.613,-4.5863,-4.5709,-4.564,-4.479,-4.4238,-4.4131,-4.4014,-4.3573,-4.2803,-4.1207,-3.9999,-3.9335,-3.9084,-3.8931,-3.8969,-4.0223,-4.0704,-4.0239,-4.155,-4.2236,-4.1882,-4.2505,-4.322,-4.3936,-4.5454,-4.6934,-4.8145,-4.8087,-4.7759,-4.7471,-4.8298,-4.8644,-4.822,-4.8798,-4.926,-4.9413,-4.9952,-5.0337,-5.051,-5.0529,-5.0587,-5.0779,-5.0779,-5.0798,-5.0818,-5.0683,-5.076,-5.0837,-5.0798,-5.0837,-5.0741,-5.0952,-5.0779,-5.0856,-5.0683,-5.0683,-5.0683,-5.0683,-5.0683,-5.0683,-5.0683,-5.0683,-5.0683,-5.0683,-5.0683,-5.0683,-5.0683,-5.0683,-5.0683,-5.0683,-5.0683,-5.0683,-5.0683,-5.0683,-5.0683,-5.0683,-5.0683,-5.0683,-5.0683,-5.0683,-5.1387,-5.1387,-5.1387,-5.1387,-5.1387,-5.1387,-5.1387,-5.1387,-5.1387,-5.1387,-5.1387,-5.1387,-5.1387,-5.1387,-5.1387,-5.1387,-5.1387,-5.1387,-5.1387,-5.1367,-5.1016,-5.084,-5.082,-5.0449,-5.0039,-4.9629,-4.959,-4.9355,-4.8906,-4.8496,-4.8301,-4.8281,-4.7827,-4.7315,-4.6726,-4.6568,-4.622,-4.5699,-4.4836,-4.441,-4.4369,-4.3965,-4.3769,-4.3779,-4.2563,-4.1973,-4.2005,-4.1585,-4.1354,-4.1354,-4.2104,-4.2508,-4.2604,-4.3758,-4.4487,-4.4578,-4.5368,-4.5969,-4.6337,-4.7106,-4.8068,-4.9279,-4.9029,-4.9029,-4.9471,-4.9433,-4.9433,-4.949,-4.9894,-5.0317,-5.0701,-5.1105,-5.1529,-5.201,-5.2068,-5.2068,-5.2049,-5.2068,-5.2049,-5.2049,-5.2049,-5.2068,-5.2069,-5.2068,-5.2049,-5.2049,-5.2029,-5.2029,-5.2029,-5.2029,-5.1702,-5.0914,-5.0683,-5.0683,-5.0683,-5.0683,-5.0683,-5.0683,-5.0683,-5.0683,-5.0683,-5.0702,-5.0702,-5.0683,-5.0702,-5.0683,-5.0702,-5.0683,-5.0683,-5.0683,-5.0683,-5.0683,-5.0683,-5.0683,-5.0683,-5.1387,-5.1387,-5.1387,-5.1387,-5.1387,-5.1387,-5.1387,-5.1387,-5.1387,-5.1387,-5.1387,-5.1387,-5.1387,-5.1387,-5.1387,-5.1387,-5.1387,-5.1387,-5.1387,-5.1387,-5.1387,-5.1387,-5.1387,-5.1387,-5.1074,-5.0527,-5.0469,-5.0137,-4.9512,-4.9297,-4.9057,-4.8869,-4.875,-4.8282,-4.747,-4.7352,-4.6913,-4.6161,-4.549,-4.4972,-4.4587,-4.3803,-4.3684,-4.419,-4.3506,-4.3393,-4.3968,-4.3412,-4.3085,-4.3124,-4.3451,-4.3951,-4.4586,-4.5586,-4.6469,-4.7141,-4.7756,-4.818,-4.8394,-4.8394,-4.8856,-4.9875,-4.9952,-5.0337,-5.1087,-5.0644,-5.0414,-5.0914,-5.1144,-5.1548,-5.2048,-5.2182,-5.2472,-5.3106,-5.3203,-5.3106,-5.3183,-5.3203,-5.3203,-5.3203,-5.3203,-5.3165,-5.3185,-5.3184,-5.3126,-5.3087,-5.3203,-5.3203,-5.3203,-5.3203,-5.2606,-5.1702,-5.1106,-5.0894,-5.076,-5.0683,-5.0683,-5.0683,-5.0894,-5.101,-5.1068,-5.1125,-5.1279,-5.1356,-5.1125,-5.1068,-5.0991,-5.0991,-5.101,-5.1048,-5.126,-5.1376,-5.1414,-5.1395,-5.1087,-5.1387,-5.1387,-5.1387,-5.1387,-5.1387,-5.1387,-5.1387,-5.1406,-5.1406,-5.1387,-5.1445,-5.1406,-5.1426,-5.1387,-5.1387,-5.1387,-5.1387,-5.1387,-5.1387,-5.1387,-5.1387,-5.1387,-5.1387,-5.1387,-5.1367,-5.1269,-5.125,-5.1152,-5.0976,-5.0391,-4.9627,-4.882,-4.8702,-4.8587,-4.8237,-4.8201,-4.8066,-4.7869,-4.7792,-4.7005,-4.5509,-4.4626,-4.4205,-4.428,-4.3553,-4.3131,-4.3453,-4.3162,-4.3124,-4.322,-4.4586,-4.5413,-4.5624,-4.699,-4.7913,-4.799,-4.8086,-4.8432,-4.9183,-4.9279,-4.9971,-5.1471,-5.1625,-5.1991,-5.2799,-5.2856,-5.251,-5.2126,-5.253,-5.2895,-5.3068,-5.3106,-5.3164,-5.3376,-5.3376,-5.3203,-5.3318,-5.3203,-5.3203,-5.3203,-5.3395,-5.3222,-5.3376,-5.3414,-5.3337,-5.3472,-5.351,-5.351,-5.3472,-5.3472,-5.3376,-5.2895,-5.2356,-5.1587,-5.1048,-5.0702,-5.0933,-5.0894,-5.1336,-5.1702,-5.1894,-5.2356,-5.2933,-5.2414,-5.2222,-5.1818,-5.1798,-5.1798,-5.1798,-5.1875,-5.2261,-5.2878,-5.2954,-5.2818,-5.2318,-5.1387,-5.1387,-5.1387,-5.1387,-5.1387,-5.1387,-5.1387,-5.1445,-5.1953,-5.2187,-5.2246,-5.2715,-5.2363,-5.1406,-5.1387,-5.1387,-5.1387,-5.1387,-5.1387,-5.1387,-5.1387,-5.1387,-5.1387,-5.1387,-5.1387,-5.1387,-5.1387,-5.1387,-5.1328,-5.0996,-5.0574,-5.0221,-5.0067,-4.9702,-4.9106,-4.899,-4.8663,-4.8123,-4.8103,-4.7758,-4.7145,-4.6721,-4.6544,-4.6525,-4.62,-4.6047,-4.6067,-4.6065,-4.6065,-4.6086,-4.6721,-4.7086,-4.7086,-4.8221,-4.8875,-4.8894,-4.9356,-4.9779,-5.0125,-5.0606,-5.1183,-5.1856,-5.2395,-5.2837,-5.3183,-5.3664,-5.378,-5.3492,-5.3319,-5.3395,-5.3874,-5.3972,-5.4145,-5.4568,-5.4684,-5.4664,-5.4684,-5.4664,-5.4684,-5.4684,-5.4684,-5.4664,-5.4684,-5.4684,-5.4684,-5.4684,-5.4664,-5.4587,-5.4645,-5.4684,-5.4453,-5.4049,-5.3626,-5.3127,-5.2338,-5.2165,-5.2146,-5.2204,-5.2414,-5.2663,-5.2721,-5.2876,-5.3183,-5.3241,-5.2914,-5.2683,-5.2664,-5.2664,-5.2664,-5.2799,-5.2799,-5.3204,-5.318,-5.3201,-5.2799,-5.1387,-5.1426,-5.1641,-5.1758,-5.1777,-5.2012,-5.2109,-5.2187,-5.2793,-5.3066,-5.3125,-5.373,-5.3301,-5.2226,-5.2129,-5.2129,-5.209,-5.1855,-5.1758,-5.1719,-5.1523,-5.1387,-5.1387,-5.1387,-5.1387,-5.1387,-5.1387,-5.1367,-5.1348,-5.1257,-5.1164,-5.1106,-5.0991,-5.0568,-4.9952,-4.9798,-4.9471,-4.8894,-4.8817,-4.8817,-4.8818,-4.8797,-4.8584,-4.8161,-4.8084,-4.8085,-4.8106,-4.8086,-4.8105,-4.8086,-4.8317,-4.8471,-4.8471,-4.9279,-4.9856,-5.0105,-5.0664,-5.1144,-5.1356,-5.1933,-5.2375,-5.2626,-5.3222,-5.3645,-5.3953,-5.4472,-5.4799,-5.4762,-5.4262,-5.4241,-5.4682,-5.4857,-5.5107,-5.5626,-5.5684,-5.5684,-5.5645,-5.5684,-5.5626,-5.5684,-5.553,-5.5684,-5.5684,-5.5626,-5.5568,-5.5568,-5.5626,-5.5684,-5.5684,-5.5626,-5.5434,-5.4914,-5.4818,-5.4339,-5.3475,-5.3051,-5.3205,-5.3301,-5.328,-5.3547,-5.3605,-5.3683,-5.3914,-5.4337,-5.3857,-5.3568,-5.3568,-5.3549,-5.3683,-5.3818,-5.3876,-5.3876,-5.4084,-5.3932,-5.3933,-5.1387,-5.1523,-5.2285,-5.2637,-5.2715,-5.3457,-5.3828,-5.3711,-5.3906,-5.3926,-5.3945,-5.4062,-5.3984,-5.3887,-5.3887,-5.3887,-5.373,-5.2988,-5.2656,-5.2578,-5.1875,-5.1445,-5.1387,-5.1387,-5.1465,-5.1641,-5.166,-5.1504,-5.1289,-5.1199,-5.1106,-5.0933,-5.0914,-5.0798,-5.0587,-5.0548,-5.0587,-5.0394,-5.0394,-5.0491,-5.0491,-5.051,-4.9721,-4.8414,-4.8164,-4.8222,-4.8203,-4.8145,-4.8145,-4.8144,-4.8933,-4.9356,-4.9413,-5.0164,-5.0952,-5.1645,-5.1818,-5.2221,-5.2876,-5.3068,-5.3453,-5.4166,-5.4337,-5.4722,-5.5261,-5.5453,-5.5511,-5.5607,-5.5434,-5.5453,-5.553,-5.5511,-5.5549,-5.5665,-5.5684,-5.5684,-5.5684,-5.5684,-5.5684,-5.5684,-5.5684,-5.5684,-5.5684,-5.5684,-5.5684,-5.5684,-5.5684,-5.5684,-5.5684,-5.5684,-5.5626,-5.5588,-5.5453,-5.5088,-5.3645,-5.3589,-5.3491,-5.3605,-5.4184,-5.4432,-5.4722,-5.4974,-5.5241,-5.5318,-5.4799,-5.4491,-5.4453,-5.4568,-5.478,-5.4953,-5.5145,-5.5222,-5.4951,-5.5395,-5.5318,-5.1719,-5.2324,-5.3164,-5.3535,-5.3574,-5.3887,-5.3984,-5.4043,-5.459,-5.4844,-5.4941,-5.541,-5.5664,-5.5683,-5.5664,-5.5039,-5.4023,-5.3652,-5.3535,-5.3496,-5.3203,-5.3066,-5.3066,-5.3066,-5.3066,-5.3066,-5.3047,-5.2695,-5.1992,-5.1451,-5.1068,-5.0914,-5.0818,-5.0721,-5.0702,-5.0683,-5.0683,-5.0683,-5.0683,-5.0683,-5.0702,-5.0683,-5.0375,-4.9817,-4.9779,-4.976,-4.9779,-4.976,-4.9779,-4.976,-5.0067,-5.0221,-5.0298,-5.101,-5.1857,-5.2627,-5.2721,-5.2871,-5.3219,-5.372,-5.4145,-5.4472,-5.4991,-5.5338,-5.5626,-5.5684,-5.5684,-5.5684,-5.5684,-5.5684,-5.5684,-5.5684,-5.5684,-5.5684,-5.5684,-5.5684,-5.5684,-5.5684,-5.5684,-5.5684,-5.5684,-5.5684,-5.5684,-5.5684,-5.5684,-5.5684,-5.5684,-5.5684,-5.5684,-5.5684,-5.5684,-5.5684,-5.5684,-5.5511,-5.5049,-5.4818,-5.4838,-5.4874,-5.5126,-5.5203,-5.5376,-5.5376,-5.5549,-5.5549,-5.5241,-5.5164,-5.5068,-5.5107,-5.5395,-5.5453,-5.5684,-5.5684,-5.5684,-5.5684,-5.5684,-5.2148,-5.2832,-5.3945,-5.4433,-5.4473,-5.4726,-5.4844,-5.4902,-5.5469,-5.5723,-5.584,-5.6348,-5.6621,-5.6621,-5.6621,-5.6015,-5.4863,-5.457,-5.4414,-5.4375,-5.4141,-5.3984,-5.3984,-5.3984,-5.3984,-5.3984,-5.3945,-5.3516,-5.2812,-5.2149,-5.178,-5.1645,-5.1529,-5.1356,-5.1144,-5.1087,-5.0991,-5.076,-5.0683,-5.0798,-5.1029,-5.1106,-5.1222,-5.1453,-5.151,-5.1222,-5.0741,-5.0683,-5.0683,-5.0721,-5.0933,-5.1202,-5.1529,-5.2011,-5.2723,-5.3474,-5.3605,-5.3736,-5.4026,-5.4547,-5.4895,-5.4914,-5.5357,-5.5684,-5.5684,-5.5684,-5.5684,-5.5684,-5.5684,-5.5684,-5.5684,-5.5684,-5.5684,-5.5684,-5.5684,-5.5684,-5.5684,-5.5684,-5.5684,-5.5684,-5.5684,-5.5684,-5.5684,-5.5684,-5.5684,-5.5684,-5.5684,-5.5684,-5.5684,-5.5684,-5.5684,-5.5684,-5.5684,-5.5684,-5.5453,-5.5357,-5.5357,-5.5415,-5.5434,-5.5607,-5.5684,-5.5684,-5.5684,-5.5684,-5.5684,-5.5684,-5.5684,-5.5684,-5.5684,-5.5684,-5.5684,-5.5684,-5.5684,-5.5684,-5.5684,-5.2734,-5.3086,-5.459,-5.5312,-5.541,-5.6055,-5.6504,-5.6426,-5.6504,-5.6465,-5.6445,-5.6601,-5.6621,-5.6621,-5.6621,-5.6543,-5.625,-5.5625,-5.5312,-5.5254,-5.457,-5.4219,-5.4258,-5.4277,-5.4277,-5.4219,-5.3945,-5.373,-5.3457,-5.3252,-5.3106,-5.3106,-5.2972,-5.2549,-5.1914,-5.1914,-5.1548,-5.1087,-5.0991,-5.1241,-5.1799,-5.1915,-5.2261,-5.2935,-5.3013,-5.2338,-5.0894,-5.0837,-5.0914,-5.0952,-5.1548,-5.2318,-5.2972,-5.3203,-5.3587,-5.432,-5.4489,-5.4874,-5.5472,-5.5568,-5.5549,-5.5568,-5.5665,-5.5684,-5.5684,-5.5684,-5.5684,-5.5684,-5.5684,-5.5684,-5.5684,-5.5799,-5.578,-5.5684,-5.5684,-5.5684,-5.5684,-5.5684,-5.5684,-5.5684,-5.5684,-5.5684,-5.5684,-5.5684,-5.5684,-5.5684,-5.5684,-5.5684,-5.5684,-5.5684,-5.5684,-5.5684,-5.5684,-5.5684,-5.5684,-5.5684,-5.5665,-5.5665,-5.5645,-5.5684,-5.5684,-5.5684,-5.5684,-5.5684,-5.5684,-5.5684,-5.5684,-5.5684,-5.5684,-5.5684,-5.5684,-5.5684,-5.5684,-5.5684,-5.5684,-5.3945,-5.4609,-5.5723,-5.6191,-5.623,-5.6484,-5.6621,-5.6621,-5.6621,-5.6621,-5.6621,-5.6621,-5.6621,-5.6621,-5.6621,-5.6621,-5.6582,-5.6308,-5.6211,-5.6113,-5.5879,-5.5723,-5.5742,-5.5762,-5.5723,-5.5547,-5.4996,-5.4571,-5.4216,-5.3687,-5.3334,-5.3219,-5.322,-5.3068,-5.2818,-5.2799,-5.2606,-5.2472,-5.2435,-5.257,-5.2801,-5.2799,-5.295,-5.3144,-5.3201,-5.2892,-5.2469,-5.2433,-5.2415,-5.2395,-5.2664,-5.3203,-5.3895,-5.4108,-5.4493,-5.5184,-5.5318,-5.5395,-5.5626,-5.5703,-5.5703,-5.5703,-5.5703,-5.5684,-5.5684,-5.5761,-5.5761,-5.5742,-5.5684,-5.5684,-5.578,-5.6258,-5.6354,-5.5761,-5.5684,-5.5799,-5.5857,-5.578,-5.5684,-5.5684,-5.5684,-5.5684,-5.5703,-5.5703,-5.5684,-5.5684,-5.5684,-5.5684,-5.5684,-5.5684,-5.5684,-5.5684,-5.5684,-5.5684,-5.5684,-5.5684,-5.5684,-5.5684,-5.5684,-5.5684,-5.5684,-5.5684,-5.5684,-5.5684,-5.5684,-5.5684,-5.5684,-5.5684,-5.5684,-5.5684,-5.5684,-5.5684,-5.5684,-5.5684,-5.5684,-5.4512,-5.5371,-5.623,-5.6621,-5.6621,-5.6621,-5.6621,-5.6621,-5.6621,-5.6621,-5.6621,-5.6621,-5.6621,-5.6621,-5.6621,-5.6621,-5.6621,-5.6621,-5.6621,-5.6621,-5.6621,-5.6621,-5.6595,-5.6536,-5.6406,-5.6172,-5.5652,-5.528,-5.5047,-5.4547,-5.4218,-5.4141,-5.4124,-5.3972,-5.3722,-5.3664,-5.3549,-5.3261,-5.3185,-5.3378,-5.3609,-5.3682,-5.3812,-5.4084,-5.4122,-5.4141,-5.4141,-5.4126,-5.3839,-5.3414,-5.3491,-5.4087,-5.4818,-5.4974,-5.5186,-5.5549,-5.5684,-5.5684,-5.5684,-5.5684,-5.5876,-5.6069,-5.6165,-5.6376,-5.6569,-5.6665,-5.6665,-5.6646,-5.6706,-5.6686,-5.678,-5.7104,-5.7181,-5.6761,-5.6722,-5.6665,-5.6665,-5.6665,-5.6703,-5.6703,-5.6456,-5.6222,-5.6165,-5.5799,-5.5722,-5.5684,-5.5684,-5.5684,-5.5684,-5.5684,-5.5684,-5.5684,-5.5684,-5.5684,-5.5684,-5.5684,-5.5684,-5.5684,-5.5684,-5.5684,-5.5684,-5.5684,-5.5684,-5.5684,-5.5684,-5.5684,-5.5684,-5.5684,-5.5684,-5.5684,-5.5684,-5.5684,-5.5684,-5.5684,-5.5684,-5.4531,-5.5449,-5.625,-5.6621,-5.6621,-5.6621,-5.6621,-5.6621,-5.6621,-5.6621,-5.6621,-5.6621,-5.6621,-5.6621,-5.6621,-5.6621,-5.6601,-5.6582,-5.6582,-5.6582,-5.6582,-5.6554,-5.6563,-5.6472,-5.6269,-5.5976,-5.5878,-5.5784,-5.5588,-5.5491,-5.5684,-5.5491,-5.5415,-5.5299,-5.4684,-5.4549,-5.4203,-5.3683,-5.3491,-5.3896,-5.4512,-5.4568,-5.4836,-5.5511,-5.5511,-5.5491,-5.5453,-5.5415,-5.4838,-5.3703,-5.4222,-5.4876,-5.5491,-5.5684,-5.5645,-5.5684,-5.5684,-5.578,-5.5761,-5.5915,-5.6242,-5.6973,-5.7088,-5.7376,-5.7915,-5.7953,-5.7953,-5.7973,-5.8036,-5.8113,-5.8107,-5.83,-5.8338,-5.8434,-5.8146,-5.8069,-5.8223,-5.8165,-5.7992,-5.7953,-5.7572,-5.7071,-5.7049,-5.6434,-5.6107,-5.5876,-5.5895,-5.5915,-5.5684,-5.5684,-5.5684,-5.5703,-5.5703,-5.5684,-5.5684,-5.5684,-5.5684,-5.5684,-5.5684,-5.5684,-5.5684,-5.5684,-5.5684,-5.5684,-5.5684,-5.5684,-5.5684,-5.5684,-5.5684,-5.5684,-5.5684,-5.5684,-5.5684,-5.5684,-5.5684,-5.4883,-5.625,-5.6504,-5.6621,-5.6621,-5.6621,-5.6621,-5.6621,-5.6621,-5.6621,-5.6621,-5.6621,-5.6621,-5.6621,-5.6621,-5.6621,-5.6562,-5.6503,-5.6524,-5.6556,-5.638,-5.6375,-5.6425,-5.6422,-5.6222,-5.5924,-5.5904,-5.5818,-5.5703,-5.5684,-5.5684,-5.5684,-5.5684,-5.5607,-5.5376,-5.5338,-5.5299,-5.5068,-5.5011,-5.5049,-5.5261,-5.5338,-5.5472,-5.5645,-5.5684,-5.5684,-5.5684,-5.5684,-5.5568,-5.5145,-5.5222,-5.5453,-5.5665,-5.5722,-5.578,-5.5761,-5.578,-5.603,-5.6527,-5.6643,-5.7088,-5.7819,-5.7953,-5.8069,-5.8242,-5.8319,-5.83,-5.83,-5.8303,-5.836,-5.8434,-5.8835,-5.9373,-5.9877,-5.9146,-5.8454,-5.8415,-5.83,-5.83,-5.8261,-5.8127,-5.7995,-5.7879,-5.7687,-5.7261,-5.6821,-5.6629,-5.6492,-5.6203,-5.5838,-5.5915,-5.5761,-5.5703,-5.5703,-5.5684,-5.5684,-5.5684,-5.5684,-5.5684,-5.5684,-5.5684,-5.5684,-5.5684,-5.5684,-5.5684,-5.5684,-5.5684,-5.5684,-5.5684,-5.5684,-5.5684,-5.5684,-5.5684,-5.5684,-5.5684,-5.5019,-5.6601,-5.6621,-5.6621,-5.6621,-5.6621,-5.6621,-5.6621,-5.6621,-5.6621,-5.6621,-5.6621,-5.6621,-5.6621,-5.6621,-5.6562,-5.6505,-5.642,-5.6411,-5.6391,-5.6284,-5.6207,-5.619,-5.6167,-5.6071,-5.5838,-5.5818,-5.5761,-5.5703,-5.5684,-5.5684,-5.5684,-5.5684,-5.5684,-5.5645,-5.5684,-5.5684,-5.5665,-5.5684,-5.5684,-5.5684,-5.5684,-5.5684,-5.5684,-5.5684,-5.5684,-5.5684,-5.5684,-5.5684,-5.5684,-5.5684,-5.5684,-5.5742,-5.609,-5.6244,-5.6263,-5.6549,-5.7088,-5.7393,-5.7547,-5.7953,-5.8607,-5.88,-5.9011,-5.9281,-5.9338,-5.9358,-5.9415,-5.9358,-5.9358,-5.9415,-5.9777,-6.0219,-6.0512,-5.9915,-5.9338,-5.9338,-5.9415,-5.9377,-5.9281,-5.905,-5.88,-5.8784,-5.855,-5.8127,-5.7703,-5.755,-5.7319,-5.6992,-5.6549,-5.6242,-5.6242,-5.5972,-5.5915,-5.5915,-5.5915,-5.5895,-5.5876,-5.5684,-5.5684,-5.5684,-5.5684,-5.5684,-5.5684,-5.5684,-5.5684,-5.5684,-5.5684,-5.5684,-5.5684,-5.5684,-5.5684,-5.5684,-5.5684,-5.5684,-5.4961,-5.6465,-5.6562,-5.6621,-5.6621,-5.6621,-5.6621,-5.6621,-5.6621,-5.6621,-5.6621,-5.6621,-5.6621,-5.6601,-5.6582,-5.6514,-5.6384,-5.6325,-5.6227,-5.6174,-5.6095,-5.6073,-5.5917,-5.5955,-5.5857,-5.5722,-5.5703,-5.5703,-5.5684,-5.5684,-5.5684,-5.5684,-5.5684,-5.5684,-5.5684,-5.5684,-5.5684,-5.5684,-5.5684,-5.5684,-5.5684,-5.5684,-5.5684,-5.5684,-5.5684,-5.5684,-5.5742,-5.5818,-5.5895,-5.5857,-5.5761,-5.578,-5.5895,-5.6629,-5.7016,-5.7187,-5.7684,-5.8123,-5.8415,-5.8434,-5.8781,-5.9454,-5.9646,-5.9935,-6.0416,-6.0512,-6.0512,-6.0473,-6.0762,-6.0569,-6.0569,-6.0742,-6.0723,-6.0762,-6.0685,-6.0762,-6.08,-6.08,-6.08,-6.0762,-6.0031,-5.9723,-5.945,-5.9065,-5.8566,-5.8489,-5.8354,-5.8127,-5.78,-5.7376,-5.7165,-5.7126,-5.6722,-5.6165,-5.6165,-5.6165,-5.6167,-5.6109,-5.5799,-5.5684,-5.5684,-5.5684,-5.5684,-5.5684,-5.5684,-5.5684,-5.5684,-5.5684,-5.5684,-5.5684,-5.5684,-5.5684,-5.5684,-5.5684,-5.5684,-5.4629,-5.5644,-5.6308,-5.6621,-5.6621,-5.6621,-5.6621,-5.6621,-5.6621,-5.6621,-5.6621,-5.6621,-5.6601,-5.6582,-5.6494,-5.6425,-5.6323,-5.6148,-5.5955,-5.5838,-5.5936,-5.5876,-5.5799,-5.5838,-5.5818,-5.5722,-5.5684,-5.5684,-5.5684,-5.5684,-5.5684,-5.5684,-5.5684,-5.5684,-5.5684,-5.5684,-5.5684,-5.5684,-5.5684,-5.5684,-5.5684,-5.5684,-5.5722,-5.5761,-5.5761,-5.5761,-5.5857,-5.6357,-5.6703,-5.6549,-5.6203,-5.6165,-5.6667,-5.6975,-5.742,-5.7934,-5.8239,-5.8639,-5.9104,-5.9296,-5.9604,-6.03,-6.0416,-6.0589,-6.0704,-6.08,-6.08,-6.08,-6.08,-6.08,-6.08,-6.08,-6.08,-6.08,-6.08,-6.08,-6.08,-6.08,-6.08,-6.0742,-6.0627,-6.0512,-6.0492,-6.0319,-5.9835,-5.9407,-5.9123,-5.8934,-5.8627,-5.8261,-5.8088,-5.7992,-5.7569,-5.7107,-5.7088,-5.703,-5.6917,-5.6802,-5.6434,-5.5992,-5.5972,-5.5857,-5.5915,-5.5838,-5.5684,-5.5684,-5.5684,-5.5684,-5.5684,-5.5684,-5.5684,-5.5684,-5.5684,-5.5684,-5.5684,-5.4141,-5.5332,-5.582,-5.623,-5.6582,-5.6621,-5.6621,-5.6621,-5.6621,-5.6621,-5.6621,-5.6621,-5.6562,-5.6504,-5.6437,-5.6342,-5.6128,-5.5936,-5.5761,-5.5722,-5.578,-5.5761,-5.5722,-5.5761,-5.5761,-5.5703,-5.5684,-5.5684,-5.5684,-5.5684,-5.5684,-5.5684,-5.5684,-5.5684,-5.5684,-5.5684,-5.5684,-5.5684,-5.5684,-5.5684,-5.5684,-5.5684,-5.5992,-5.622,-5.6335,-5.6451,-5.6973,-5.7338,-5.7588,-5.7492,-5.7184,-5.7088,-5.7588,-5.7956,-5.8399,-5.8761,-5.9315,-5.9604,-6.0027,-6.0123,-6.0277,-6.0742,-6.08,-6.08,-6.08,-6.08,-6.08,-6.08,-6.08,-6.08,-6.08,-6.08,-6.08,-6.08,-6.08,-6.08,-6.08,-6.08,-6.08,-6.08,-6.0762,-6.0742,-6.0781,-6.08,-6.0704,-6.0046,-6.0046,-5.9877,-5.9742,-5.9377,-5.8992,-5.8761,-5.8396,-5.8146,-5.8107,-5.8011,-5.7841,-5.7687,-5.7453,-5.6934,-5.6607,-5.6415,-5.6222,-5.5992,-5.5684,-5.5684,-5.5684,-5.5684,-5.5684,-5.5684,-5.5684,-5.5684,-5.5684,-5.5684,-5.5684,-5.3574,-5.4941,-5.5176,-5.5723,-5.6367,-5.6543,-5.6621,-5.6621,-5.6621,-5.6621,-5.6601,-5.6582,-5.6504,-5.6413,-5.6323,-5.615,-5.5936,-5.578,-5.5703,-5.5703,-5.5703,-5.5703,-5.5684,-5.5703,-5.5703,-5.5684,-5.5684,-5.5684,-5.5684,-5.5684,-5.5684,-5.5684,-5.5684,-5.5684,-5.5684,-5.5684,-5.5684,-5.5684,-5.5684,-5.5684,-5.5684,-5.5722,-5.6104,-5.6755,-5.7178,-5.745,-5.7973,-5.83,-5.8473,-5.8492,-5.8588,-5.8665,-5.8819,-5.9072,-5.963,-5.9669,-6.0262,-6.0531,-6.0589,-6.0685,-6.0742,-6.08,-6.08,-6.08,-6.08,-6.08,-6.08,-6.08,-6.08,-6.08,-6.08,-6.08,-6.08,-6.08,-6.08,-6.08,-6.08,-6.08,-6.08,-6.08,-6.08,-6.08,-6.08,-6.08,-6.08,-6.08,-6.08,-6.0742,-6.055,-6.0358,-5.9896,-5.9704,-5.9435,-5.93,-5.9281,-5.8781,-5.8627,-5.8492,-5.8319,-5.7819,-5.7338,-5.7223,-5.6915,-5.5992,-5.5684,-5.5722,-5.5722,-5.5684,-5.5684,-5.5684,-5.5684,-5.5684,-5.5684,-5.5684,-5.5761,-5.2871,-5.3262,-5.4687,-5.539,-5.5625,-5.6289,-5.6601,-5.6621,-5.6601,-5.6621,-5.6582,-5.6484,-5.6418,-5.6339,-5.6097,-5.5876,-5.5761,-5.5703,-5.5684,-5.5684,-5.5684,-5.5684,-5.5684,-5.5684,-5.5684,-5.5684,-5.5684,-5.5684,-5.5684,-5.5684,-5.5684,-5.5684,-5.5684,-5.5684,-5.5684,-5.5684,-5.5684,-5.5684,-5.5684,-5.5684,-5.5684,-5.5857,-5.6316,-5.7175,-5.7809,-5.8216,-5.8489,-5.8992,-5.93,-5.9377,-5.9992,-6.0262,-6.0127,-5.9804,-5.9938,-6.0381,-6.0627,-6.08,-6.08,-6.08,-6.08,-6.08,-6.08,-6.08,-6.08,-6.08,-6.08,-6.08,-6.08,-6.08,-6.08,-6.08,-6.08,-6.08,-6.08,-6.08,-6.08,-6.08,-6.08,-6.08,-6.08,-6.08,-6.08,-6.08,-6.08,-6.08,-6.08,-6.08,-6.0704,-6.0666,-6.0531,-6.0492,-6.055,-6.0492,-6.0473,-5.9777,-5.9315,-5.92,-5.8989,-5.8546,-5.8181,-5.8146,-5.7665,-5.678,-5.6088,-5.5895,-5.5838,-5.5799,-5.5684,-5.5684,-5.5684,-5.5742,-5.5953,-5.6165,-5.6126,-5.2285,-5.2832,-5.4101,-5.4883,-5.541,-5.623,-5.6547,-5.6495,-5.6504,-5.6445,-5.6387,-5.632,-5.6228,-5.6115,-5.6013,-5.5818,-5.5722,-5.5684,-5.5684,-5.5684,-5.5684,-5.5684,-5.5684,-5.5684,-5.5684,-5.5684,-5.5684,-5.5684,-5.5684,-5.5684,-5.5684,-5.5684,-5.5684,-5.5684,-5.5684,-5.5684,-5.5703,-5.5703,-5.5722,-5.5722,-5.5799,-5.6128,-5.697,-5.8081,-5.8654,-5.91,-5.9604,-5.9896,-6.0165,-6.0242,-6.055,-6.0742,-6.0666,-6.0512,-6.0342,-6.0704,-6.08,-6.08,-6.08,-6.08,-6.08,-6.08,-6.08,-6.08,-6.08,-6.08,-6.08,-6.08,-6.08,-6.08,-6.08,-6.08,-6.08,-6.08,-6.08,-6.08,-6.08,-6.08,-6.08,-6.08,-6.08,-6.08,-6.08,-6.08,-6.08,-6.08,-6.08,-6.08,-6.08,-6.08,-6.08,-6.0781,-6.0762,-6.0762,-6.0762,-6.0396,-5.995,-5.9854,-5.9719,-5.9277,-5.9027,-5.8973,-5.8415,-5.7607,-5.7011,-5.6549,-5.6203,-5.6222,-5.5972,-5.5838,-5.6165,-5.6453,-5.6549,-5.6604,-5.6684,-5.1797,-5.2519,-5.3379,-5.4238,-5.5098,-5.5976,-5.6383,-5.6397,-5.6407,-5.6328,-5.6205,-5.6145,-5.6055,-5.5955,-5.5857,-5.5799,-5.5684,-5.5684,-5.5684,-5.5684,-5.5684,-5.5684,-5.5684,-5.5684,-5.5684,-5.5684,-5.5684,-5.5684,-5.5684,-5.5684,-5.5684,-5.5684,-5.5684,-5.5684,-5.5684,-5.5684,-5.5742,-5.5934,-5.5955,-5.6013,-5.6379,-5.7091,-5.8069,-5.9412,-5.9661,-6.0065,-6.0531,-6.0646,-6.0685,-6.0704,-6.0762,-6.08,-6.08,-6.0781,-6.0781,-6.08,-6.08,-6.08,-6.08,-6.08,-6.08,-6.08,-6.08,-6.08,-6.08,-6.08,-6.08,-6.08,-6.08,-6.08,-6.08,-6.08,-6.08,-6.08,-6.08,-6.08,-6.08,-6.08,-6.08,-6.08,-6.08,-6.08,-6.08,-6.08,-6.08,-6.08,-6.08,-6.08,-6.08,-6.08,-6.08,-6.08,-6.0781,-6.0781,-6.0781,-6.0781,-6.0512,-6.0435,-6.0358,-6.0127,-5.9915,-5.9781,-5.9165,-5.8684,-5.8165,-5.7703,-5.7203,-5.6819,-5.686,-5.6937,-5.7071,-5.7203,-5.7335,-5.7489,-5.7627,-5.1465,-5.1641,-5.25,-5.334,-5.4219,-5.5098,-5.5829,-5.6328,-5.6348,-5.6329,-5.6164,-5.6039,-5.5936,-5.5857,-5.578,-5.5722,-5.5684,-5.5684,-5.5684,-5.5684,-5.5684,-5.5684,-5.5684,-5.5684,-5.5684,-5.5684,-5.5684,-5.5684,-5.5684,-5.5684,-5.5684,-5.5684,-5.5684,-5.5684,-5.5684,-5.5838,-5.6088,-5.6665,-5.6821,-5.7208,-5.7901,-5.8646,-5.9162,-5.9661,-6.0161,-6.0608,-6.0781,-6.08,-6.08,-6.08,-6.08,-6.08,-6.08,-6.08,-6.08,-6.08,-6.08,-6.08,-6.08,-6.08,-6.08,-6.08,-6.08,-6.08,-6.08,-6.08,-6.08,-6.08,-6.08,-6.08,-6.08,-6.08,-6.08,-6.08,-6.08,-6.08,-6.08,-6.08,-6.08,-6.08,-6.08,-6.08,-6.08,-6.08,-6.08,-6.08,-6.08,-6.08,-6.08,-6.08,-6.08,-6.08,-6.08,-6.08,-6.08,-6.08,-6.08,-6.08,-6.0762,-6.0704,-6.0512,-6.03,-6.0473,-5.9973,-5.9396,-5.8877,-5.8434,-5.8146,-5.8014,-5.7899,-5.7899,-5.8008,-5.8154,-5.8331,-5.8627,-5.1387,-5.1465,-5.2255,-5.2783,-5.3291,-5.45,-5.5194,-5.548,-5.5917,-5.6051,-5.5936,-5.5818,-5.578,-5.5761,-5.5703,-5.5703,-5.5684,-5.5684,-5.5684,-5.5684,-5.5684,-5.5684,-5.5684,-5.5684,-5.5684,-5.5684,-5.5684,-5.5684,-5.5684,-5.5684,-5.5684,-5.5684,-5.5684,-5.5684,-5.5838,-5.6203,-5.6569,-5.703,-5.7495,-5.8149,-5.8838,-5.9335,-5.9738,-6.0181,-6.0608,-6.0762,-6.08,-6.08,-6.08,-6.08,-6.08,-6.08,-6.08,-6.08,-6.08,-6.08,-6.08,-6.08,-6.08,-6.08,-6.08,-6.08,-6.08,-6.08,-6.08,-6.08,-6.08,-6.08,-6.08,-6.08,-6.08,-6.08,-6.08,-6.08,-6.08,-6.08,-6.08,-6.08,-6.08,-6.08,-6.08,-6.08,-6.08,-6.08,-6.08,-6.08,-6.08,-6.08,-6.08,-6.08,-6.08,-6.08,-6.08,-6.08,-6.08,-6.08,-6.08,-6.08,-6.08,-6.0762,-6.0781,-6.0742,-6.08,-6.08,-6.03,-5.9877,-5.9569,-5.9031,-5.8495,-5.8534,-5.8668,-5.8835,-5.9062,-5.9604,-5.9838,-5.1346,-5.1398,-5.1949,-5.2281,-5.2531,-5.3761,-5.4436,-5.4783,-5.5318,-5.5626,-5.5684,-5.5703,-5.5703,-5.5684,-5.5684,-5.5684,-5.5684,-5.5684,-5.5684,-5.5684,-5.5684,-5.5684,-5.5684,-5.5684,-5.5684,-5.5684,-5.5684,-5.5684,-5.5684,-5.5684,-5.5684,-5.5684,-5.5684,-5.5876,-5.6165,-5.6607,-5.7126,-5.7879,-5.8607,-5.9261,-5.9738,-5.9854,-6.0219,-6.0569,-6.08,-6.08,-6.08,-6.08,-6.08,-6.08,-6.08,-6.08,-6.08,-6.08,-6.08,-6.08,-6.08,-6.08,-6.08,-6.08,-6.08,-6.08,-6.08,-6.08,-6.08,-6.08,-6.08,-6.08,-6.08,-6.08,-6.08,-6.08,-6.08,-6.08,-6.08,-6.08,-6.08,-6.08,-6.08,-6.08,-6.08,-6.08,-6.08,-6.08,-6.08,-6.08,-6.08,-6.08,-6.08,-6.08,-6.08,-6.08,-6.08,-6.08,-6.08,-6.08,-6.08,-6.08,-6.08,-6.08,-6.08,-6.08,-6.08,-6.08,-6.08,-6.0608,-6.0165,-5.9511,-5.8954,-5.9358,-5.9685,-5.9742,-6.0008,-6.0531,-6.0704,-5.1183,-5.1133,-5.1264,-5.1703,-5.2281,-5.2416,-5.334,-5.4531,-5.4761,-5.5182,-5.5665,-5.5684,-5.5684,-5.5684,-5.5684,-5.5684,-5.5684,-5.5684,-5.5684,-5.5684,-5.5684,-5.5684,-5.5684,-5.5684,-5.5684,-5.5684,-5.5684,-5.5684,-5.5684,-5.5684,-5.5684,-5.5703,-5.5857,-5.6261,-5.6722,-5.7184,-5.811,-5.8976,-5.9877,-6.03,-6.0531,-6.0589,-6.0666,-6.0723,-6.08,-6.08,-6.08,-6.08,-6.08,-6.08,-6.08,-6.08,-6.08,-6.08,-6.08,-6.08,-6.08,-6.08,-6.08,-6.08,-6.08,-6.08,-6.08,-6.08,-6.08,-6.08,-6.08,-6.08,-6.08,-6.08,-6.08,-6.08,-6.08,-6.08,-6.08,-6.08,-6.08,-6.08,-6.08,-6.08,-6.08,-6.08,-6.08,-6.08,-6.08,-6.08,-6.08,-6.08,-6.08,-6.08,-6.08,-6.08,-6.08,-6.08,-6.08,-6.08,-6.08,-6.08,-6.08,-6.08,-6.08,-6.08,-6.08,-6.08,-6.08,-6.08,-6.0762,-6.0204,-5.9992,-6.0435,-6.0627,-6.0416,-6.0377,-6.0646,-6.0781,-5.1075,-5.0987,-5.1028,-5.1183,-5.1453,-5.1876,-5.2723,-5.3741,-5.4337,-5.5011,-5.5684,-5.5684,-5.5684,-5.5684,-5.5684,-5.5684,-5.5684,-5.5684,-5.5684,-5.5684,-5.5684,-5.5684,-5.5684,-5.5684,-5.5684,-5.5684,-5.5684,-5.5684,-5.5684,-5.5684,-5.5684,-5.5799,-5.6242,-5.6588,-5.7088,-5.8011,-5.9146,-5.9915,-6.055,-6.0781,-6.08,-6.08,-6.08,-6.08,-6.08,-6.08,-6.08,-6.08,-6.08,-6.08,-6.08,-6.08,-6.08,-6.08,-6.08,-6.08,-6.08,-6.08,-6.08,-6.08,-6.08,-6.08,-6.08,-6.08,-6.08,-6.08,-6.08,-6.08,-6.08,-6.08,-6.08,-6.08,-6.08,-6.08,-6.08,-6.08,-6.08,-6.08,-6.08,-6.08,-6.08,-6.08,-6.08,-6.08,-6.08,-6.08,-6.08,-6.08,-6.08,-6.08,-6.08,-6.08,-6.08,-6.08,-6.08,-6.08,-6.08,-6.08,-6.08,-6.08,-6.08,-6.08,-6.08,-6.08,-6.08,-6.08,-6.08,-6.08,-6.0781,-6.0781,-6.0781,-6.0723,-6.0762,-6.08,-6.08,-5.0972,-5.0837,-5.0818,-5.0837,-5.0894,-5.1356,-5.2029,-5.2876,-5.3741,-5.4761,-5.5665,-5.5684,-5.5684,-5.5684,-5.5684,-5.5684,-5.5684,-5.5684,-5.5684,-5.5684,-5.5684,-5.5684,-5.5684,-5.5684,-5.5684,-5.5684,-5.5684,-5.5684,-5.5684,-5.5684,-5.5915,-5.6319,-5.6896,-5.7321,-5.778,-5.8992,-6.0204,-6.0646,-6.08,-6.08,-6.08,-6.08,-6.08,-6.08,-6.08,-6.08,-6.08,-6.08,-6.08,-6.08,-6.08,-6.08,-6.08,-6.08,-6.08,-6.08,-6.08,-6.08,-6.08,-6.08,-6.08,-6.08,-6.08,-6.08,-6.08,-6.08,-6.08,-6.08,-6.08,-6.08,-6.08,-6.08,-6.08,-6.08,-6.08,-6.08,-6.08,-6.08,-6.08,-6.08,-6.08,-6.08,-6.08,-6.08,-6.08,-6.08,-6.08,-6.08,-6.08,-6.08,-6.08,-6.08,-6.08,-6.08,-6.08,-6.08,-6.08,-6.08,-6.08,-6.08,-6.08,-6.08,-6.08,-6.08,-6.08,-6.08,-6.08,-6.08,-6.08,-6.0781,-6.08,-6.08,-6.08,-6.08,-6.08,-5.0818,-5.0702,-5.0702,-5.0702,-5.0702,-5.0721,-5.1241,-5.2164,-5.3087,-5.4318,-5.5607,-5.5684,-5.5684,-5.5684,-5.5684,-5.5684,-5.5684,-5.5684,-5.5684,-5.5684,-5.5684,-5.5684,-5.5684,-5.5684,-5.5684,-5.5684,-5.5684,-5.5684,-5.5684,-5.5684,-5.6107,-5.6931,-5.7665,-5.836,-5.8454,-5.9915,-6.0742,-6.08,-6.08,-6.08,-6.08,-6.08,-6.08,-6.08,-6.08,-6.08,-6.08,-6.08,-6.08,-6.08,-6.08,-6.08,-6.08,-6.08,-6.08,-6.08,-6.08,-6.08,-6.08,-6.08,-6.08,-6.08,-6.08,-6.08,-6.08,-6.08,-6.08,-6.08,-6.08,-6.08,-6.08,-6.08,-6.08,-6.08,-6.08,-6.08,-6.08,-6.08,-6.08,-6.08,-6.08,-6.08,-6.08,-6.08,-6.08,-6.08,-6.08,-6.08,-6.08,-6.08,-6.08,-6.08,-6.08,-6.08,-6.08,-6.08,-6.08,-6.08,-6.08,-6.08,-6.08,-6.08,-6.08,-6.08,-6.08,-6.08,-6.08,-6.08,-6.08,-6.08,-6.08,-6.08,-6.08,-6.08,-6.08,-5.0741,-5.0683,-5.0683,-5.0683,-5.0683,-5.0683,-5.1144,-5.2087,-5.3413,-5.4662,-5.553,-5.5684,-5.5684,-5.5684,-5.5684,-5.5684,-5.5684,-5.5684,-5.5684,-5.5684,-5.5684,-5.5684,-5.5684,-5.5684,-5.5684,-5.5684,-5.5684,-5.5684,-5.5684,-5.5684,-5.6201,-5.7085,-5.8357,-5.9377,-5.9896,-6.0666,-6.0781,-6.08,-6.08,-6.08,-6.08,-6.08,-6.08,-6.08,-6.08,-6.08,-6.08,-6.08,-6.08,-6.08,-6.08,-6.08,-6.08,-6.08,-6.08,-6.08,-6.08,-6.08,-6.08,-6.08,-6.08,-6.08,-6.0858,-6.0877,-6.0819,-6.08,-6.08,-6.0877,-6.1031,-6.0993,-6.08,-6.0819,-6.0819,-6.08,-6.08,-6.08,-6.08,-6.08,-6.08,-6.08,-6.08,-6.08,-6.08,-6.08,-6.08,-6.08,-6.08,-6.08,-6.08,-6.08,-6.08,-6.08,-6.08,-6.08,-6.08,-6.08,-6.08,-6.08,-6.08,-6.08,-6.08,-6.08,-6.08,-6.08,-6.08,-6.08,-6.08,-6.08,-6.08,-6.08,-6.08,-6.08,-6.08,-6.08,-6.08,-5.0683,-5.0683,-5.0683,-5.0683,-5.0683,-5.0683,-5.1144,-5.2068,-5.3432,-5.4509,-5.5203,-5.553,-5.5684,-5.5684,-5.5684,-5.5684,-5.5684,-5.5684,-5.5684,-5.5684,-5.5684,-5.5684,-5.5684,-5.5684,-5.5684,-5.5684,-5.5684,-5.5684,-5.5684,-5.5684,-5.6412,-5.7582,-5.8796,-5.9762,-6.0454,-6.0762,-6.08,-6.08,-6.08,-6.08,-6.08,-6.08,-6.08,-6.08,-6.08,-6.08,-6.08,-6.08,-6.08,-6.08,-6.08,-6.08,-6.08,-6.08,-6.08,-6.08,-6.08,-6.08,-6.08,-6.08,-6.08,-6.08,-6.1031,-6.1223,-6.1339,-6.1647,-6.1766,-6.1786,-6.1612,-6.1627,-6.1608,-6.157,-6.1531,-6.1531,-6.1339,-6.1377,-6.1166,-6.1185,-6.0839,-6.0819,-6.08,-6.08,-6.08,-6.08,-6.08,-6.08,-6.08,-6.08,-6.08,-6.08,-6.08,-6.08,-6.08,-6.08,-6.08,-6.08,-6.08,-6.08,-6.08,-6.08,-6.08,-6.08,-6.08,-6.08,-6.08,-6.08,-6.08,-6.08,-6.08,-6.08,-6.08,-6.08,-6.08,-6.08,-6.08,-5.0683,-5.0683,-5.0683,-5.0683,-5.0683,-5.0683,-5.1164,-5.1952,-5.2856,-5.372,-5.4566,-5.5415,-5.5684,-5.5684,-5.5684,-5.5684,-5.5684,-5.5684,-5.5684,-5.5684,-5.5684,-5.5684,-5.5684,-5.5684,-5.5684,-5.5684,-5.5684,-5.5684,-5.5703,-5.5955,-5.6797,-5.7928,-5.8931,-5.98,-6.0358,-6.0704,-6.0742,-6.08,-6.08,-6.08,-6.08,-6.08,-6.08,-6.08,-6.08,-6.08,-6.08,-6.08,-6.08,-6.08,-6.08,-6.08,-6.08,-6.08,-6.08,-6.08,-6.08,-6.08,-6.08,-6.08,-6.0973,-6.1127,-6.1743,-6.1993,-6.2147,-6.2416,-6.2647,-6.2767,-6.2748,-6.2935,-6.307,-6.2993,-6.2935,-6.2704,-6.2377,-6.2166,-6.1858,-6.1531,-6.105,-6.0877,-6.0819,-6.08,-6.08,-6.08,-6.08,-6.08,-6.08,-6.08,-6.08,-6.08,-6.08,-6.08,-6.08,-6.08,-6.08,-6.08,-6.08,-6.08,-6.08,-6.08,-6.08,-6.08,-6.08,-6.08,-6.08,-6.08,-6.08,-6.08,-6.08,-6.08,-6.08,-6.08,-6.08,-6.08,-6.08,-5.0683,-5.0683,-5.0683,-5.0683,-5.0683,-5.0683,-5.1164,-5.1972,-5.2839,-5.3685,-5.4566,-5.5357,-5.5626,-5.5684,-5.5684,-5.5684,-5.5684,-5.5684,-5.5684,-5.5684,-5.5684,-5.5684,-5.5684,-5.5684,-5.5684,-5.5684,-5.5684,-5.5703,-5.5838,-5.6148,-5.6571,-5.7437,-5.8761,-5.9511,-6.0012,-6.0473,-6.0685,-6.08,-6.08,-6.08,-6.08,-6.08,-6.08,-6.08,-6.08,-6.08,-6.08,-6.08,-6.08,-6.08,-6.08,-6.08,-6.08,-6.08,-6.08,-6.08,-6.08,-6.08,-6.08,-6.08,-6.1012,-6.1627,-6.2416,-6.2435,-6.2551,-6.2916,-6.3435,-6.3628,-6.3666,-6.3762,-6.3776,-6.3757,-6.3762,-6.3589,-6.3243,-6.2897,-6.2531,-6.1973,-6.1454,-6.0858,-6.08,-6.08,-6.08,-6.08,-6.08,-6.08,-6.08,-6.08,-6.08,-6.08,-6.08,-6.08,-6.08,-6.08,-6.08,-6.08,-6.08,-6.08,-6.08,-6.08,-6.08,-6.08,-6.08,-6.08,-6.08,-6.08,-6.08,-6.08,-6.08,-6.08,-6.08,-6.08,-6.08,-6.08,-6.08,-5.0394,-5.0664,-5.0683,-5.0683,-5.0683,-5.0683,-5.101,-5.1548,-5.23,-5.3165,-5.4047,-5.4836,-5.5395,-5.5684,-5.5684,-5.5684,-5.5684,-5.5684,-5.5684,-5.5684,-5.5684,-5.5684,-5.5684,-5.5684,-5.5684,-5.5684,-5.5684,-5.5703,-5.5838,-5.6148,-5.6533,-5.717,-5.8476,-5.9088,-5.9665,-6.0319,-6.0742,-6.08,-6.08,-6.08,-6.08,-6.08,-6.08,-6.08,-6.08,-6.08,-6.08,-6.08,-6.08,-6.08,-6.08,-6.08,-6.08,-6.08,-6.08,-6.08,-6.08,-6.08,-6.08,-6.08,-6.13,-6.2012,-6.2839,-6.3185,-6.3589,-6.4051,-6.4359,-6.4551,-6.4474,-6.4416,-6.4372,-6.4353,-6.4378,-6.4378,-6.3993,-6.3628,-6.307,-6.2474,-6.1762,-6.1012,-6.08,-6.08,-6.08,-6.08,-6.08,-6.08,-6.08,-6.08,-6.08,-6.08,-6.08,-6.08,-6.08,-6.08,-6.08,-6.08,-6.08,-6.08,-6.08,-6.08,-6.08,-6.08,-6.08,-6.08,-6.08,-6.08,-6.08,-6.08,-6.08,-6.08,-6.08,-6.08,-6.08,-6.08,-6.08,-4.9875,-5.0567,-5.0644,-5.0683,-5.0683,-5.0683,-5.0721,-5.076,-5.151,-5.2338,-5.3299,-5.4143,-5.5009,-5.5588,-5.5684,-5.5684,-5.5684,-5.5684,-5.5684,-5.5684,-5.5684,-5.5684,-5.5684,-5.5684,-5.5684,-5.5684,-5.5684,-5.5684,-5.5684,-5.5876,-5.6282,-5.6958,-5.7937,-5.8665,-5.9261,-6.03,-6.0762,-6.08,-6.08,-6.08,-6.08,-6.08,-6.08,-6.08,-6.08,-6.08,-6.08,-6.08,-6.08,-6.08,-6.08,-6.08,-6.08,-6.08,-6.08,-6.08,-6.08,-6.08,-6.08,-6.08,-6.13,-6.2012,-6.2839,-6.3551,-6.4128,-6.4859,-6.5186,-6.5282,-6.5186,-6.5186,-6.5186,-6.5186,-6.5186,-6.5109,-6.4878,-6.4436,-6.3897,-6.2974,-6.1762,-6.1108,-6.08,-6.08,-6.08,-6.08,-6.08,-6.08,-6.08,-6.08,-6.08,-6.08,-6.08,-6.08,-6.08,-6.08,-6.08,-6.08,-6.08,-6.08,-6.08,-6.08,-6.08,-6.08,-6.08,-6.08,-6.08,-6.08,-6.08,-6.08,-6.08,-6.08,-6.08,-6.08,-6.08,-6.08,-6.08,-4.951,-4.976,-5.0433,-5.0683,-5.0683,-5.0683,-5.0683,-5.0702,-5.0875,-5.1838,-5.3166,-5.4087,-5.4912,-5.553,-5.5665,-5.5684,-5.5684,-5.5684,-5.5684,-5.5684,-5.5684,-5.5684,-5.5684,-5.5684,-5.5684,-5.5684,-5.5684,-5.5684,-5.5684,-5.5722,-5.5799,-5.6225,-5.7338,-5.8377,-5.8781,-5.9935,-6.0646,-6.0762,-6.08,-6.08,-6.08,-6.08,-6.08,-6.08,-6.08,-6.08,-6.08,-6.08,-6.08,-6.08,-6.08,-6.08,-6.08,-6.08,-6.08,-6.08,-6.08,-6.08,-6.08,-6.0858,-6.1262,-6.1993,-6.2839,-6.3666,-6.4493,-6.5397,-6.5859,-6.5859,-6.5878,-6.5878,-6.5878,-6.5878,-6.5878,-6.5763,-6.5667,-6.5166,-6.4666,-6.3301,-6.1858,-6.132,-6.0935,-6.08,-6.08,-6.08,-6.08,-6.08,-6.08,-6.08,-6.08,-6.08,-6.08,-6.08,-6.08,-6.08,-6.08,-6.08,-6.08,-6.08,-6.08,-6.08,-6.08,-6.08,-6.08,-6.08,-6.08,-6.08,-6.08,-6.08,-6.08,-6.08,-6.08,-6.08,-6.08,-6.08,-6.08,-4.9067,-4.949,-5.0337,-5.0683,-5.0683,-5.0683,-5.0683,-5.0683,-5.0683,-5.1414,-5.2627,-5.3549,-5.4372,-5.5222,-5.5511,-5.5684,-5.5684,-5.5684,-5.5684,-5.5684,-5.5684,-5.5684,-5.5684,-5.5684,-5.5684,-5.5684,-5.5684,-5.5684,-5.5684,-5.5703,-5.5761,-5.5934,-5.7107,-5.7953,-5.8357,-5.9569,-6.0454,-6.0762,-6.0762,-6.08,-6.08,-6.08,-6.08,-6.08,-6.08,-6.08,-6.08,-6.08,-6.08,-6.08,-6.08,-6.08,-6.08,-6.08,-6.08,-6.08,-6.08,-6.08,-6.08,-6.0896,-6.1185,-6.1954,-6.2397,-6.3089,-6.4353,-6.516,-6.5551,-6.5609,-6.584,-6.5878,-6.5878,-6.5878,-6.5878,-6.582,-6.5705,-6.5416,-6.4666,-6.3589,-6.2474,-6.1743,-6.1281,-6.08,-6.08,-6.08,-6.08,-6.08,-6.08,-6.08,-6.08,-6.08,-6.08,-6.08,-6.08,-6.08,-6.08,-6.08,-6.08,-6.08,-6.08,-6.08,-6.08,-6.08,-6.08,-6.08,-6.08,-6.08,-6.08,-6.08,-6.08,-6.08,-6.08,-6.08,-6.08,-6.08,-6.08,-4.8508,-4.9471,-5.0337,-5.0683,-5.0683,-5.0683,-5.0683,-5.0683,-5.0702,-5.1068,-5.1799,-5.2663,-5.3546,-5.4487,-5.5318,-5.5549,-5.5684,-5.5684,-5.5684,-5.5684,-5.5684,-5.5684,-5.5684,-5.5684,-5.5684,-5.5684,-5.5684,-5.5684,-5.5684,-5.5684,-5.5742,-5.5895,-5.653,-5.7357,-5.8165,-5.9069,-5.9877,-6.0377,-6.0589,-6.0762,-6.08,-6.08,-6.08,-6.08,-6.08,-6.08,-6.08,-6.08,-6.08,-6.08,-6.08,-6.08,-6.08,-6.08,-6.08,-6.08,-6.08,-6.08,-6.08,-6.08,-6.1223,-6.1704,-6.1935,-6.2685,-6.393,-6.4526,-6.4897,-6.5359,-6.559,-6.5859,-6.5859,-6.5878,-6.5878,-6.5878,-6.5763,-6.557,-6.4705,-6.382,-6.2954,-6.2127,-6.1493,-6.0916,-6.08,-6.08,-6.08,-6.08,-6.08,-6.08,-6.08,-6.08,-6.08,-6.08,-6.08,-6.08,-6.08,-6.08,-6.08,-6.08,-6.08,-6.08,-6.08,-6.08,-6.08,-6.08,-6.08,-6.08,-6.08,-6.08,-6.08,-6.08,-6.08,-6.08,-6.08,-6.08,-6.08,-4.8008,-4.9471,-5.0337,-5.0683,-5.0683,-5.0683,-5.0683,-5.0683,-5.0683,-5.0798,-5.1164,-5.1876,-5.2953,-5.4528,-5.5338,-5.5684,-5.5684,-5.5684,-5.5684,-5.5684,-5.5684,-5.5684,-5.5684,-5.5684,-5.5684,-5.5684,-5.5684,-5.5684,-5.5684,-5.5684,-5.5703,-5.5761,-5.6511,-5.7107,-5.7415,-5.8434,-5.955,-5.9988,-6.0531,-6.08,-6.08,-6.08,-6.08,-6.08,-6.08,-6.08,-6.08,-6.08,-6.08,-6.08,-6.08,-6.08,-6.08,-6.08,-6.08,-6.08,-6.08,-6.08,-6.08,-6.08,-6.1166,-6.1185,-6.1493,-6.205,-6.2974,-6.3397,-6.3935,-6.4743,-6.5109,-6.5667,-6.5782,-6.5859,-6.5878,-6.5878,-6.582,-6.5436,-6.482,-6.3897,-6.3012,-6.2185,-6.1435,-6.1031,-6.08,-6.08,-6.08,-6.08,-6.08,-6.08,-6.08,-6.08,-6.08,-6.08,-6.08,-6.08,-6.08,-6.08,-6.08,-6.08,-6.08,-6.08,-6.08,-6.08,-6.08,-6.08,-6.08,-6.08,-6.08,-6.08,-6.08,-6.08,-6.08,-6.08,-6.08,-6.08,-6.08]}]]